<?xml version="1.0" encoding="UTF-8" standalone="no" ?>
<gpx xmlns="http://www.topografix.com/GPX/1/1" xmlns:xsi="http://www.w3.org/2001/XMLSchema-instance" xsi:schemaLocation="http://www.topografix.com/GPX/1/1 http://www.topografix.com/GPX/1/1/gpx.xsd" version="1.1" creator="VisuGPX - https://www.visugpx.com">
  <metadata>
    <name>Echappée bleue (HS)</name>
    <desc><![CDATA[L?échappée bleue est une trace cyclable qui emprunte la vallée de la Saône; soit en site propre soit en site partagé.]]></desc>
  </metadata>
  <trk>
    <name><![CDATA[20181203104236-CWYHP]]></name>
    <trkseg>
      <trkpt lat="47.91953" lon="5.99547">
        <ele>222</ele>
        <time>2018-12-03T09:21:59Z</time>
      </trkpt>
      <trkpt lat="47.91922" lon="5.99521">
        <ele>222</ele>
        <time>2018-12-03T09:22:59Z</time>
      </trkpt>
      <trkpt lat="47.91903" lon="5.99508">
        <ele>222</ele>
        <time>2018-12-03T09:23:59Z</time>
      </trkpt>
      <trkpt lat="47.91887" lon="5.995">
        <ele>222</ele>
        <time>2018-12-03T09:24:59Z</time>
      </trkpt>
      <trkpt lat="47.91848" lon="5.99483">
        <ele>223</ele>
        <time>2018-12-03T09:25:59Z</time>
      </trkpt>
      <trkpt lat="47.91823" lon="5.99473">
        <ele>223</ele>
        <time>2018-12-03T09:26:59Z</time>
      </trkpt>
      <trkpt lat="47.91806" lon="5.99464">
        <ele>223</ele>
        <time>2018-12-03T09:27:59Z</time>
      </trkpt>
      <trkpt lat="47.91785" lon="5.99452">
        <ele>224</ele>
        <time>2018-12-03T09:28:59Z</time>
      </trkpt>
      <trkpt lat="47.91762" lon="5.99438">
        <ele>224</ele>
        <time>2018-12-03T09:29:59Z</time>
      </trkpt>
      <trkpt lat="47.91745" lon="5.99428">
        <ele>224</ele>
        <time>2018-12-03T09:30:59Z</time>
      </trkpt>
      <trkpt lat="47.91756" lon="5.99397">
        <ele>224</ele>
        <time>2018-12-03T09:31:59Z</time>
      </trkpt>
      <trkpt lat="47.91757" lon="5.99394">
        <ele>224</ele>
        <time>2018-12-03T09:32:59Z</time>
      </trkpt>
      <trkpt lat="47.91774" lon="5.99358">
        <ele>225</ele>
        <time>2018-12-03T09:33:59Z</time>
      </trkpt>
      <trkpt lat="47.91788" lon="5.9933">
        <ele>225</ele>
        <time>2018-12-03T09:34:59Z</time>
      </trkpt>
      <trkpt lat="47.91803" lon="5.99303">
        <ele>225</ele>
        <time>2018-12-03T09:35:59Z</time>
      </trkpt>
      <trkpt lat="47.91829" lon="5.99259">
        <ele>224</ele>
        <time>2018-12-03T09:36:59Z</time>
      </trkpt>
      <trkpt lat="47.91832" lon="5.99249">
        <ele>224</ele>
        <time>2018-12-03T09:37:59Z</time>
      </trkpt>
      <trkpt lat="47.91834" lon="5.99231">
        <ele>224</ele>
        <time>2018-12-03T09:38:59Z</time>
      </trkpt>
      <trkpt lat="47.91834" lon="5.99226">
        <ele>224</ele>
        <time>2018-12-03T09:39:59Z</time>
      </trkpt>
      <trkpt lat="47.91833" lon="5.99216">
        <ele>224</ele>
        <time>2018-12-03T09:40:59Z</time>
      </trkpt>
      <trkpt lat="47.91827" lon="5.99193">
        <ele>225</ele>
        <time>2018-12-03T09:41:59Z</time>
      </trkpt>
      <trkpt lat="47.91778" lon="5.98973">
        <ele>223</ele>
        <time>2018-12-03T09:42:59Z</time>
      </trkpt>
      <trkpt lat="47.91776" lon="5.98965">
        <ele>223</ele>
        <time>2018-12-03T09:43:59Z</time>
      </trkpt>
      <trkpt lat="47.91773" lon="5.98956">
        <ele>223</ele>
        <time>2018-12-03T09:44:59Z</time>
      </trkpt>
      <trkpt lat="47.91769" lon="5.98944">
        <ele>223</ele>
        <time>2018-12-03T09:45:59Z</time>
      </trkpt>
      <trkpt lat="47.91763" lon="5.98931">
        <ele>223</ele>
        <time>2018-12-03T09:46:59Z</time>
      </trkpt>
      <trkpt lat="47.91756" lon="5.98916">
        <ele>223</ele>
        <time>2018-12-03T09:47:59Z</time>
      </trkpt>
      <trkpt lat="47.91749" lon="5.98898">
        <ele>223</ele>
        <time>2018-12-03T09:48:59Z</time>
      </trkpt>
      <trkpt lat="47.91738" lon="5.98873">
        <ele>223</ele>
        <time>2018-12-03T09:49:59Z</time>
      </trkpt>
      <trkpt lat="47.91732" lon="5.98852">
        <ele>223</ele>
        <time>2018-12-03T09:50:59Z</time>
      </trkpt>
      <trkpt lat="47.91729" lon="5.98838">
        <ele>223</ele>
        <time>2018-12-03T09:51:59Z</time>
      </trkpt>
      <trkpt lat="47.91693" lon="5.98841">
        <ele>221</ele>
        <time>2018-12-03T09:52:59Z</time>
      </trkpt>
      <trkpt lat="47.9169" lon="5.98841">
        <ele>221</ele>
        <time>2018-12-03T09:53:59Z</time>
      </trkpt>
      <trkpt lat="47.91562" lon="5.98829">
        <ele>220</ele>
        <time>2018-12-03T09:54:59Z</time>
      </trkpt>
      <trkpt lat="47.91555" lon="5.98829">
        <ele>220</ele>
        <time>2018-12-03T09:55:59Z</time>
      </trkpt>
      <trkpt lat="47.91534" lon="5.98828">
        <ele>220</ele>
        <time>2018-12-03T09:56:59Z</time>
      </trkpt>
      <trkpt lat="47.91512" lon="5.98826">
        <ele>220</ele>
        <time>2018-12-03T09:57:59Z</time>
      </trkpt>
      <trkpt lat="47.91473" lon="5.98819">
        <ele>219</ele>
        <time>2018-12-03T09:58:59Z</time>
      </trkpt>
      <trkpt lat="47.91254" lon="5.98772">
        <ele>221</ele>
        <time>2018-12-03T09:59:59Z</time>
      </trkpt>
      <trkpt lat="47.91241" lon="5.98769">
        <ele>222</ele>
        <time>2018-12-03T10:00:59Z</time>
      </trkpt>
      <trkpt lat="47.91225" lon="5.98764">
        <ele>223</ele>
        <time>2018-12-03T10:01:59Z</time>
      </trkpt>
      <trkpt lat="47.91216" lon="5.9876">
        <ele>223</ele>
        <time>2018-12-03T10:02:59Z</time>
      </trkpt>
      <trkpt lat="47.9121" lon="5.98756">
        <ele>223</ele>
        <time>2018-12-03T10:03:59Z</time>
      </trkpt>
      <trkpt lat="47.91201" lon="5.9875">
        <ele>224</ele>
        <time>2018-12-03T10:04:59Z</time>
      </trkpt>
      <trkpt lat="47.91196" lon="5.98745">
        <ele>224</ele>
        <time>2018-12-03T10:05:59Z</time>
      </trkpt>
      <trkpt lat="47.91192" lon="5.98741">
        <ele>224</ele>
        <time>2018-12-03T10:06:59Z</time>
      </trkpt>
      <trkpt lat="47.91183" lon="5.9873">
        <ele>225</ele>
        <time>2018-12-03T10:07:59Z</time>
      </trkpt>
      <trkpt lat="47.91176" lon="5.98719">
        <ele>226</ele>
        <time>2018-12-03T10:08:59Z</time>
      </trkpt>
      <trkpt lat="47.91164" lon="5.98691">
        <ele>227</ele>
        <time>2018-12-03T10:09:59Z</time>
      </trkpt>
      <trkpt lat="47.9116" lon="5.98674">
        <ele>229</ele>
        <time>2018-12-03T10:10:59Z</time>
      </trkpt>
      <trkpt lat="47.91156" lon="5.98649">
        <ele>229</ele>
        <time>2018-12-03T10:11:59Z</time>
      </trkpt>
      <trkpt lat="47.91155" lon="5.98641">
        <ele>229</ele>
        <time>2018-12-03T10:12:59Z</time>
      </trkpt>
      <trkpt lat="47.91155" lon="5.98621">
        <ele>229</ele>
        <time>2018-12-03T10:13:59Z</time>
      </trkpt>
      <trkpt lat="47.91156" lon="5.98602">
        <ele>229</ele>
        <time>2018-12-03T10:14:59Z</time>
      </trkpt>
      <trkpt lat="47.91161" lon="5.98559">
        <ele>228</ele>
        <time>2018-12-03T10:15:59Z</time>
      </trkpt>
      <trkpt lat="47.91169" lon="5.98511">
        <ele>228</ele>
        <time>2018-12-03T10:16:59Z</time>
      </trkpt>
      <trkpt lat="47.91179" lon="5.98442">
        <ele>227</ele>
        <time>2018-12-03T10:17:59Z</time>
      </trkpt>
      <trkpt lat="47.912" lon="5.98289">
        <ele>228</ele>
        <time>2018-12-03T10:18:59Z</time>
      </trkpt>
      <trkpt lat="47.91206" lon="5.98246">
        <ele>228</ele>
        <time>2018-12-03T10:19:59Z</time>
      </trkpt>
      <trkpt lat="47.91211" lon="5.98198">
        <ele>228</ele>
        <time>2018-12-03T10:20:59Z</time>
      </trkpt>
      <trkpt lat="47.91213" lon="5.98164">
        <ele>227</ele>
        <time>2018-12-03T10:21:59Z</time>
      </trkpt>
      <trkpt lat="47.91213" lon="5.98134">
        <ele>228</ele>
        <time>2018-12-03T10:22:59Z</time>
      </trkpt>
      <trkpt lat="47.91211" lon="5.98109">
        <ele>228</ele>
        <time>2018-12-03T10:23:59Z</time>
      </trkpt>
      <trkpt lat="47.91204" lon="5.98073">
        <ele>229</ele>
        <time>2018-12-03T10:24:59Z</time>
      </trkpt>
      <trkpt lat="47.91197" lon="5.98043">
        <ele>229</ele>
        <time>2018-12-03T10:25:59Z</time>
      </trkpt>
      <trkpt lat="47.9119" lon="5.98022">
        <ele>229</ele>
        <time>2018-12-03T10:26:59Z</time>
      </trkpt>
      <trkpt lat="47.91172" lon="5.97987">
        <ele>230</ele>
        <time>2018-12-03T10:27:59Z</time>
      </trkpt>
      <trkpt lat="47.91159" lon="5.97964">
        <ele>230</ele>
        <time>2018-12-03T10:28:59Z</time>
      </trkpt>
      <trkpt lat="47.91139" lon="5.97936">
        <ele>231</ele>
        <time>2018-12-03T10:29:59Z</time>
      </trkpt>
      <trkpt lat="47.91104" lon="5.97895">
        <ele>232</ele>
        <time>2018-12-03T10:30:59Z</time>
      </trkpt>
      <trkpt lat="47.91066" lon="5.97853">
        <ele>232</ele>
        <time>2018-12-03T10:31:59Z</time>
      </trkpt>
      <trkpt lat="47.91019" lon="5.97798">
        <ele>232</ele>
        <time>2018-12-03T10:32:59Z</time>
      </trkpt>
      <trkpt lat="47.90972" lon="5.97743">
        <ele>233</ele>
        <time>2018-12-03T10:33:59Z</time>
      </trkpt>
      <trkpt lat="47.90906" lon="5.97668">
        <ele>235</ele>
        <time>2018-12-03T10:34:59Z</time>
      </trkpt>
      <trkpt lat="47.90901" lon="5.97662">
        <ele>234</ele>
        <time>2018-12-03T10:35:59Z</time>
      </trkpt>
      <trkpt lat="47.90894" lon="5.97655">
        <ele>234</ele>
        <time>2018-12-03T10:36:59Z</time>
      </trkpt>
      <trkpt lat="47.90872" lon="5.97634">
        <ele>234</ele>
        <time>2018-12-03T10:37:59Z</time>
      </trkpt>
      <trkpt lat="47.90859" lon="5.97625">
        <ele>235</ele>
        <time>2018-12-03T10:38:59Z</time>
      </trkpt>
      <trkpt lat="47.90847" lon="5.97615">
        <ele>235</ele>
        <time>2018-12-03T10:39:59Z</time>
      </trkpt>
      <trkpt lat="47.90812" lon="5.97595">
        <ele>236</ele>
        <time>2018-12-03T10:40:59Z</time>
      </trkpt>
      <trkpt lat="47.90785" lon="5.97579">
        <ele>236</ele>
        <time>2018-12-03T10:41:59Z</time>
      </trkpt>
      <trkpt lat="47.90767" lon="5.97564">
        <ele>236</ele>
        <time>2018-12-03T10:42:59Z</time>
      </trkpt>
      <trkpt lat="47.90761" lon="5.97557">
        <ele>237</ele>
        <time>2018-12-03T10:43:59Z</time>
      </trkpt>
      <trkpt lat="47.90754" lon="5.97548">
        <ele>237</ele>
        <time>2018-12-03T10:44:59Z</time>
      </trkpt>
      <trkpt lat="47.90749" lon="5.9754">
        <ele>237</ele>
        <time>2018-12-03T10:45:59Z</time>
      </trkpt>
      <trkpt lat="47.90741" lon="5.97527">
        <ele>237</ele>
        <time>2018-12-03T10:46:59Z</time>
      </trkpt>
      <trkpt lat="47.90736" lon="5.97515">
        <ele>238</ele>
        <time>2018-12-03T10:47:59Z</time>
      </trkpt>
      <trkpt lat="47.90726" lon="5.97491">
        <ele>238</ele>
        <time>2018-12-03T10:48:59Z</time>
      </trkpt>
      <trkpt lat="47.90718" lon="5.97466">
        <ele>237</ele>
        <time>2018-12-03T10:49:59Z</time>
      </trkpt>
      <trkpt lat="47.90708" lon="5.97442">
        <ele>237</ele>
        <time>2018-12-03T10:50:59Z</time>
      </trkpt>
      <trkpt lat="47.90703" lon="5.9743">
        <ele>237</ele>
        <time>2018-12-03T10:51:59Z</time>
      </trkpt>
      <trkpt lat="47.90697" lon="5.97418">
        <ele>237</ele>
        <time>2018-12-03T10:52:59Z</time>
      </trkpt>
      <trkpt lat="47.90691" lon="5.97407">
        <ele>237</ele>
        <time>2018-12-03T10:53:59Z</time>
      </trkpt>
      <trkpt lat="47.90684" lon="5.97398">
        <ele>237</ele>
        <time>2018-12-03T10:54:59Z</time>
      </trkpt>
      <trkpt lat="47.90676" lon="5.97388">
        <ele>237</ele>
        <time>2018-12-03T10:55:59Z</time>
      </trkpt>
      <trkpt lat="47.9066" lon="5.97374">
        <ele>237</ele>
        <time>2018-12-03T10:56:59Z</time>
      </trkpt>
      <trkpt lat="47.9065" lon="5.97367">
        <ele>238</ele>
        <time>2018-12-03T10:57:59Z</time>
      </trkpt>
      <trkpt lat="47.90641" lon="5.9736">
        <ele>238</ele>
        <time>2018-12-03T10:58:59Z</time>
      </trkpt>
      <trkpt lat="47.90632" lon="5.97354">
        <ele>238</ele>
        <time>2018-12-03T10:59:59Z</time>
      </trkpt>
      <trkpt lat="47.90613" lon="5.97341">
        <ele>239</ele>
        <time>2018-12-03T11:00:59Z</time>
      </trkpt>
      <trkpt lat="47.90581" lon="5.97321">
        <ele>240</ele>
        <time>2018-12-03T11:01:59Z</time>
      </trkpt>
      <trkpt lat="47.9056" lon="5.97309">
        <ele>240</ele>
        <time>2018-12-03T11:02:59Z</time>
      </trkpt>
      <trkpt lat="47.90539" lon="5.97301">
        <ele>241</ele>
        <time>2018-12-03T11:03:59Z</time>
      </trkpt>
      <trkpt lat="47.90517" lon="5.97295">
        <ele>242</ele>
        <time>2018-12-03T11:04:59Z</time>
      </trkpt>
      <trkpt lat="47.90486" lon="5.97289">
        <ele>244</ele>
        <time>2018-12-03T11:05:59Z</time>
      </trkpt>
      <trkpt lat="47.90471" lon="5.97286">
        <ele>245</ele>
        <time>2018-12-03T11:06:59Z</time>
      </trkpt>
      <trkpt lat="47.90464" lon="5.97283">
        <ele>245</ele>
        <time>2018-12-03T11:07:59Z</time>
      </trkpt>
      <trkpt lat="47.90454" lon="5.97279">
        <ele>246</ele>
        <time>2018-12-03T11:08:59Z</time>
      </trkpt>
      <trkpt lat="47.90444" lon="5.97273">
        <ele>246</ele>
        <time>2018-12-03T11:09:59Z</time>
      </trkpt>
      <trkpt lat="47.90433" lon="5.97266">
        <ele>246</ele>
        <time>2018-12-03T11:10:59Z</time>
      </trkpt>
      <trkpt lat="47.90425" lon="5.97256">
        <ele>247</ele>
        <time>2018-12-03T11:11:59Z</time>
      </trkpt>
      <trkpt lat="47.90408" lon="5.9723">
        <ele>245</ele>
        <time>2018-12-03T11:12:59Z</time>
      </trkpt>
      <trkpt lat="47.90395" lon="5.97208">
        <ele>244</ele>
        <time>2018-12-03T11:13:59Z</time>
      </trkpt>
      <trkpt lat="47.90379" lon="5.97174">
        <ele>242</ele>
        <time>2018-12-03T11:14:59Z</time>
      </trkpt>
      <trkpt lat="47.90368" lon="5.97152">
        <ele>241</ele>
        <time>2018-12-03T11:15:59Z</time>
      </trkpt>
      <trkpt lat="47.90351" lon="5.97124">
        <ele>239</ele>
        <time>2018-12-03T11:16:59Z</time>
      </trkpt>
      <trkpt lat="47.90345" lon="5.97116">
        <ele>239</ele>
        <time>2018-12-03T11:17:59Z</time>
      </trkpt>
      <trkpt lat="47.90338" lon="5.97108">
        <ele>239</ele>
        <time>2018-12-03T11:18:59Z</time>
      </trkpt>
      <trkpt lat="47.90332" lon="5.97103">
        <ele>239</ele>
        <time>2018-12-03T11:19:59Z</time>
      </trkpt>
      <trkpt lat="47.90323" lon="5.97096">
        <ele>238</ele>
        <time>2018-12-03T11:20:59Z</time>
      </trkpt>
      <trkpt lat="47.90309" lon="5.97087">
        <ele>238</ele>
        <time>2018-12-03T11:21:59Z</time>
      </trkpt>
      <trkpt lat="47.90284" lon="5.97077">
        <ele>239</ele>
        <time>2018-12-03T11:22:59Z</time>
      </trkpt>
      <trkpt lat="47.90271" lon="5.9707">
        <ele>239</ele>
        <time>2018-12-03T11:23:59Z</time>
      </trkpt>
      <trkpt lat="47.90255" lon="5.9706">
        <ele>239</ele>
        <time>2018-12-03T11:24:59Z</time>
      </trkpt>
      <trkpt lat="47.90244" lon="5.97051">
        <ele>239</ele>
        <time>2018-12-03T11:25:59Z</time>
      </trkpt>
      <trkpt lat="47.90233" lon="5.9704">
        <ele>239</ele>
        <time>2018-12-03T11:26:59Z</time>
      </trkpt>
      <trkpt lat="47.90223" lon="5.97028">
        <ele>239</ele>
        <time>2018-12-03T11:27:59Z</time>
      </trkpt>
      <trkpt lat="47.90219" lon="5.97022">
        <ele>239</ele>
        <time>2018-12-03T11:28:59Z</time>
      </trkpt>
      <trkpt lat="47.90204" lon="5.96992">
        <ele>239</ele>
        <time>2018-12-03T11:29:59Z</time>
      </trkpt>
      <trkpt lat="47.90185" lon="5.96957">
        <ele>239</ele>
        <time>2018-12-03T11:30:59Z</time>
      </trkpt>
      <trkpt lat="47.90177" lon="5.96942">
        <ele>240</ele>
        <time>2018-12-03T11:31:59Z</time>
      </trkpt>
      <trkpt lat="47.90168" lon="5.96928">
        <ele>240</ele>
        <time>2018-12-03T11:32:59Z</time>
      </trkpt>
      <trkpt lat="47.90163" lon="5.96921">
        <ele>241</ele>
        <time>2018-12-03T11:33:59Z</time>
      </trkpt>
      <trkpt lat="47.90156" lon="5.96913">
        <ele>241</ele>
        <time>2018-12-03T11:34:59Z</time>
      </trkpt>
      <trkpt lat="47.90139" lon="5.96894">
        <ele>241</ele>
        <time>2018-12-03T11:35:59Z</time>
      </trkpt>
      <trkpt lat="47.90125" lon="5.96882">
        <ele>241</ele>
        <time>2018-12-03T11:36:59Z</time>
      </trkpt>
      <trkpt lat="47.90112" lon="5.9687">
        <ele>242</ele>
        <time>2018-12-03T11:37:59Z</time>
      </trkpt>
      <trkpt lat="47.90105" lon="5.96865">
        <ele>242</ele>
        <time>2018-12-03T11:38:59Z</time>
      </trkpt>
      <trkpt lat="47.90039" lon="5.9681">
        <ele>246</ele>
        <time>2018-12-03T11:39:59Z</time>
      </trkpt>
      <trkpt lat="47.90007" lon="5.96785">
        <ele>246</ele>
        <time>2018-12-03T11:40:59Z</time>
      </trkpt>
      <trkpt lat="47.89987" lon="5.96768">
        <ele>246</ele>
        <time>2018-12-03T11:41:59Z</time>
      </trkpt>
      <trkpt lat="47.89966" lon="5.9675">
        <ele>247</ele>
        <time>2018-12-03T11:42:59Z</time>
      </trkpt>
      <trkpt lat="47.89946" lon="5.96734">
        <ele>249</ele>
        <time>2018-12-03T11:43:59Z</time>
      </trkpt>
      <trkpt lat="47.89926" lon="5.96718">
        <ele>250</ele>
        <time>2018-12-03T11:44:59Z</time>
      </trkpt>
      <trkpt lat="47.89782" lon="5.96599">
        <ele>253</ele>
        <time>2018-12-03T11:45:59Z</time>
      </trkpt>
      <trkpt lat="47.89726" lon="5.96553">
        <ele>254</ele>
        <time>2018-12-03T11:46:59Z</time>
      </trkpt>
      <trkpt lat="47.89683" lon="5.96515">
        <ele>255</ele>
        <time>2018-12-03T11:47:59Z</time>
      </trkpt>
      <trkpt lat="47.89678" lon="5.96509">
        <ele>255</ele>
        <time>2018-12-03T11:48:59Z</time>
      </trkpt>
      <trkpt lat="47.89665" lon="5.96497">
        <ele>255</ele>
        <time>2018-12-03T11:49:59Z</time>
      </trkpt>
      <trkpt lat="47.89661" lon="5.96493">
        <ele>255</ele>
        <time>2018-12-03T11:50:59Z</time>
      </trkpt>
      <trkpt lat="47.89661" lon="5.96493">
        <ele>255</ele>
        <time>2018-12-03T11:51:59Z</time>
      </trkpt>
      <trkpt lat="47.89658" lon="5.96506">
        <ele>254</ele>
        <time>2018-12-03T11:52:59Z</time>
      </trkpt>
      <trkpt lat="47.89656" lon="5.96523">
        <ele>252</ele>
        <time>2018-12-03T11:53:59Z</time>
      </trkpt>
      <trkpt lat="47.89656" lon="5.96532">
        <ele>252</ele>
        <time>2018-12-03T11:54:59Z</time>
      </trkpt>
      <trkpt lat="47.89672" lon="5.96696">
        <ele>247</ele>
        <time>2018-12-03T11:55:59Z</time>
      </trkpt>
      <trkpt lat="47.89677" lon="5.96769">
        <ele>245</ele>
        <time>2018-12-03T11:56:59Z</time>
      </trkpt>
      <trkpt lat="47.89686" lon="5.96857">
        <ele>243</ele>
        <time>2018-12-03T11:57:59Z</time>
      </trkpt>
      <trkpt lat="47.89687" lon="5.9687">
        <ele>242</ele>
        <time>2018-12-03T11:58:59Z</time>
      </trkpt>
      <trkpt lat="47.89687" lon="5.96885">
        <ele>242</ele>
        <time>2018-12-03T11:59:59Z</time>
      </trkpt>
      <trkpt lat="47.89685" lon="5.96905">
        <ele>241</ele>
        <time>2018-12-03T12:00:59Z</time>
      </trkpt>
      <trkpt lat="47.89684" lon="5.96912">
        <ele>241</ele>
        <time>2018-12-03T12:01:59Z</time>
      </trkpt>
      <trkpt lat="47.89679" lon="5.96927">
        <ele>240</ele>
        <time>2018-12-03T12:02:59Z</time>
      </trkpt>
      <trkpt lat="47.89676" lon="5.96935">
        <ele>240</ele>
        <time>2018-12-03T12:03:59Z</time>
      </trkpt>
      <trkpt lat="47.89671" lon="5.96945">
        <ele>240</ele>
        <time>2018-12-03T12:04:59Z</time>
      </trkpt>
      <trkpt lat="47.89667" lon="5.96953">
        <ele>239</ele>
        <time>2018-12-03T12:05:59Z</time>
      </trkpt>
      <trkpt lat="47.89661" lon="5.96975">
        <ele>238</ele>
        <time>2018-12-03T12:06:59Z</time>
      </trkpt>
      <trkpt lat="47.8966" lon="5.96985">
        <ele>237</ele>
        <time>2018-12-03T12:07:59Z</time>
      </trkpt>
      <trkpt lat="47.89661" lon="5.96998">
        <ele>237</ele>
        <time>2018-12-03T12:08:59Z</time>
      </trkpt>
      <trkpt lat="47.89665" lon="5.97014">
        <ele>238</ele>
        <time>2018-12-03T12:09:59Z</time>
      </trkpt>
      <trkpt lat="47.89669" lon="5.97031">
        <ele>238</ele>
        <time>2018-12-03T12:10:59Z</time>
      </trkpt>
      <trkpt lat="47.89669" lon="5.97039">
        <ele>238</ele>
        <time>2018-12-03T12:11:59Z</time>
      </trkpt>
      <trkpt lat="47.8967" lon="5.97044">
        <ele>238</ele>
        <time>2018-12-03T12:12:59Z</time>
      </trkpt>
      <trkpt lat="47.89669" lon="5.97074">
        <ele>237</ele>
        <time>2018-12-03T12:13:59Z</time>
      </trkpt>
      <trkpt lat="47.89668" lon="5.97115">
        <ele>236</ele>
        <time>2018-12-03T12:14:59Z</time>
      </trkpt>
      <trkpt lat="47.89665" lon="5.97337">
        <ele>231</ele>
        <time>2018-12-03T12:15:59Z</time>
      </trkpt>
      <trkpt lat="47.89664" lon="5.9744">
        <ele>229</ele>
        <time>2018-12-03T12:16:59Z</time>
      </trkpt>
      <trkpt lat="47.89662" lon="5.97531">
        <ele>228</ele>
        <time>2018-12-03T12:17:59Z</time>
      </trkpt>
      <trkpt lat="47.89661" lon="5.97577">
        <ele>227</ele>
        <time>2018-12-03T12:18:59Z</time>
      </trkpt>
      <trkpt lat="47.8965" lon="5.97604">
        <ele>226</ele>
        <time>2018-12-03T12:19:59Z</time>
      </trkpt>
      <trkpt lat="47.89644" lon="5.97608">
        <ele>226</ele>
        <time>2018-12-03T12:20:59Z</time>
      </trkpt>
      <trkpt lat="47.89617" lon="5.97623">
        <ele>224</ele>
        <time>2018-12-03T12:21:59Z</time>
      </trkpt>
      <trkpt lat="47.89546" lon="5.97653">
        <ele>221</ele>
        <time>2018-12-03T12:22:59Z</time>
      </trkpt>
      <trkpt lat="47.89534" lon="5.97659">
        <ele>221</ele>
        <time>2018-12-03T12:23:59Z</time>
      </trkpt>
      <trkpt lat="47.89524" lon="5.97667">
        <ele>221</ele>
        <time>2018-12-03T12:24:59Z</time>
      </trkpt>
      <trkpt lat="47.89512" lon="5.97677">
        <ele>220</ele>
        <time>2018-12-03T12:25:59Z</time>
      </trkpt>
      <trkpt lat="47.89496" lon="5.97693">
        <ele>220</ele>
        <time>2018-12-03T12:26:59Z</time>
      </trkpt>
      <trkpt lat="47.8948" lon="5.97711">
        <ele>219</ele>
        <time>2018-12-03T12:27:59Z</time>
      </trkpt>
      <trkpt lat="47.89468" lon="5.97723">
        <ele>219</ele>
        <time>2018-12-03T12:28:59Z</time>
      </trkpt>
      <trkpt lat="47.89452" lon="5.97734">
        <ele>219</ele>
        <time>2018-12-03T12:29:59Z</time>
      </trkpt>
      <trkpt lat="47.89436" lon="5.9774">
        <ele>218</ele>
        <time>2018-12-03T12:30:59Z</time>
      </trkpt>
      <trkpt lat="47.89423" lon="5.97742">
        <ele>218</ele>
        <time>2018-12-03T12:31:59Z</time>
      </trkpt>
      <trkpt lat="47.89414" lon="5.97742">
        <ele>218</ele>
        <time>2018-12-03T12:32:59Z</time>
      </trkpt>
      <trkpt lat="47.89404" lon="5.9774">
        <ele>218</ele>
        <time>2018-12-03T12:33:59Z</time>
      </trkpt>
      <trkpt lat="47.8939" lon="5.97736">
        <ele>217</ele>
        <time>2018-12-03T12:34:59Z</time>
      </trkpt>
      <trkpt lat="47.89378" lon="5.97729">
        <ele>217</ele>
        <time>2018-12-03T12:35:59Z</time>
      </trkpt>
      <trkpt lat="47.89364" lon="5.9772">
        <ele>217</ele>
        <time>2018-12-03T12:36:59Z</time>
      </trkpt>
      <trkpt lat="47.89295" lon="5.97652">
        <ele>216</ele>
        <time>2018-12-03T12:37:59Z</time>
      </trkpt>
      <trkpt lat="47.8925" lon="5.97608">
        <ele>216</ele>
        <time>2018-12-03T12:38:59Z</time>
      </trkpt>
      <trkpt lat="47.89236" lon="5.97596">
        <ele>216</ele>
        <time>2018-12-03T12:39:59Z</time>
      </trkpt>
      <trkpt lat="47.89228" lon="5.97589">
        <ele>216</ele>
        <time>2018-12-03T12:40:59Z</time>
      </trkpt>
      <trkpt lat="47.89222" lon="5.97585">
        <ele>216</ele>
        <time>2018-12-03T12:41:59Z</time>
      </trkpt>
      <trkpt lat="47.89213" lon="5.97583">
        <ele>216</ele>
        <time>2018-12-03T12:42:59Z</time>
      </trkpt>
      <trkpt lat="47.89203" lon="5.97581">
        <ele>217</ele>
        <time>2018-12-03T12:43:59Z</time>
      </trkpt>
      <trkpt lat="47.89194" lon="5.97582">
        <ele>217</ele>
        <time>2018-12-03T12:44:59Z</time>
      </trkpt>
      <trkpt lat="47.89186" lon="5.97583">
        <ele>217</ele>
        <time>2018-12-03T12:45:59Z</time>
      </trkpt>
      <trkpt lat="47.89182" lon="5.97586">
        <ele>217</ele>
        <time>2018-12-03T12:46:59Z</time>
      </trkpt>
      <trkpt lat="47.89157" lon="5.97596">
        <ele>217</ele>
        <time>2018-12-03T12:47:59Z</time>
      </trkpt>
      <trkpt lat="47.89133" lon="5.97607">
        <ele>217</ele>
        <time>2018-12-03T12:48:59Z</time>
      </trkpt>
      <trkpt lat="47.89085" lon="5.97627">
        <ele>217</ele>
        <time>2018-12-03T12:49:59Z</time>
      </trkpt>
      <trkpt lat="47.89073" lon="5.97632">
        <ele>218</ele>
        <time>2018-12-03T12:50:59Z</time>
      </trkpt>
      <trkpt lat="47.89038" lon="5.97644">
        <ele>219</ele>
        <time>2018-12-03T12:51:59Z</time>
      </trkpt>
      <trkpt lat="47.89029" lon="5.97647">
        <ele>220</ele>
        <time>2018-12-03T12:52:59Z</time>
      </trkpt>
      <trkpt lat="47.8902" lon="5.97651">
        <ele>221</ele>
        <time>2018-12-03T12:53:59Z</time>
      </trkpt>
      <trkpt lat="47.88973" lon="5.97671">
        <ele>222</ele>
        <time>2018-12-03T12:54:59Z</time>
      </trkpt>
      <trkpt lat="47.88954" lon="5.97595">
        <ele>221</ele>
        <time>2018-12-03T12:55:59Z</time>
      </trkpt>
      <trkpt lat="47.88949" lon="5.97573">
        <ele>220</ele>
        <time>2018-12-03T12:56:59Z</time>
      </trkpt>
      <trkpt lat="47.88945" lon="5.97562">
        <ele>220</ele>
        <time>2018-12-03T12:57:59Z</time>
      </trkpt>
      <trkpt lat="47.88941" lon="5.9755">
        <ele>220</ele>
        <time>2018-12-03T12:58:59Z</time>
      </trkpt>
      <trkpt lat="47.88941" lon="5.9755">
        <ele>220</ele>
        <time>2018-12-03T12:59:59Z</time>
      </trkpt>
      <trkpt lat="47.88924" lon="5.97553">
        <ele>220</ele>
        <time>2018-12-03T13:00:59Z</time>
      </trkpt>
      <trkpt lat="47.88848" lon="5.97571">
        <ele>220</ele>
        <time>2018-12-03T13:01:59Z</time>
      </trkpt>
      <trkpt lat="47.88835" lon="5.97574">
        <ele>220</ele>
        <time>2018-12-03T13:02:59Z</time>
      </trkpt>
      <trkpt lat="47.8883" lon="5.97574">
        <ele>220</ele>
        <time>2018-12-03T13:03:59Z</time>
      </trkpt>
      <trkpt lat="47.88803" lon="5.9758">
        <ele>220</ele>
        <time>2018-12-03T13:04:59Z</time>
      </trkpt>
      <trkpt lat="47.88776" lon="5.97587">
        <ele>220</ele>
        <time>2018-12-03T13:05:59Z</time>
      </trkpt>
      <trkpt lat="47.88759" lon="5.97591">
        <ele>220</ele>
        <time>2018-12-03T13:06:59Z</time>
      </trkpt>
      <trkpt lat="47.88744" lon="5.97591">
        <ele>220</ele>
        <time>2018-12-03T13:07:59Z</time>
      </trkpt>
      <trkpt lat="47.8874" lon="5.9759">
        <ele>220</ele>
        <time>2018-12-03T13:08:59Z</time>
      </trkpt>
      <trkpt lat="47.88684" lon="5.97558">
        <ele>218</ele>
        <time>2018-12-03T13:09:59Z</time>
      </trkpt>
      <trkpt lat="47.8864" lon="5.97532">
        <ele>218</ele>
        <time>2018-12-03T13:10:59Z</time>
      </trkpt>
      <trkpt lat="47.88548" lon="5.97482">
        <ele>217</ele>
        <time>2018-12-03T13:11:59Z</time>
      </trkpt>
      <trkpt lat="47.88507" lon="5.97461">
        <ele>217</ele>
        <time>2018-12-03T13:12:59Z</time>
      </trkpt>
      <trkpt lat="47.88494" lon="5.97455">
        <ele>217</ele>
        <time>2018-12-03T13:13:59Z</time>
      </trkpt>
      <trkpt lat="47.88487" lon="5.97452">
        <ele>217</ele>
        <time>2018-12-03T13:14:59Z</time>
      </trkpt>
      <trkpt lat="47.88437" lon="5.97444">
        <ele>216</ele>
        <time>2018-12-03T13:15:59Z</time>
      </trkpt>
      <trkpt lat="47.88423" lon="5.97441">
        <ele>216</ele>
        <time>2018-12-03T13:16:59Z</time>
      </trkpt>
      <trkpt lat="47.88413" lon="5.97438">
        <ele>216</ele>
        <time>2018-12-03T13:17:59Z</time>
      </trkpt>
      <trkpt lat="47.88402" lon="5.97432">
        <ele>216</ele>
        <time>2018-12-03T13:18:59Z</time>
      </trkpt>
      <trkpt lat="47.88392" lon="5.97427">
        <ele>216</ele>
        <time>2018-12-03T13:19:59Z</time>
      </trkpt>
      <trkpt lat="47.88366" lon="5.97409">
        <ele>216</ele>
        <time>2018-12-03T13:20:59Z</time>
      </trkpt>
      <trkpt lat="47.88345" lon="5.97388">
        <ele>216</ele>
        <time>2018-12-03T13:21:59Z</time>
      </trkpt>
      <trkpt lat="47.88335" lon="5.97375">
        <ele>217</ele>
        <time>2018-12-03T13:22:59Z</time>
      </trkpt>
      <trkpt lat="47.88322" lon="5.97357">
        <ele>217</ele>
        <time>2018-12-03T13:23:59Z</time>
      </trkpt>
      <trkpt lat="47.88305" lon="5.97327">
        <ele>217</ele>
        <time>2018-12-03T13:24:59Z</time>
      </trkpt>
      <trkpt lat="47.88294" lon="5.97309">
        <ele>218</ele>
        <time>2018-12-03T13:25:59Z</time>
      </trkpt>
      <trkpt lat="47.88288" lon="5.97301">
        <ele>218</ele>
        <time>2018-12-03T13:26:59Z</time>
      </trkpt>
      <trkpt lat="47.88279" lon="5.97292">
        <ele>218</ele>
        <time>2018-12-03T13:27:59Z</time>
      </trkpt>
      <trkpt lat="47.88274" lon="5.97288">
        <ele>218</ele>
        <time>2018-12-03T13:28:59Z</time>
      </trkpt>
      <trkpt lat="47.88259" lon="5.97283">
        <ele>218</ele>
        <time>2018-12-03T13:29:59Z</time>
      </trkpt>
      <trkpt lat="47.88244" lon="5.9728">
        <ele>218</ele>
        <time>2018-12-03T13:30:59Z</time>
      </trkpt>
      <trkpt lat="47.88226" lon="5.97278">
        <ele>218</ele>
        <time>2018-12-03T13:31:59Z</time>
      </trkpt>
      <trkpt lat="47.88189" lon="5.97275">
        <ele>217</ele>
        <time>2018-12-03T13:32:59Z</time>
      </trkpt>
      <trkpt lat="47.88165" lon="5.9727">
        <ele>217</ele>
        <time>2018-12-03T13:33:59Z</time>
      </trkpt>
      <trkpt lat="47.8814" lon="5.97261">
        <ele>217</ele>
        <time>2018-12-03T13:34:59Z</time>
      </trkpt>
      <trkpt lat="47.88114" lon="5.9725">
        <ele>217</ele>
        <time>2018-12-03T13:35:59Z</time>
      </trkpt>
      <trkpt lat="47.88081" lon="5.97234">
        <ele>217</ele>
        <time>2018-12-03T13:36:59Z</time>
      </trkpt>
      <trkpt lat="47.8803" lon="5.97189">
        <ele>218</ele>
        <time>2018-12-03T13:37:59Z</time>
      </trkpt>
      <trkpt lat="47.88009" lon="5.97169">
        <ele>219</ele>
        <time>2018-12-03T13:38:59Z</time>
      </trkpt>
      <trkpt lat="47.87997" lon="5.97155">
        <ele>219</ele>
        <time>2018-12-03T13:39:59Z</time>
      </trkpt>
      <trkpt lat="47.87984" lon="5.97139">
        <ele>220</ele>
        <time>2018-12-03T13:40:59Z</time>
      </trkpt>
      <trkpt lat="47.87965" lon="5.97112">
        <ele>221</ele>
        <time>2018-12-03T13:41:59Z</time>
      </trkpt>
      <trkpt lat="47.87941" lon="5.97077">
        <ele>223</ele>
        <time>2018-12-03T13:42:59Z</time>
      </trkpt>
      <trkpt lat="47.87914" lon="5.97033">
        <ele>226</ele>
        <time>2018-12-03T13:43:59Z</time>
      </trkpt>
      <trkpt lat="47.87901" lon="5.97012">
        <ele>228</ele>
        <time>2018-12-03T13:44:59Z</time>
      </trkpt>
      <trkpt lat="47.87881" lon="5.96981">
        <ele>231</ele>
        <time>2018-12-03T13:45:59Z</time>
      </trkpt>
      <trkpt lat="47.87875" lon="5.96971">
        <ele>232</ele>
        <time>2018-12-03T13:46:59Z</time>
      </trkpt>
      <trkpt lat="47.8786" lon="5.9695">
        <ele>235</ele>
        <time>2018-12-03T13:47:59Z</time>
      </trkpt>
      <trkpt lat="47.87843" lon="5.96924">
        <ele>238</ele>
        <time>2018-12-03T13:48:59Z</time>
      </trkpt>
      <trkpt lat="47.87824" lon="5.96896">
        <ele>241</ele>
        <time>2018-12-03T13:49:59Z</time>
      </trkpt>
      <trkpt lat="47.87777" lon="5.96829">
        <ele>246</ele>
        <time>2018-12-03T13:50:59Z</time>
      </trkpt>
      <trkpt lat="47.8777" lon="5.96819">
        <ele>246</ele>
        <time>2018-12-03T13:51:59Z</time>
      </trkpt>
      <trkpt lat="47.87755" lon="5.96792">
        <ele>247</ele>
        <time>2018-12-03T13:52:59Z</time>
      </trkpt>
      <trkpt lat="47.87749" lon="5.9678">
        <ele>248</ele>
        <time>2018-12-03T13:53:59Z</time>
      </trkpt>
      <trkpt lat="47.87744" lon="5.96765">
        <ele>247</ele>
        <time>2018-12-03T13:54:59Z</time>
      </trkpt>
      <trkpt lat="47.87737" lon="5.96738">
        <ele>247</ele>
        <time>2018-12-03T13:55:59Z</time>
      </trkpt>
      <trkpt lat="47.87728" lon="5.96691">
        <ele>246</ele>
        <time>2018-12-03T13:56:59Z</time>
      </trkpt>
      <trkpt lat="47.87706" lon="5.96558">
        <ele>243</ele>
        <time>2018-12-03T13:57:59Z</time>
      </trkpt>
      <trkpt lat="47.877" lon="5.96522">
        <ele>242</ele>
        <time>2018-12-03T13:58:59Z</time>
      </trkpt>
      <trkpt lat="47.87694" lon="5.96494">
        <ele>241</ele>
        <time>2018-12-03T13:59:59Z</time>
      </trkpt>
      <trkpt lat="47.87688" lon="5.96459">
        <ele>239</ele>
        <time>2018-12-03T14:00:59Z</time>
      </trkpt>
      <trkpt lat="47.87683" lon="5.96432">
        <ele>238</ele>
        <time>2018-12-03T14:01:59Z</time>
      </trkpt>
      <trkpt lat="47.87674" lon="5.9639">
        <ele>236</ele>
        <time>2018-12-03T14:02:59Z</time>
      </trkpt>
      <trkpt lat="47.87668" lon="5.96371">
        <ele>235</ele>
        <time>2018-12-03T14:03:59Z</time>
      </trkpt>
      <trkpt lat="47.87653" lon="5.96339">
        <ele>233</ele>
        <time>2018-12-03T14:04:59Z</time>
      </trkpt>
      <trkpt lat="47.87634" lon="5.96302">
        <ele>233</ele>
        <time>2018-12-03T14:05:59Z</time>
      </trkpt>
      <trkpt lat="47.87617" lon="5.96266">
        <ele>232</ele>
        <time>2018-12-03T14:06:59Z</time>
      </trkpt>
      <trkpt lat="47.87605" lon="5.96243">
        <ele>231</ele>
        <time>2018-12-03T14:07:59Z</time>
      </trkpt>
      <trkpt lat="47.87541" lon="5.96112">
        <ele>233</ele>
        <time>2018-12-03T14:08:59Z</time>
      </trkpt>
      <trkpt lat="47.87524" lon="5.96082">
        <ele>236</ele>
        <time>2018-12-03T14:09:59Z</time>
      </trkpt>
      <trkpt lat="47.87501" lon="5.96043">
        <ele>236</ele>
        <time>2018-12-03T14:10:59Z</time>
      </trkpt>
      <trkpt lat="47.87482" lon="5.96015">
        <ele>237</ele>
        <time>2018-12-03T14:11:59Z</time>
      </trkpt>
      <trkpt lat="47.87478" lon="5.96009">
        <ele>237</ele>
        <time>2018-12-03T14:12:59Z</time>
      </trkpt>
      <trkpt lat="47.87452" lon="5.95975">
        <ele>238</ele>
        <time>2018-12-03T14:13:59Z</time>
      </trkpt>
      <trkpt lat="47.87409" lon="5.95916">
        <ele>240</ele>
        <time>2018-12-03T14:14:59Z</time>
      </trkpt>
      <trkpt lat="47.87391" lon="5.95893">
        <ele>241</ele>
        <time>2018-12-03T14:15:59Z</time>
      </trkpt>
      <trkpt lat="47.87381" lon="5.95877">
        <ele>241</ele>
        <time>2018-12-03T14:16:59Z</time>
      </trkpt>
      <trkpt lat="47.87371" lon="5.95861">
        <ele>242</ele>
        <time>2018-12-03T14:17:59Z</time>
      </trkpt>
      <trkpt lat="47.87362" lon="5.95842">
        <ele>242</ele>
        <time>2018-12-03T14:18:59Z</time>
      </trkpt>
      <trkpt lat="47.87346" lon="5.958">
        <ele>241</ele>
        <time>2018-12-03T14:19:59Z</time>
      </trkpt>
      <trkpt lat="47.8733" lon="5.95757">
        <ele>240</ele>
        <time>2018-12-03T14:20:59Z</time>
      </trkpt>
      <trkpt lat="47.87312" lon="5.95702">
        <ele>240</ele>
        <time>2018-12-03T14:21:59Z</time>
      </trkpt>
      <trkpt lat="47.87293" lon="5.95653">
        <ele>239</ele>
        <time>2018-12-03T14:22:59Z</time>
      </trkpt>
      <trkpt lat="47.87284" lon="5.95633">
        <ele>238</ele>
        <time>2018-12-03T14:23:59Z</time>
      </trkpt>
      <trkpt lat="47.87273" lon="5.95618">
        <ele>237</ele>
        <time>2018-12-03T14:24:59Z</time>
      </trkpt>
      <trkpt lat="47.87256" lon="5.95598">
        <ele>238</ele>
        <time>2018-12-03T14:25:59Z</time>
      </trkpt>
      <trkpt lat="47.87238" lon="5.95583">
        <ele>239</ele>
        <time>2018-12-03T14:26:59Z</time>
      </trkpt>
      <trkpt lat="47.87221" lon="5.95565">
        <ele>241</ele>
        <time>2018-12-03T14:27:59Z</time>
      </trkpt>
      <trkpt lat="47.87205" lon="5.95544">
        <ele>242</ele>
        <time>2018-12-03T14:28:59Z</time>
      </trkpt>
      <trkpt lat="47.87192" lon="5.95519">
        <ele>243</ele>
        <time>2018-12-03T14:29:59Z</time>
      </trkpt>
      <trkpt lat="47.87183" lon="5.95501">
        <ele>243</ele>
        <time>2018-12-03T14:30:59Z</time>
      </trkpt>
      <trkpt lat="47.87168" lon="5.95474">
        <ele>245</ele>
        <time>2018-12-03T14:31:59Z</time>
      </trkpt>
      <trkpt lat="47.87157" lon="5.95457">
        <ele>245</ele>
        <time>2018-12-03T14:32:59Z</time>
      </trkpt>
      <trkpt lat="47.87131" lon="5.95428">
        <ele>245</ele>
        <time>2018-12-03T14:33:59Z</time>
      </trkpt>
      <trkpt lat="47.87104" lon="5.95401">
        <ele>245</ele>
        <time>2018-12-03T14:34:59Z</time>
      </trkpt>
      <trkpt lat="47.8709" lon="5.95387">
        <ele>245</ele>
        <time>2018-12-03T14:35:59Z</time>
      </trkpt>
      <trkpt lat="47.87075" lon="5.95374">
        <ele>245</ele>
        <time>2018-12-03T14:36:59Z</time>
      </trkpt>
      <trkpt lat="47.87054" lon="5.95353">
        <ele>245</ele>
        <time>2018-12-03T14:37:59Z</time>
      </trkpt>
      <trkpt lat="47.87035" lon="5.95334">
        <ele>244</ele>
        <time>2018-12-03T14:38:59Z</time>
      </trkpt>
      <trkpt lat="47.87021" lon="5.95319">
        <ele>243</ele>
        <time>2018-12-03T14:39:59Z</time>
      </trkpt>
      <trkpt lat="47.86999" lon="5.95291">
        <ele>241</ele>
        <time>2018-12-03T14:40:59Z</time>
      </trkpt>
      <trkpt lat="47.86977" lon="5.95257">
        <ele>240</ele>
        <time>2018-12-03T14:41:59Z</time>
      </trkpt>
      <trkpt lat="47.86944" lon="5.95191">
        <ele>236</ele>
        <time>2018-12-03T14:42:59Z</time>
      </trkpt>
      <trkpt lat="47.86927" lon="5.95152">
        <ele>233</ele>
        <time>2018-12-03T14:43:59Z</time>
      </trkpt>
      <trkpt lat="47.86904" lon="5.95094">
        <ele>230</ele>
        <time>2018-12-03T14:44:59Z</time>
      </trkpt>
      <trkpt lat="47.86893" lon="5.95062">
        <ele>229</ele>
        <time>2018-12-03T14:45:59Z</time>
      </trkpt>
      <trkpt lat="47.86885" lon="5.95039">
        <ele>229</ele>
        <time>2018-12-03T14:46:59Z</time>
      </trkpt>
      <trkpt lat="47.86877" lon="5.95018">
        <ele>228</ele>
        <time>2018-12-03T14:47:59Z</time>
      </trkpt>
      <trkpt lat="47.86865" lon="5.94987">
        <ele>226</ele>
        <time>2018-12-03T14:48:59Z</time>
      </trkpt>
      <trkpt lat="47.8682" lon="5.94891">
        <ele>224</ele>
        <time>2018-12-03T14:49:59Z</time>
      </trkpt>
      <trkpt lat="47.86808" lon="5.94865">
        <ele>224</ele>
        <time>2018-12-03T14:50:59Z</time>
      </trkpt>
      <trkpt lat="47.86797" lon="5.94845">
        <ele>224</ele>
        <time>2018-12-03T14:51:59Z</time>
      </trkpt>
      <trkpt lat="47.86785" lon="5.94827">
        <ele>224</ele>
        <time>2018-12-03T14:52:59Z</time>
      </trkpt>
      <trkpt lat="47.86767" lon="5.94804">
        <ele>224</ele>
        <time>2018-12-03T14:53:59Z</time>
      </trkpt>
      <trkpt lat="47.86706" lon="5.94748">
        <ele>223</ele>
        <time>2018-12-03T14:54:59Z</time>
      </trkpt>
      <trkpt lat="47.86685" lon="5.94725">
        <ele>223</ele>
        <time>2018-12-03T14:55:59Z</time>
      </trkpt>
      <trkpt lat="47.86661" lon="5.94695">
        <ele>222</ele>
        <time>2018-12-03T14:56:59Z</time>
      </trkpt>
      <trkpt lat="47.86633" lon="5.9465">
        <ele>220</ele>
        <time>2018-12-03T14:57:59Z</time>
      </trkpt>
      <trkpt lat="47.86631" lon="5.94646">
        <ele>219</ele>
        <time>2018-12-03T14:58:59Z</time>
      </trkpt>
      <trkpt lat="47.86628" lon="5.94643">
        <ele>219</ele>
        <time>2018-12-03T14:59:59Z</time>
      </trkpt>
      <trkpt lat="47.86603" lon="5.94608">
        <ele>218</ele>
        <time>2018-12-03T15:00:59Z</time>
      </trkpt>
      <trkpt lat="47.8659" lon="5.94593">
        <ele>217</ele>
        <time>2018-12-03T15:01:59Z</time>
      </trkpt>
      <trkpt lat="47.86584" lon="5.94586">
        <ele>217</ele>
        <time>2018-12-03T15:02:59Z</time>
      </trkpt>
      <trkpt lat="47.86558" lon="5.94562">
        <ele>218</ele>
        <time>2018-12-03T15:03:59Z</time>
      </trkpt>
      <trkpt lat="47.86551" lon="5.94555">
        <ele>218</ele>
        <time>2018-12-03T15:04:59Z</time>
      </trkpt>
      <trkpt lat="47.86511" lon="5.94525">
        <ele>220</ele>
        <time>2018-12-03T15:05:59Z</time>
      </trkpt>
      <trkpt lat="47.86497" lon="5.94515">
        <ele>221</ele>
        <time>2018-12-03T15:06:59Z</time>
      </trkpt>
      <trkpt lat="47.86471" lon="5.94498">
        <ele>225</ele>
        <time>2018-12-03T15:07:59Z</time>
      </trkpt>
      <trkpt lat="47.86463" lon="5.94492">
        <ele>225</ele>
        <time>2018-12-03T15:08:59Z</time>
      </trkpt>
      <trkpt lat="47.86444" lon="5.94476">
        <ele>227</ele>
        <time>2018-12-03T15:09:59Z</time>
      </trkpt>
      <trkpt lat="47.86438" lon="5.94471">
        <ele>227</ele>
        <time>2018-12-03T15:10:59Z</time>
      </trkpt>
      <trkpt lat="47.86432" lon="5.94464">
        <ele>227</ele>
        <time>2018-12-03T15:11:59Z</time>
      </trkpt>
      <trkpt lat="47.86426" lon="5.94458">
        <ele>227</ele>
        <time>2018-12-03T15:12:59Z</time>
      </trkpt>
      <trkpt lat="47.86416" lon="5.94445">
        <ele>226</ele>
        <time>2018-12-03T15:13:59Z</time>
      </trkpt>
      <trkpt lat="47.86409" lon="5.94436">
        <ele>226</ele>
        <time>2018-12-03T15:14:59Z</time>
      </trkpt>
      <trkpt lat="47.86401" lon="5.94423">
        <ele>226</ele>
        <time>2018-12-03T15:15:59Z</time>
      </trkpt>
      <trkpt lat="47.86378" lon="5.94381">
        <ele>227</ele>
        <time>2018-12-03T15:16:59Z</time>
      </trkpt>
      <trkpt lat="47.86368" lon="5.94366">
        <ele>227</ele>
        <time>2018-12-03T15:17:59Z</time>
      </trkpt>
      <trkpt lat="47.8635" lon="5.94345">
        <ele>227</ele>
        <time>2018-12-03T15:18:59Z</time>
      </trkpt>
      <trkpt lat="47.86324" lon="5.94318">
        <ele>228</ele>
        <time>2018-12-03T15:19:59Z</time>
      </trkpt>
      <trkpt lat="47.8627" lon="5.94259">
        <ele>227</ele>
        <time>2018-12-03T15:20:59Z</time>
      </trkpt>
      <trkpt lat="47.86243" lon="5.94226">
        <ele>227</ele>
        <time>2018-12-03T15:21:59Z</time>
      </trkpt>
      <trkpt lat="47.8622" lon="5.94193">
        <ele>227</ele>
        <time>2018-12-03T15:22:59Z</time>
      </trkpt>
      <trkpt lat="47.86178" lon="5.94139">
        <ele>226</ele>
        <time>2018-12-03T15:23:59Z</time>
      </trkpt>
      <trkpt lat="47.8616" lon="5.94114">
        <ele>224</ele>
        <time>2018-12-03T15:24:59Z</time>
      </trkpt>
      <trkpt lat="47.86124" lon="5.94059">
        <ele>223</ele>
        <time>2018-12-03T15:25:59Z</time>
      </trkpt>
      <trkpt lat="47.8611" lon="5.94036">
        <ele>223</ele>
        <time>2018-12-03T15:26:59Z</time>
      </trkpt>
      <trkpt lat="47.86095" lon="5.94015">
        <ele>223</ele>
        <time>2018-12-03T15:27:59Z</time>
      </trkpt>
      <trkpt lat="47.86078" lon="5.93991">
        <ele>222</ele>
        <time>2018-12-03T15:28:59Z</time>
      </trkpt>
      <trkpt lat="47.86053" lon="5.93959">
        <ele>223</ele>
        <time>2018-12-03T15:29:59Z</time>
      </trkpt>
      <trkpt lat="47.86035" lon="5.93934">
        <ele>223</ele>
        <time>2018-12-03T15:30:59Z</time>
      </trkpt>
      <trkpt lat="47.86025" lon="5.93918">
        <ele>223</ele>
        <time>2018-12-03T15:31:59Z</time>
      </trkpt>
      <trkpt lat="47.8602" lon="5.93909">
        <ele>223</ele>
        <time>2018-12-03T15:32:59Z</time>
      </trkpt>
      <trkpt lat="47.8598" lon="5.93822">
        <ele>222</ele>
        <time>2018-12-03T15:33:59Z</time>
      </trkpt>
      <trkpt lat="47.85971" lon="5.938">
        <ele>222</ele>
        <time>2018-12-03T15:34:59Z</time>
      </trkpt>
      <trkpt lat="47.8595" lon="5.93761">
        <ele>221</ele>
        <time>2018-12-03T15:35:59Z</time>
      </trkpt>
      <trkpt lat="47.85938" lon="5.93743">
        <ele>221</ele>
        <time>2018-12-03T15:36:59Z</time>
      </trkpt>
      <trkpt lat="47.85912" lon="5.93707">
        <ele>221</ele>
        <time>2018-12-03T15:37:59Z</time>
      </trkpt>
      <trkpt lat="47.85906" lon="5.93698">
        <ele>221</ele>
        <time>2018-12-03T15:38:59Z</time>
      </trkpt>
      <trkpt lat="47.85868" lon="5.93648">
        <ele>220</ele>
        <time>2018-12-03T15:39:59Z</time>
      </trkpt>
      <trkpt lat="47.85858" lon="5.93634">
        <ele>219</ele>
        <time>2018-12-03T15:40:59Z</time>
      </trkpt>
      <trkpt lat="47.85825" lon="5.93597">
        <ele>218</ele>
        <time>2018-12-03T15:41:59Z</time>
      </trkpt>
      <trkpt lat="47.85816" lon="5.93586">
        <ele>218</ele>
        <time>2018-12-03T15:42:59Z</time>
      </trkpt>
      <trkpt lat="47.85804" lon="5.93569">
        <ele>218</ele>
        <time>2018-12-03T15:43:59Z</time>
      </trkpt>
      <trkpt lat="47.85786" lon="5.93544">
        <ele>217</ele>
        <time>2018-12-03T15:44:59Z</time>
      </trkpt>
      <trkpt lat="47.85768" lon="5.93518">
        <ele>216</ele>
        <time>2018-12-03T15:45:59Z</time>
      </trkpt>
      <trkpt lat="47.85743" lon="5.9348">
        <ele>215</ele>
        <time>2018-12-03T15:46:59Z</time>
      </trkpt>
      <trkpt lat="47.85732" lon="5.93465">
        <ele>215</ele>
        <time>2018-12-03T15:47:59Z</time>
      </trkpt>
      <trkpt lat="47.85721" lon="5.9345">
        <ele>216</ele>
        <time>2018-12-03T15:48:59Z</time>
      </trkpt>
      <trkpt lat="47.85704" lon="5.93424">
        <ele>215</ele>
        <time>2018-12-03T15:49:59Z</time>
      </trkpt>
      <trkpt lat="47.85664" lon="5.93366">
        <ele>216</ele>
        <time>2018-12-03T15:50:59Z</time>
      </trkpt>
      <trkpt lat="47.85654" lon="5.93351">
        <ele>217</ele>
        <time>2018-12-03T15:51:59Z</time>
      </trkpt>
      <trkpt lat="47.85647" lon="5.93342">
        <ele>217</ele>
        <time>2018-12-03T15:52:59Z</time>
      </trkpt>
      <trkpt lat="47.85643" lon="5.93336">
        <ele>217</ele>
        <time>2018-12-03T15:53:59Z</time>
      </trkpt>
      <trkpt lat="47.85633" lon="5.93327">
        <ele>218</ele>
        <time>2018-12-03T15:54:59Z</time>
      </trkpt>
      <trkpt lat="47.85629" lon="5.93323">
        <ele>218</ele>
        <time>2018-12-03T15:55:59Z</time>
      </trkpt>
      <trkpt lat="47.85624" lon="5.9332">
        <ele>218</ele>
        <time>2018-12-03T15:56:59Z</time>
      </trkpt>
      <trkpt lat="47.85618" lon="5.93317">
        <ele>218</ele>
        <time>2018-12-03T15:57:59Z</time>
      </trkpt>
      <trkpt lat="47.85613" lon="5.93316">
        <ele>218</ele>
        <time>2018-12-03T15:58:59Z</time>
      </trkpt>
      <trkpt lat="47.85607" lon="5.93315">
        <ele>218</ele>
        <time>2018-12-03T15:59:59Z</time>
      </trkpt>
      <trkpt lat="47.85594" lon="5.93315">
        <ele>219</ele>
        <time>2018-12-03T16:00:59Z</time>
      </trkpt>
      <trkpt lat="47.85588" lon="5.93315">
        <ele>219</ele>
        <time>2018-12-03T16:01:59Z</time>
      </trkpt>
      <trkpt lat="47.85572" lon="5.93314">
        <ele>221</ele>
        <time>2018-12-03T16:02:59Z</time>
      </trkpt>
      <trkpt lat="47.85564" lon="5.93314">
        <ele>223</ele>
        <time>2018-12-03T16:03:59Z</time>
      </trkpt>
      <trkpt lat="47.85552" lon="5.93311">
        <ele>224</ele>
        <time>2018-12-03T16:04:59Z</time>
      </trkpt>
      <trkpt lat="47.85547" lon="5.93309">
        <ele>225</ele>
        <time>2018-12-03T16:05:59Z</time>
      </trkpt>
      <trkpt lat="47.85536" lon="5.93302">
        <ele>227</ele>
        <time>2018-12-03T16:06:59Z</time>
      </trkpt>
      <trkpt lat="47.85529" lon="5.93293">
        <ele>228</ele>
        <time>2018-12-03T16:07:59Z</time>
      </trkpt>
      <trkpt lat="47.85524" lon="5.93285">
        <ele>229</ele>
        <time>2018-12-03T16:08:59Z</time>
      </trkpt>
      <trkpt lat="47.85518" lon="5.93272">
        <ele>230</ele>
        <time>2018-12-03T16:09:59Z</time>
      </trkpt>
      <trkpt lat="47.85515" lon="5.93265">
        <ele>231</ele>
        <time>2018-12-03T16:10:59Z</time>
      </trkpt>
      <trkpt lat="47.85507" lon="5.93241">
        <ele>232</ele>
        <time>2018-12-03T16:11:59Z</time>
      </trkpt>
      <trkpt lat="47.85502" lon="5.93224">
        <ele>232</ele>
        <time>2018-12-03T16:12:59Z</time>
      </trkpt>
      <trkpt lat="47.855" lon="5.93215">
        <ele>232</ele>
        <time>2018-12-03T16:13:59Z</time>
      </trkpt>
      <trkpt lat="47.85495" lon="5.93197">
        <ele>232</ele>
        <time>2018-12-03T16:14:59Z</time>
      </trkpt>
      <trkpt lat="47.85489" lon="5.93169">
        <ele>233</ele>
        <time>2018-12-03T16:15:59Z</time>
      </trkpt>
      <trkpt lat="47.85487" lon="5.93159">
        <ele>233</ele>
        <time>2018-12-03T16:16:59Z</time>
      </trkpt>
      <trkpt lat="47.85481" lon="5.93122">
        <ele>234</ele>
        <time>2018-12-03T16:17:59Z</time>
      </trkpt>
      <trkpt lat="47.85479" lon="5.93113">
        <ele>234</ele>
        <time>2018-12-03T16:18:59Z</time>
      </trkpt>
      <trkpt lat="47.85474" lon="5.93078">
        <ele>234</ele>
        <time>2018-12-03T16:19:59Z</time>
      </trkpt>
      <trkpt lat="47.85472" lon="5.93062">
        <ele>234</ele>
        <time>2018-12-03T16:20:59Z</time>
      </trkpt>
      <trkpt lat="47.85468" lon="5.93046">
        <ele>235</ele>
        <time>2018-12-03T16:21:59Z</time>
      </trkpt>
      <trkpt lat="47.85465" lon="5.93033">
        <ele>235</ele>
        <time>2018-12-03T16:22:59Z</time>
      </trkpt>
      <trkpt lat="47.85459" lon="5.93016">
        <ele>236</ele>
        <time>2018-12-03T16:23:59Z</time>
      </trkpt>
      <trkpt lat="47.85454" lon="5.93001">
        <ele>237</ele>
        <time>2018-12-03T16:24:59Z</time>
      </trkpt>
      <trkpt lat="47.85441" lon="5.92969">
        <ele>238</ele>
        <time>2018-12-03T16:25:59Z</time>
      </trkpt>
      <trkpt lat="47.85438" lon="5.9296">
        <ele>239</ele>
        <time>2018-12-03T16:26:59Z</time>
      </trkpt>
      <trkpt lat="47.85433" lon="5.92944">
        <ele>239</ele>
        <time>2018-12-03T16:27:59Z</time>
      </trkpt>
      <trkpt lat="47.85427" lon="5.92918">
        <ele>238</ele>
        <time>2018-12-03T16:28:59Z</time>
      </trkpt>
      <trkpt lat="47.8542" lon="5.92894">
        <ele>238</ele>
        <time>2018-12-03T16:29:59Z</time>
      </trkpt>
      <trkpt lat="47.85416" lon="5.92878">
        <ele>238</ele>
        <time>2018-12-03T16:30:59Z</time>
      </trkpt>
      <trkpt lat="47.85405" lon="5.92848">
        <ele>238</ele>
        <time>2018-12-03T16:31:59Z</time>
      </trkpt>
      <trkpt lat="47.854" lon="5.92833">
        <ele>238</ele>
        <time>2018-12-03T16:32:59Z</time>
      </trkpt>
      <trkpt lat="47.85387" lon="5.92804">
        <ele>239</ele>
        <time>2018-12-03T16:33:59Z</time>
      </trkpt>
      <trkpt lat="47.85381" lon="5.92789">
        <ele>238</ele>
        <time>2018-12-03T16:34:59Z</time>
      </trkpt>
      <trkpt lat="47.85374" lon="5.92775">
        <ele>239</ele>
        <time>2018-12-03T16:35:59Z</time>
      </trkpt>
      <trkpt lat="47.85366" lon="5.92762">
        <ele>239</ele>
        <time>2018-12-03T16:36:59Z</time>
      </trkpt>
      <trkpt lat="47.85357" lon="5.9275">
        <ele>240</ele>
        <time>2018-12-03T16:37:59Z</time>
      </trkpt>
      <trkpt lat="47.85349" lon="5.92739">
        <ele>241</ele>
        <time>2018-12-03T16:38:59Z</time>
      </trkpt>
      <trkpt lat="47.85328" lon="5.92714">
        <ele>242</ele>
        <time>2018-12-03T16:39:59Z</time>
      </trkpt>
      <trkpt lat="47.85318" lon="5.92702">
        <ele>242</ele>
        <time>2018-12-03T16:40:59Z</time>
      </trkpt>
      <trkpt lat="47.85288" lon="5.9267">
        <ele>242</ele>
        <time>2018-12-03T16:41:59Z</time>
      </trkpt>
      <trkpt lat="47.85281" lon="5.92661">
        <ele>242</ele>
        <time>2018-12-03T16:42:59Z</time>
      </trkpt>
      <trkpt lat="47.85257" lon="5.92638">
        <ele>242</ele>
        <time>2018-12-03T16:43:59Z</time>
      </trkpt>
      <trkpt lat="47.85246" lon="5.92628">
        <ele>243</ele>
        <time>2018-12-03T16:44:59Z</time>
      </trkpt>
      <trkpt lat="47.85236" lon="5.92618">
        <ele>243</ele>
        <time>2018-12-03T16:45:59Z</time>
      </trkpt>
      <trkpt lat="47.85224" lon="5.92604">
        <ele>242</ele>
        <time>2018-12-03T16:46:59Z</time>
      </trkpt>
      <trkpt lat="47.85184" lon="5.92564">
        <ele>241</ele>
        <time>2018-12-03T16:47:59Z</time>
      </trkpt>
      <trkpt lat="47.85172" lon="5.92551">
        <ele>241</ele>
        <time>2018-12-03T16:48:59Z</time>
      </trkpt>
      <trkpt lat="47.85148" lon="5.9253">
        <ele>242</ele>
        <time>2018-12-03T16:49:59Z</time>
      </trkpt>
      <trkpt lat="47.85133" lon="5.92516">
        <ele>242</ele>
        <time>2018-12-03T16:50:59Z</time>
      </trkpt>
      <trkpt lat="47.85125" lon="5.92506">
        <ele>242</ele>
        <time>2018-12-03T16:51:59Z</time>
      </trkpt>
      <trkpt lat="47.8511" lon="5.9249">
        <ele>242</ele>
        <time>2018-12-03T16:52:59Z</time>
      </trkpt>
      <trkpt lat="47.85101" lon="5.9248">
        <ele>242</ele>
        <time>2018-12-03T16:53:59Z</time>
      </trkpt>
      <trkpt lat="47.85094" lon="5.9247">
        <ele>242</ele>
        <time>2018-12-03T16:54:59Z</time>
      </trkpt>
      <trkpt lat="47.85083" lon="5.92453">
        <ele>241</ele>
        <time>2018-12-03T16:55:59Z</time>
      </trkpt>
      <trkpt lat="47.85075" lon="5.92444">
        <ele>240</ele>
        <time>2018-12-03T16:56:59Z</time>
      </trkpt>
      <trkpt lat="47.85069" lon="5.92435">
        <ele>240</ele>
        <time>2018-12-03T16:57:59Z</time>
      </trkpt>
      <trkpt lat="47.85058" lon="5.92424">
        <ele>239</ele>
        <time>2018-12-03T16:58:59Z</time>
      </trkpt>
      <trkpt lat="47.85047" lon="5.92414">
        <ele>239</ele>
        <time>2018-12-03T16:59:59Z</time>
      </trkpt>
      <trkpt lat="47.85035" lon="5.92406">
        <ele>240</ele>
        <time>2018-12-03T17:00:59Z</time>
      </trkpt>
      <trkpt lat="47.85026" lon="5.92398">
        <ele>240</ele>
        <time>2018-12-03T17:01:59Z</time>
      </trkpt>
      <trkpt lat="47.85016" lon="5.92392">
        <ele>240</ele>
        <time>2018-12-03T17:02:59Z</time>
      </trkpt>
      <trkpt lat="47.85006" lon="5.92388">
        <ele>241</ele>
        <time>2018-12-03T17:03:59Z</time>
      </trkpt>
      <trkpt lat="47.84999" lon="5.92384">
        <ele>241</ele>
        <time>2018-12-03T17:04:59Z</time>
      </trkpt>
      <trkpt lat="47.84982" lon="5.92377">
        <ele>242</ele>
        <time>2018-12-03T17:05:59Z</time>
      </trkpt>
      <trkpt lat="47.84959" lon="5.92368">
        <ele>244</ele>
        <time>2018-12-03T17:06:59Z</time>
      </trkpt>
      <trkpt lat="47.84933" lon="5.92361">
        <ele>247</ele>
        <time>2018-12-03T17:07:59Z</time>
      </trkpt>
      <trkpt lat="47.84924" lon="5.92358">
        <ele>248</ele>
        <time>2018-12-03T17:08:59Z</time>
      </trkpt>
      <trkpt lat="47.84892" lon="5.92352">
        <ele>249</ele>
        <time>2018-12-03T17:09:59Z</time>
      </trkpt>
      <trkpt lat="47.84877" lon="5.9235">
        <ele>249</ele>
        <time>2018-12-03T17:10:59Z</time>
      </trkpt>
      <trkpt lat="47.84852" lon="5.92344">
        <ele>248</ele>
        <time>2018-12-03T17:11:59Z</time>
      </trkpt>
      <trkpt lat="47.84839" lon="5.92342">
        <ele>248</ele>
        <time>2018-12-03T17:12:59Z</time>
      </trkpt>
      <trkpt lat="47.84802" lon="5.92336">
        <ele>246</ele>
        <time>2018-12-03T17:13:59Z</time>
      </trkpt>
      <trkpt lat="47.84721" lon="5.92326">
        <ele>238</ele>
        <time>2018-12-03T17:14:59Z</time>
      </trkpt>
      <trkpt lat="47.84706" lon="5.92327">
        <ele>236</ele>
        <time>2018-12-03T17:15:59Z</time>
      </trkpt>
      <trkpt lat="47.84681" lon="5.92332">
        <ele>233</ele>
        <time>2018-12-03T17:16:59Z</time>
      </trkpt>
      <trkpt lat="47.84667" lon="5.92339">
        <ele>231</ele>
        <time>2018-12-03T17:17:59Z</time>
      </trkpt>
      <trkpt lat="47.8465" lon="5.92349">
        <ele>231</ele>
        <time>2018-12-03T17:18:59Z</time>
      </trkpt>
      <trkpt lat="47.84642" lon="5.92357">
        <ele>230</ele>
        <time>2018-12-03T17:19:59Z</time>
      </trkpt>
      <trkpt lat="47.84622" lon="5.92372">
        <ele>230</ele>
        <time>2018-12-03T17:20:59Z</time>
      </trkpt>
      <trkpt lat="47.8461" lon="5.9238">
        <ele>230</ele>
        <time>2018-12-03T17:21:59Z</time>
      </trkpt>
      <trkpt lat="47.846" lon="5.92385">
        <ele>230</ele>
        <time>2018-12-03T17:22:59Z</time>
      </trkpt>
      <trkpt lat="47.8459" lon="5.92389">
        <ele>230</ele>
        <time>2018-12-03T17:23:59Z</time>
      </trkpt>
      <trkpt lat="47.84573" lon="5.92392">
        <ele>231</ele>
        <time>2018-12-03T17:24:59Z</time>
      </trkpt>
      <trkpt lat="47.84541" lon="5.92392">
        <ele>232</ele>
        <time>2018-12-03T17:25:59Z</time>
      </trkpt>
      <trkpt lat="47.84522" lon="5.92393">
        <ele>233</ele>
        <time>2018-12-03T17:26:59Z</time>
      </trkpt>
      <trkpt lat="47.84511" lon="5.92396">
        <ele>234</ele>
        <time>2018-12-03T17:27:59Z</time>
      </trkpt>
      <trkpt lat="47.845" lon="5.92399">
        <ele>234</ele>
        <time>2018-12-03T17:28:59Z</time>
      </trkpt>
      <trkpt lat="47.84482" lon="5.92408">
        <ele>235</ele>
        <time>2018-12-03T17:29:59Z</time>
      </trkpt>
      <trkpt lat="47.84472" lon="5.92411">
        <ele>235</ele>
        <time>2018-12-03T17:30:59Z</time>
      </trkpt>
      <trkpt lat="47.84468" lon="5.92413">
        <ele>236</ele>
        <time>2018-12-03T17:31:59Z</time>
      </trkpt>
      <trkpt lat="47.84463" lon="5.92414">
        <ele>236</ele>
        <time>2018-12-03T17:32:59Z</time>
      </trkpt>
      <trkpt lat="47.84454" lon="5.92418">
        <ele>236</ele>
        <time>2018-12-03T17:33:59Z</time>
      </trkpt>
      <trkpt lat="47.84446" lon="5.92422">
        <ele>236</ele>
        <time>2018-12-03T17:34:59Z</time>
      </trkpt>
      <trkpt lat="47.84439" lon="5.92427">
        <ele>236</ele>
        <time>2018-12-03T17:35:59Z</time>
      </trkpt>
      <trkpt lat="47.84434" lon="5.92431">
        <ele>236</ele>
        <time>2018-12-03T17:36:59Z</time>
      </trkpt>
      <trkpt lat="47.84431" lon="5.92436">
        <ele>236</ele>
        <time>2018-12-03T17:37:59Z</time>
      </trkpt>
      <trkpt lat="47.84428" lon="5.92439">
        <ele>236</ele>
        <time>2018-12-03T17:38:59Z</time>
      </trkpt>
      <trkpt lat="47.84423" lon="5.92451">
        <ele>236</ele>
        <time>2018-12-03T17:39:59Z</time>
      </trkpt>
      <trkpt lat="47.84422" lon="5.92456">
        <ele>236</ele>
        <time>2018-12-03T17:40:59Z</time>
      </trkpt>
      <trkpt lat="47.84422" lon="5.92456">
        <ele>236</ele>
        <time>2018-12-03T17:41:59Z</time>
      </trkpt>
      <trkpt lat="47.84389" lon="5.92455">
        <ele>235</ele>
        <time>2018-12-03T17:42:59Z</time>
      </trkpt>
      <trkpt lat="47.84366" lon="5.92453">
        <ele>233</ele>
        <time>2018-12-03T17:43:59Z</time>
      </trkpt>
      <trkpt lat="47.84352" lon="5.92452">
        <ele>233</ele>
        <time>2018-12-03T17:44:59Z</time>
      </trkpt>
      <trkpt lat="47.84326" lon="5.92449">
        <ele>231</ele>
        <time>2018-12-03T17:45:59Z</time>
      </trkpt>
      <trkpt lat="47.84316" lon="5.92446">
        <ele>230</ele>
        <time>2018-12-03T17:46:59Z</time>
      </trkpt>
      <trkpt lat="47.84299" lon="5.92445">
        <ele>229</ele>
        <time>2018-12-03T17:47:59Z</time>
      </trkpt>
      <trkpt lat="47.8429" lon="5.92444">
        <ele>228</ele>
        <time>2018-12-03T17:48:59Z</time>
      </trkpt>
      <trkpt lat="47.84282" lon="5.92444">
        <ele>227</ele>
        <time>2018-12-03T17:49:59Z</time>
      </trkpt>
      <trkpt lat="47.84275" lon="5.92444">
        <ele>227</ele>
        <time>2018-12-03T17:50:59Z</time>
      </trkpt>
      <trkpt lat="47.84233" lon="5.92442">
        <ele>224</ele>
        <time>2018-12-03T17:51:59Z</time>
      </trkpt>
      <trkpt lat="47.84226" lon="5.92436">
        <ele>224</ele>
        <time>2018-12-03T17:52:59Z</time>
      </trkpt>
      <trkpt lat="47.84223" lon="5.92431">
        <ele>223</ele>
        <time>2018-12-03T17:53:59Z</time>
      </trkpt>
      <trkpt lat="47.84217" lon="5.92416">
        <ele>223</ele>
        <time>2018-12-03T17:54:59Z</time>
      </trkpt>
      <trkpt lat="47.84214" lon="5.92405">
        <ele>222</ele>
        <time>2018-12-03T17:55:59Z</time>
      </trkpt>
      <trkpt lat="47.84208" lon="5.92384">
        <ele>221</ele>
        <time>2018-12-03T17:56:59Z</time>
      </trkpt>
      <trkpt lat="47.8418" lon="5.92279">
        <ele>216</ele>
        <time>2018-12-03T17:57:59Z</time>
      </trkpt>
      <trkpt lat="47.84171" lon="5.92242">
        <ele>215</ele>
        <time>2018-12-03T17:58:59Z</time>
      </trkpt>
      <trkpt lat="47.84163" lon="5.92214">
        <ele>215</ele>
        <time>2018-12-03T17:59:59Z</time>
      </trkpt>
      <trkpt lat="47.84116" lon="5.92036">
        <ele>212</ele>
        <time>2018-12-03T18:00:59Z</time>
      </trkpt>
      <trkpt lat="47.84109" lon="5.92015">
        <ele>211</ele>
        <time>2018-12-03T18:01:59Z</time>
      </trkpt>
      <trkpt lat="47.84107" lon="5.92005">
        <ele>211</ele>
        <time>2018-12-03T18:02:59Z</time>
      </trkpt>
      <trkpt lat="47.84082" lon="5.91907">
        <ele>212</ele>
        <time>2018-12-03T18:03:59Z</time>
      </trkpt>
      <trkpt lat="47.84072" lon="5.91861">
        <ele>213</ele>
        <time>2018-12-03T18:04:59Z</time>
      </trkpt>
      <trkpt lat="47.84068" lon="5.91833">
        <ele>214</ele>
        <time>2018-12-03T18:05:59Z</time>
      </trkpt>
      <trkpt lat="47.84065" lon="5.91809">
        <ele>214</ele>
        <time>2018-12-03T18:06:59Z</time>
      </trkpt>
      <trkpt lat="47.84051" lon="5.91725">
        <ele>215</ele>
        <time>2018-12-03T18:07:59Z</time>
      </trkpt>
      <trkpt lat="47.84045" lon="5.91694">
        <ele>215</ele>
        <time>2018-12-03T18:08:59Z</time>
      </trkpt>
      <trkpt lat="47.84039" lon="5.91669">
        <ele>215</ele>
        <time>2018-12-03T18:09:59Z</time>
      </trkpt>
      <trkpt lat="47.84035" lon="5.91656">
        <ele>216</ele>
        <time>2018-12-03T18:10:59Z</time>
      </trkpt>
      <trkpt lat="47.84031" lon="5.91646">
        <ele>217</ele>
        <time>2018-12-03T18:11:59Z</time>
      </trkpt>
      <trkpt lat="47.84026" lon="5.91635">
        <ele>217</ele>
        <time>2018-12-03T18:12:59Z</time>
      </trkpt>
      <trkpt lat="47.84025" lon="5.91629">
        <ele>218</ele>
        <time>2018-12-03T18:13:59Z</time>
      </trkpt>
      <trkpt lat="47.84026" lon="5.91623">
        <ele>218</ele>
        <time>2018-12-03T18:14:59Z</time>
      </trkpt>
      <trkpt lat="47.84004" lon="5.91604">
        <ele>219</ele>
        <time>2018-12-03T18:15:59Z</time>
      </trkpt>
      <trkpt lat="47.83997" lon="5.91597">
        <ele>219</ele>
        <time>2018-12-03T18:16:59Z</time>
      </trkpt>
      <trkpt lat="47.83976" lon="5.91572">
        <ele>220</ele>
        <time>2018-12-03T18:17:59Z</time>
      </trkpt>
      <trkpt lat="47.83967" lon="5.91559">
        <ele>221</ele>
        <time>2018-12-03T18:18:59Z</time>
      </trkpt>
      <trkpt lat="47.83946" lon="5.91524">
        <ele>223</ele>
        <time>2018-12-03T18:19:59Z</time>
      </trkpt>
      <trkpt lat="47.83936" lon="5.91506">
        <ele>223</ele>
        <time>2018-12-03T18:20:59Z</time>
      </trkpt>
      <trkpt lat="47.83928" lon="5.91489">
        <ele>224</ele>
        <time>2018-12-03T18:21:59Z</time>
      </trkpt>
      <trkpt lat="47.83918" lon="5.9147">
        <ele>224</ele>
        <time>2018-12-03T18:22:59Z</time>
      </trkpt>
      <trkpt lat="47.8391" lon="5.91451">
        <ele>224</ele>
        <time>2018-12-03T18:23:59Z</time>
      </trkpt>
      <trkpt lat="47.83902" lon="5.91433">
        <ele>224</ele>
        <time>2018-12-03T18:24:59Z</time>
      </trkpt>
      <trkpt lat="47.83874" lon="5.91363">
        <ele>226</ele>
        <time>2018-12-03T18:25:59Z</time>
      </trkpt>
      <trkpt lat="47.8387" lon="5.91352">
        <ele>226</ele>
        <time>2018-12-03T18:26:59Z</time>
      </trkpt>
      <trkpt lat="47.83864" lon="5.91334">
        <ele>226</ele>
        <time>2018-12-03T18:27:59Z</time>
      </trkpt>
      <trkpt lat="47.83859" lon="5.91315">
        <ele>226</ele>
        <time>2018-12-03T18:28:59Z</time>
      </trkpt>
      <trkpt lat="47.83852" lon="5.91293">
        <ele>226</ele>
        <time>2018-12-03T18:29:59Z</time>
      </trkpt>
      <trkpt lat="47.83822" lon="5.91202">
        <ele>224</ele>
        <time>2018-12-03T18:30:59Z</time>
      </trkpt>
      <trkpt lat="47.83813" lon="5.91176">
        <ele>223</ele>
        <time>2018-12-03T18:31:59Z</time>
      </trkpt>
      <trkpt lat="47.83804" lon="5.91147">
        <ele>223</ele>
        <time>2018-12-03T18:32:59Z</time>
      </trkpt>
      <trkpt lat="47.83795" lon="5.91118">
        <ele>222</ele>
        <time>2018-12-03T18:33:59Z</time>
      </trkpt>
      <trkpt lat="47.83775" lon="5.91058">
        <ele>221</ele>
        <time>2018-12-03T18:34:59Z</time>
      </trkpt>
      <trkpt lat="47.83766" lon="5.91026">
        <ele>221</ele>
        <time>2018-12-03T18:35:59Z</time>
      </trkpt>
      <trkpt lat="47.83754" lon="5.90992">
        <ele>220</ele>
        <time>2018-12-03T18:36:59Z</time>
      </trkpt>
      <trkpt lat="47.83744" lon="5.90964">
        <ele>220</ele>
        <time>2018-12-03T18:37:59Z</time>
      </trkpt>
      <trkpt lat="47.83725" lon="5.90905">
        <ele>219</ele>
        <time>2018-12-03T18:38:59Z</time>
      </trkpt>
      <trkpt lat="47.83721" lon="5.90891">
        <ele>219</ele>
        <time>2018-12-03T18:39:59Z</time>
      </trkpt>
      <trkpt lat="47.83712" lon="5.90866">
        <ele>218</ele>
        <time>2018-12-03T18:40:59Z</time>
      </trkpt>
      <trkpt lat="47.8371" lon="5.90859">
        <ele>218</ele>
        <time>2018-12-03T18:41:59Z</time>
      </trkpt>
      <trkpt lat="47.83708" lon="5.90831">
        <ele>218</ele>
        <time>2018-12-03T18:42:59Z</time>
      </trkpt>
      <trkpt lat="47.83708" lon="5.90812">
        <ele>218</ele>
        <time>2018-12-03T18:43:59Z</time>
      </trkpt>
      <trkpt lat="47.83714" lon="5.9077">
        <ele>218</ele>
        <time>2018-12-03T18:44:59Z</time>
      </trkpt>
      <trkpt lat="47.83719" lon="5.90742">
        <ele>218</ele>
        <time>2018-12-03T18:45:59Z</time>
      </trkpt>
      <trkpt lat="47.83723" lon="5.90706">
        <ele>218</ele>
        <time>2018-12-03T18:46:59Z</time>
      </trkpt>
      <trkpt lat="47.83728" lon="5.90661">
        <ele>219</ele>
        <time>2018-12-03T18:47:59Z</time>
      </trkpt>
      <trkpt lat="47.83731" lon="5.90605">
        <ele>218</ele>
        <time>2018-12-03T18:48:59Z</time>
      </trkpt>
      <trkpt lat="47.83739" lon="5.90492">
        <ele>219</ele>
        <time>2018-12-03T18:49:59Z</time>
      </trkpt>
      <trkpt lat="47.83742" lon="5.90445">
        <ele>219</ele>
        <time>2018-12-03T18:50:59Z</time>
      </trkpt>
      <trkpt lat="47.8374" lon="5.90366">
        <ele>218</ele>
        <time>2018-12-03T18:51:59Z</time>
      </trkpt>
      <trkpt lat="47.83741" lon="5.90349">
        <ele>218</ele>
        <time>2018-12-03T18:52:59Z</time>
      </trkpt>
      <trkpt lat="47.83749" lon="5.90261">
        <ele>217</ele>
        <time>2018-12-03T18:53:59Z</time>
      </trkpt>
      <trkpt lat="47.83751" lon="5.90239">
        <ele>217</ele>
        <time>2018-12-03T18:54:59Z</time>
      </trkpt>
      <trkpt lat="47.83754" lon="5.90227">
        <ele>217</ele>
        <time>2018-12-03T18:55:59Z</time>
      </trkpt>
      <trkpt lat="47.83755" lon="5.9022">
        <ele>217</ele>
        <time>2018-12-03T18:56:59Z</time>
      </trkpt>
      <trkpt lat="47.83754" lon="5.90195">
        <ele>217</ele>
        <time>2018-12-03T18:57:59Z</time>
      </trkpt>
      <trkpt lat="47.83752" lon="5.90186">
        <ele>217</ele>
        <time>2018-12-03T18:58:59Z</time>
      </trkpt>
      <trkpt lat="47.8374" lon="5.90166">
        <ele>217</ele>
        <time>2018-12-03T18:59:59Z</time>
      </trkpt>
      <trkpt lat="47.83737" lon="5.90159">
        <ele>217</ele>
        <time>2018-12-03T19:00:59Z</time>
      </trkpt>
      <trkpt lat="47.83729" lon="5.90168">
        <ele>217</ele>
        <time>2018-12-03T19:01:59Z</time>
      </trkpt>
      <trkpt lat="47.83725" lon="5.90171">
        <ele>217</ele>
        <time>2018-12-03T19:02:59Z</time>
      </trkpt>
      <trkpt lat="47.83717" lon="5.90169">
        <ele>217</ele>
        <time>2018-12-03T19:03:59Z</time>
      </trkpt>
      <trkpt lat="47.83714" lon="5.90169">
        <ele>217</ele>
        <time>2018-12-03T19:04:59Z</time>
      </trkpt>
      <trkpt lat="47.83689" lon="5.90162">
        <ele>217</ele>
        <time>2018-12-03T19:05:59Z</time>
      </trkpt>
      <trkpt lat="47.83663" lon="5.90154">
        <ele>217</ele>
        <time>2018-12-03T19:06:59Z</time>
      </trkpt>
      <trkpt lat="47.83651" lon="5.90152">
        <ele>217</ele>
        <time>2018-12-03T19:07:59Z</time>
      </trkpt>
      <trkpt lat="47.83607" lon="5.90141">
        <ele>216</ele>
        <time>2018-12-03T19:08:59Z</time>
      </trkpt>
      <trkpt lat="47.83582" lon="5.90135">
        <ele>215</ele>
        <time>2018-12-03T19:09:59Z</time>
      </trkpt>
      <trkpt lat="47.83551" lon="5.90125">
        <ele>215</ele>
        <time>2018-12-03T19:10:59Z</time>
      </trkpt>
      <trkpt lat="47.83482" lon="5.90108">
        <ele>214</ele>
        <time>2018-12-03T19:11:59Z</time>
      </trkpt>
      <trkpt lat="47.83475" lon="5.90107">
        <ele>214</ele>
        <time>2018-12-03T19:12:59Z</time>
      </trkpt>
      <trkpt lat="47.83455" lon="5.90102">
        <ele>214</ele>
        <time>2018-12-03T19:13:59Z</time>
      </trkpt>
      <trkpt lat="47.83451" lon="5.901">
        <ele>214</ele>
        <time>2018-12-03T19:14:59Z</time>
      </trkpt>
      <trkpt lat="47.83348" lon="5.90071">
        <ele>216</ele>
        <time>2018-12-03T19:15:59Z</time>
      </trkpt>
      <trkpt lat="47.83284" lon="5.90057">
        <ele>216</ele>
        <time>2018-12-03T19:16:59Z</time>
      </trkpt>
      <trkpt lat="47.83159" lon="5.90024">
        <ele>217</ele>
        <time>2018-12-03T19:17:59Z</time>
      </trkpt>
      <trkpt lat="47.83143" lon="5.90019">
        <ele>217</ele>
        <time>2018-12-03T19:18:59Z</time>
      </trkpt>
      <trkpt lat="47.83129" lon="5.90016">
        <ele>217</ele>
        <time>2018-12-03T19:19:59Z</time>
      </trkpt>
      <trkpt lat="47.83079" lon="5.90004">
        <ele>217</ele>
        <time>2018-12-03T19:20:59Z</time>
      </trkpt>
      <trkpt lat="47.82974" lon="5.89975">
        <ele>214</ele>
        <time>2018-12-03T19:21:59Z</time>
      </trkpt>
      <trkpt lat="47.82963" lon="5.89972">
        <ele>214</ele>
        <time>2018-12-03T19:22:59Z</time>
      </trkpt>
      <trkpt lat="47.82899" lon="5.89956">
        <ele>215</ele>
        <time>2018-12-03T19:23:59Z</time>
      </trkpt>
      <trkpt lat="47.8285" lon="5.89942">
        <ele>215</ele>
        <time>2018-12-03T19:24:59Z</time>
      </trkpt>
      <trkpt lat="47.82826" lon="5.89929">
        <ele>215</ele>
        <time>2018-12-03T19:25:59Z</time>
      </trkpt>
      <trkpt lat="47.82812" lon="5.89924">
        <ele>215</ele>
        <time>2018-12-03T19:26:59Z</time>
      </trkpt>
      <trkpt lat="47.82812" lon="5.89923">
        <ele>215</ele>
        <time>2018-12-03T19:27:59Z</time>
      </trkpt>
      <trkpt lat="47.82811" lon="5.89918">
        <ele>215</ele>
        <time>2018-12-03T19:28:59Z</time>
      </trkpt>
      <trkpt lat="47.82807" lon="5.89914">
        <ele>215</ele>
        <time>2018-12-03T19:29:59Z</time>
      </trkpt>
      <trkpt lat="47.82804" lon="5.89912">
        <ele>215</ele>
        <time>2018-12-03T19:30:59Z</time>
      </trkpt>
      <trkpt lat="47.82802" lon="5.89912">
        <ele>215</ele>
        <time>2018-12-03T19:31:59Z</time>
      </trkpt>
      <trkpt lat="47.82799" lon="5.89912">
        <ele>215</ele>
        <time>2018-12-03T19:32:59Z</time>
      </trkpt>
      <trkpt lat="47.82797" lon="5.89913">
        <ele>215</ele>
        <time>2018-12-03T19:33:59Z</time>
      </trkpt>
      <trkpt lat="47.82794" lon="5.89914">
        <ele>215</ele>
        <time>2018-12-03T19:34:59Z</time>
      </trkpt>
      <trkpt lat="47.82792" lon="5.89917">
        <ele>215</ele>
        <time>2018-12-03T19:35:59Z</time>
      </trkpt>
      <trkpt lat="47.8279" lon="5.89921">
        <ele>215</ele>
        <time>2018-12-03T19:36:59Z</time>
      </trkpt>
      <trkpt lat="47.82779" lon="5.89917">
        <ele>215</ele>
        <time>2018-12-03T19:37:59Z</time>
      </trkpt>
      <trkpt lat="47.82763" lon="5.89912">
        <ele>215</ele>
        <time>2018-12-03T19:38:59Z</time>
      </trkpt>
      <trkpt lat="47.82754" lon="5.89915">
        <ele>215</ele>
        <time>2018-12-03T19:39:59Z</time>
      </trkpt>
      <trkpt lat="47.82729" lon="5.89909">
        <ele>216</ele>
        <time>2018-12-03T19:40:59Z</time>
      </trkpt>
      <trkpt lat="47.82727" lon="5.89908">
        <ele>216</ele>
        <time>2018-12-03T19:41:59Z</time>
      </trkpt>
      <trkpt lat="47.82676" lon="5.89897">
        <ele>218</ele>
        <time>2018-12-03T19:42:59Z</time>
      </trkpt>
      <trkpt lat="47.82666" lon="5.89895">
        <ele>218</ele>
        <time>2018-12-03T19:43:59Z</time>
      </trkpt>
      <trkpt lat="47.82666" lon="5.89895">
        <ele>218</ele>
        <time>2018-12-03T19:44:59Z</time>
      </trkpt>
      <trkpt lat="47.82662" lon="5.8992">
        <ele>218</ele>
        <time>2018-12-03T19:45:59Z</time>
      </trkpt>
      <trkpt lat="47.82655" lon="5.8998">
        <ele>217</ele>
        <time>2018-12-03T19:46:59Z</time>
      </trkpt>
      <trkpt lat="47.82652" lon="5.89999">
        <ele>216</ele>
        <time>2018-12-03T19:47:59Z</time>
      </trkpt>
      <trkpt lat="47.82647" lon="5.90025">
        <ele>216</ele>
        <time>2018-12-03T19:48:59Z</time>
      </trkpt>
      <trkpt lat="47.82643" lon="5.90041">
        <ele>217</ele>
        <time>2018-12-03T19:49:59Z</time>
      </trkpt>
      <trkpt lat="47.8264" lon="5.90052">
        <ele>217</ele>
        <time>2018-12-03T19:50:59Z</time>
      </trkpt>
      <trkpt lat="47.82634" lon="5.90066">
        <ele>217</ele>
        <time>2018-12-03T19:51:59Z</time>
      </trkpt>
      <trkpt lat="47.82629" lon="5.90078">
        <ele>217</ele>
        <time>2018-12-03T19:52:59Z</time>
      </trkpt>
      <trkpt lat="47.82623" lon="5.90087">
        <ele>217</ele>
        <time>2018-12-03T19:53:59Z</time>
      </trkpt>
      <trkpt lat="47.82617" lon="5.90095">
        <ele>217</ele>
        <time>2018-12-03T19:54:59Z</time>
      </trkpt>
      <trkpt lat="47.8261" lon="5.90103">
        <ele>217</ele>
        <time>2018-12-03T19:55:59Z</time>
      </trkpt>
      <trkpt lat="47.82604" lon="5.9011">
        <ele>218</ele>
        <time>2018-12-03T19:56:59Z</time>
      </trkpt>
      <trkpt lat="47.82598" lon="5.90115">
        <ele>218</ele>
        <time>2018-12-03T19:57:59Z</time>
      </trkpt>
      <trkpt lat="47.82588" lon="5.90124">
        <ele>218</ele>
        <time>2018-12-03T19:58:59Z</time>
      </trkpt>
      <trkpt lat="47.82578" lon="5.9013">
        <ele>218</ele>
        <time>2018-12-03T19:59:59Z</time>
      </trkpt>
      <trkpt lat="47.82567" lon="5.90135">
        <ele>219</ele>
        <time>2018-12-03T20:00:59Z</time>
      </trkpt>
      <trkpt lat="47.8256" lon="5.9014">
        <ele>220</ele>
        <time>2018-12-03T20:01:59Z</time>
      </trkpt>
      <trkpt lat="47.8255" lon="5.90145">
        <ele>220</ele>
        <time>2018-12-03T20:02:59Z</time>
      </trkpt>
      <trkpt lat="47.82528" lon="5.9017">
        <ele>222</ele>
        <time>2018-12-03T20:03:59Z</time>
      </trkpt>
      <trkpt lat="47.82521" lon="5.90179">
        <ele>223</ele>
        <time>2018-12-03T20:04:59Z</time>
      </trkpt>
      <trkpt lat="47.82512" lon="5.90195">
        <ele>224</ele>
        <time>2018-12-03T20:05:59Z</time>
      </trkpt>
      <trkpt lat="47.82506" lon="5.90204">
        <ele>224</ele>
        <time>2018-12-03T20:06:59Z</time>
      </trkpt>
      <trkpt lat="47.82503" lon="5.9021">
        <ele>225</ele>
        <time>2018-12-03T20:07:59Z</time>
      </trkpt>
      <trkpt lat="47.82501" lon="5.90214">
        <ele>225</ele>
        <time>2018-12-03T20:08:59Z</time>
      </trkpt>
      <trkpt lat="47.82499" lon="5.90223">
        <ele>225</ele>
        <time>2018-12-03T20:09:59Z</time>
      </trkpt>
      <trkpt lat="47.82501" lon="5.90234">
        <ele>226</ele>
        <time>2018-12-03T20:10:59Z</time>
      </trkpt>
      <trkpt lat="47.82492" lon="5.90242">
        <ele>226</ele>
        <time>2018-12-03T20:11:59Z</time>
      </trkpt>
      <trkpt lat="47.82473" lon="5.90254">
        <ele>228</ele>
        <time>2018-12-03T20:12:59Z</time>
      </trkpt>
      <trkpt lat="47.82445" lon="5.90273">
        <ele>231</ele>
        <time>2018-12-03T20:13:59Z</time>
      </trkpt>
      <trkpt lat="47.82423" lon="5.90279">
        <ele>233</ele>
        <time>2018-12-03T20:14:59Z</time>
      </trkpt>
      <trkpt lat="47.82384" lon="5.9029">
        <ele>235</ele>
        <time>2018-12-03T20:15:59Z</time>
      </trkpt>
      <trkpt lat="47.82372" lon="5.90291">
        <ele>235</ele>
        <time>2018-12-03T20:16:59Z</time>
      </trkpt>
      <trkpt lat="47.82363" lon="5.90292">
        <ele>236</ele>
        <time>2018-12-03T20:17:59Z</time>
      </trkpt>
      <trkpt lat="47.82354" lon="5.90291">
        <ele>236</ele>
        <time>2018-12-03T20:18:59Z</time>
      </trkpt>
      <trkpt lat="47.82343" lon="5.90289">
        <ele>236</ele>
        <time>2018-12-03T20:19:59Z</time>
      </trkpt>
      <trkpt lat="47.82325" lon="5.90283">
        <ele>236</ele>
        <time>2018-12-03T20:20:59Z</time>
      </trkpt>
      <trkpt lat="47.82316" lon="5.90281">
        <ele>236</ele>
        <time>2018-12-03T20:21:59Z</time>
      </trkpt>
      <trkpt lat="47.82301" lon="5.90283">
        <ele>236</ele>
        <time>2018-12-03T20:22:59Z</time>
      </trkpt>
      <trkpt lat="47.82266" lon="5.90287">
        <ele>237</ele>
        <time>2018-12-03T20:23:59Z</time>
      </trkpt>
      <trkpt lat="47.82253" lon="5.90289">
        <ele>238</ele>
        <time>2018-12-03T20:24:59Z</time>
      </trkpt>
      <trkpt lat="47.82222" lon="5.90299">
        <ele>241</ele>
        <time>2018-12-03T20:25:59Z</time>
      </trkpt>
      <trkpt lat="47.82151" lon="5.90315">
        <ele>248</ele>
        <time>2018-12-03T20:26:59Z</time>
      </trkpt>
      <trkpt lat="47.82134" lon="5.90315">
        <ele>249</ele>
        <time>2018-12-03T20:27:59Z</time>
      </trkpt>
      <trkpt lat="47.82134" lon="5.90315">
        <ele>249</ele>
        <time>2018-12-03T20:28:59Z</time>
      </trkpt>
      <trkpt lat="47.82118" lon="5.90313">
        <ele>250</ele>
        <time>2018-12-03T20:29:59Z</time>
      </trkpt>
      <trkpt lat="47.8208" lon="5.903">
        <ele>253</ele>
        <time>2018-12-03T20:30:59Z</time>
      </trkpt>
      <trkpt lat="47.82048" lon="5.90292">
        <ele>254</ele>
        <time>2018-12-03T20:31:59Z</time>
      </trkpt>
      <trkpt lat="47.82008" lon="5.90279">
        <ele>256</ele>
        <time>2018-12-03T20:32:59Z</time>
      </trkpt>
      <trkpt lat="47.8199" lon="5.90274">
        <ele>256</ele>
        <time>2018-12-03T20:33:59Z</time>
      </trkpt>
      <trkpt lat="47.81979" lon="5.90272">
        <ele>255</ele>
        <time>2018-12-03T20:34:59Z</time>
      </trkpt>
      <trkpt lat="47.81969" lon="5.90272">
        <ele>255</ele>
        <time>2018-12-03T20:35:59Z</time>
      </trkpt>
      <trkpt lat="47.81959" lon="5.90273">
        <ele>255</ele>
        <time>2018-12-03T20:36:59Z</time>
      </trkpt>
      <trkpt lat="47.81928" lon="5.90278">
        <ele>253</ele>
        <time>2018-12-03T20:37:59Z</time>
      </trkpt>
      <trkpt lat="47.81908" lon="5.90284">
        <ele>253</ele>
        <time>2018-12-03T20:38:59Z</time>
      </trkpt>
      <trkpt lat="47.8188" lon="5.90288">
        <ele>253</ele>
        <time>2018-12-03T20:39:59Z</time>
      </trkpt>
      <trkpt lat="47.81853" lon="5.90293">
        <ele>254</ele>
        <time>2018-12-03T20:40:59Z</time>
      </trkpt>
      <trkpt lat="47.81834" lon="5.90296">
        <ele>255</ele>
        <time>2018-12-03T20:41:59Z</time>
      </trkpt>
      <trkpt lat="47.81736" lon="5.9031">
        <ele>264</ele>
        <time>2018-12-03T20:42:59Z</time>
      </trkpt>
      <trkpt lat="47.81706" lon="5.90313">
        <ele>265</ele>
        <time>2018-12-03T20:43:59Z</time>
      </trkpt>
      <trkpt lat="47.81674" lon="5.90318">
        <ele>265</ele>
        <time>2018-12-03T20:44:59Z</time>
      </trkpt>
      <trkpt lat="47.81648" lon="5.90323">
        <ele>265</ele>
        <time>2018-12-03T20:45:59Z</time>
      </trkpt>
      <trkpt lat="47.81619" lon="5.90326">
        <ele>265</ele>
        <time>2018-12-03T20:46:59Z</time>
      </trkpt>
      <trkpt lat="47.81606" lon="5.90327">
        <ele>264</ele>
        <time>2018-12-03T20:47:59Z</time>
      </trkpt>
      <trkpt lat="47.81521" lon="5.9034">
        <ele>261</ele>
        <time>2018-12-03T20:48:59Z</time>
      </trkpt>
      <trkpt lat="47.81466" lon="5.90348">
        <ele>261</ele>
        <time>2018-12-03T20:49:59Z</time>
      </trkpt>
      <trkpt lat="47.81444" lon="5.90352">
        <ele>262</ele>
        <time>2018-12-03T20:50:59Z</time>
      </trkpt>
      <trkpt lat="47.814" lon="5.90358">
        <ele>264</ele>
        <time>2018-12-03T20:51:59Z</time>
      </trkpt>
      <trkpt lat="47.81358" lon="5.90366">
        <ele>268</ele>
        <time>2018-12-03T20:52:59Z</time>
      </trkpt>
      <trkpt lat="47.81276" lon="5.90379">
        <ele>273</ele>
        <time>2018-12-03T20:53:59Z</time>
      </trkpt>
      <trkpt lat="47.81244" lon="5.90385">
        <ele>275</ele>
        <time>2018-12-03T20:54:59Z</time>
      </trkpt>
      <trkpt lat="47.8123" lon="5.90386">
        <ele>275</ele>
        <time>2018-12-03T20:55:59Z</time>
      </trkpt>
      <trkpt lat="47.81215" lon="5.90389">
        <ele>275</ele>
        <time>2018-12-03T20:56:59Z</time>
      </trkpt>
      <trkpt lat="47.81193" lon="5.90394">
        <ele>275</ele>
        <time>2018-12-03T20:57:59Z</time>
      </trkpt>
      <trkpt lat="47.81133" lon="5.9041">
        <ele>275</ele>
        <time>2018-12-03T20:58:59Z</time>
      </trkpt>
      <trkpt lat="47.8112" lon="5.90416">
        <ele>274</ele>
        <time>2018-12-03T20:59:59Z</time>
      </trkpt>
      <trkpt lat="47.81093" lon="5.90425">
        <ele>274</ele>
        <time>2018-12-03T21:00:59Z</time>
      </trkpt>
      <trkpt lat="47.8097" lon="5.90473">
        <ele>268</ele>
        <time>2018-12-03T21:01:59Z</time>
      </trkpt>
      <trkpt lat="47.8095" lon="5.9048">
        <ele>267</ele>
        <time>2018-12-03T21:02:59Z</time>
      </trkpt>
      <trkpt lat="47.80932" lon="5.90488">
        <ele>267</ele>
        <time>2018-12-03T21:03:59Z</time>
      </trkpt>
      <trkpt lat="47.80884" lon="5.90505">
        <ele>266</ele>
        <time>2018-12-03T21:04:59Z</time>
      </trkpt>
      <trkpt lat="47.80857" lon="5.90516">
        <ele>266</ele>
        <time>2018-12-03T21:05:59Z</time>
      </trkpt>
      <trkpt lat="47.80804" lon="5.90537">
        <ele>265</ele>
        <time>2018-12-03T21:06:59Z</time>
      </trkpt>
      <trkpt lat="47.80768" lon="5.9055">
        <ele>262</ele>
        <time>2018-12-03T21:07:59Z</time>
      </trkpt>
      <trkpt lat="47.80695" lon="5.90579">
        <ele>256</ele>
        <time>2018-12-03T21:08:59Z</time>
      </trkpt>
      <trkpt lat="47.80662" lon="5.90592">
        <ele>252</ele>
        <time>2018-12-03T21:09:59Z</time>
      </trkpt>
      <trkpt lat="47.80436" lon="5.90677">
        <ele>232</ele>
        <time>2018-12-03T21:10:59Z</time>
      </trkpt>
      <trkpt lat="47.8042" lon="5.9068">
        <ele>230</ele>
        <time>2018-12-03T21:11:59Z</time>
      </trkpt>
      <trkpt lat="47.8041" lon="5.90686">
        <ele>229</ele>
        <time>2018-12-03T21:12:59Z</time>
      </trkpt>
      <trkpt lat="47.80399" lon="5.90691">
        <ele>228</ele>
        <time>2018-12-03T21:13:59Z</time>
      </trkpt>
      <trkpt lat="47.80392" lon="5.90694">
        <ele>228</ele>
        <time>2018-12-03T21:14:59Z</time>
      </trkpt>
      <trkpt lat="47.80377" lon="5.90705">
        <ele>227</ele>
        <time>2018-12-03T21:15:59Z</time>
      </trkpt>
      <trkpt lat="47.80372" lon="5.90709">
        <ele>226</ele>
        <time>2018-12-03T21:16:59Z</time>
      </trkpt>
      <trkpt lat="47.80366" lon="5.90717">
        <ele>226</ele>
        <time>2018-12-03T21:17:59Z</time>
      </trkpt>
      <trkpt lat="47.80357" lon="5.90732">
        <ele>225</ele>
        <time>2018-12-03T21:18:59Z</time>
      </trkpt>
      <trkpt lat="47.8034" lon="5.90759">
        <ele>224</ele>
        <time>2018-12-03T21:19:59Z</time>
      </trkpt>
      <trkpt lat="47.80237" lon="5.9094">
        <ele>220</ele>
        <time>2018-12-03T21:20:59Z</time>
      </trkpt>
      <trkpt lat="47.80199" lon="5.91007">
        <ele>220</ele>
        <time>2018-12-03T21:21:59Z</time>
      </trkpt>
      <trkpt lat="47.80134" lon="5.91115">
        <ele>219</ele>
        <time>2018-12-03T21:22:59Z</time>
      </trkpt>
      <trkpt lat="47.80093" lon="5.91187">
        <ele>219</ele>
        <time>2018-12-03T21:23:59Z</time>
      </trkpt>
      <trkpt lat="47.80065" lon="5.91234">
        <ele>218</ele>
        <time>2018-12-03T21:24:59Z</time>
      </trkpt>
      <trkpt lat="47.80031" lon="5.91296">
        <ele>218</ele>
        <time>2018-12-03T21:25:59Z</time>
      </trkpt>
      <trkpt lat="47.79995" lon="5.91358">
        <ele>218</ele>
        <time>2018-12-03T21:26:59Z</time>
      </trkpt>
      <trkpt lat="47.79966" lon="5.91406">
        <ele>218</ele>
        <time>2018-12-03T21:27:59Z</time>
      </trkpt>
      <trkpt lat="47.79938" lon="5.91446">
        <ele>218</ele>
        <time>2018-12-03T21:28:59Z</time>
      </trkpt>
      <trkpt lat="47.79933" lon="5.91452">
        <ele>218</ele>
        <time>2018-12-03T21:29:59Z</time>
      </trkpt>
      <trkpt lat="47.79919" lon="5.91466">
        <ele>217</ele>
        <time>2018-12-03T21:30:59Z</time>
      </trkpt>
      <trkpt lat="47.79914" lon="5.91471">
        <ele>217</ele>
        <time>2018-12-03T21:31:59Z</time>
      </trkpt>
      <trkpt lat="47.79888" lon="5.91501">
        <ele>217</ele>
        <time>2018-12-03T21:32:59Z</time>
      </trkpt>
      <trkpt lat="47.79879" lon="5.91511">
        <ele>216</ele>
        <time>2018-12-03T21:33:59Z</time>
      </trkpt>
      <trkpt lat="47.79872" lon="5.91517">
        <ele>216</ele>
        <time>2018-12-03T21:34:59Z</time>
      </trkpt>
      <trkpt lat="47.7986" lon="5.9153">
        <ele>216</ele>
        <time>2018-12-03T21:35:59Z</time>
      </trkpt>
      <trkpt lat="47.79857" lon="5.91533">
        <ele>216</ele>
        <time>2018-12-03T21:36:59Z</time>
      </trkpt>
      <trkpt lat="47.79855" lon="5.91536">
        <ele>216</ele>
        <time>2018-12-03T21:37:59Z</time>
      </trkpt>
      <trkpt lat="47.79837" lon="5.91556">
        <ele>216</ele>
        <time>2018-12-03T21:38:59Z</time>
      </trkpt>
      <trkpt lat="47.79811" lon="5.91583">
        <ele>218</ele>
        <time>2018-12-03T21:39:59Z</time>
      </trkpt>
      <trkpt lat="47.798" lon="5.91596">
        <ele>219</ele>
        <time>2018-12-03T21:40:59Z</time>
      </trkpt>
      <trkpt lat="47.79793" lon="5.91601">
        <ele>220</ele>
        <time>2018-12-03T21:41:59Z</time>
      </trkpt>
      <trkpt lat="47.79784" lon="5.91607">
        <ele>221</ele>
        <time>2018-12-03T21:42:59Z</time>
      </trkpt>
      <trkpt lat="47.79784" lon="5.91607">
        <ele>221</ele>
        <time>2018-12-03T21:43:59Z</time>
      </trkpt>
      <trkpt lat="47.79783" lon="5.91626">
        <ele>222</ele>
        <time>2018-12-03T21:44:59Z</time>
      </trkpt>
      <trkpt lat="47.79806" lon="5.91669">
        <ele>221</ele>
        <time>2018-12-03T21:45:59Z</time>
      </trkpt>
      <trkpt lat="47.79824" lon="5.91704">
        <ele>219</ele>
        <time>2018-12-03T21:46:59Z</time>
      </trkpt>
      <trkpt lat="47.79836" lon="5.9173">
        <ele>218</ele>
        <time>2018-12-03T21:47:59Z</time>
      </trkpt>
      <trkpt lat="47.79842" lon="5.91746">
        <ele>218</ele>
        <time>2018-12-03T21:48:59Z</time>
      </trkpt>
      <trkpt lat="47.79846" lon="5.91761">
        <ele>219</ele>
        <time>2018-12-03T21:49:59Z</time>
      </trkpt>
      <trkpt lat="47.79852" lon="5.91803">
        <ele>219</ele>
        <time>2018-12-03T21:50:59Z</time>
      </trkpt>
      <trkpt lat="47.79855" lon="5.91832">
        <ele>220</ele>
        <time>2018-12-03T21:51:59Z</time>
      </trkpt>
      <trkpt lat="47.79855" lon="5.91853">
        <ele>220</ele>
        <time>2018-12-03T21:52:59Z</time>
      </trkpt>
      <trkpt lat="47.79855" lon="5.91873">
        <ele>219</ele>
        <time>2018-12-03T21:53:59Z</time>
      </trkpt>
      <trkpt lat="47.79852" lon="5.91913">
        <ele>219</ele>
        <time>2018-12-03T21:54:59Z</time>
      </trkpt>
      <trkpt lat="47.79849" lon="5.91953">
        <ele>220</ele>
        <time>2018-12-03T21:55:59Z</time>
      </trkpt>
      <trkpt lat="47.79849" lon="5.91956">
        <ele>220</ele>
        <time>2018-12-03T21:56:59Z</time>
      </trkpt>
      <trkpt lat="47.79848" lon="5.91975">
        <ele>220</ele>
        <time>2018-12-03T21:57:59Z</time>
      </trkpt>
      <trkpt lat="47.79848" lon="5.92005">
        <ele>221</ele>
        <time>2018-12-03T21:58:59Z</time>
      </trkpt>
      <trkpt lat="47.79848" lon="5.92028">
        <ele>222</ele>
        <time>2018-12-03T21:59:59Z</time>
      </trkpt>
      <trkpt lat="47.79854" lon="5.92089">
        <ele>224</ele>
        <time>2018-12-03T22:00:59Z</time>
      </trkpt>
      <trkpt lat="47.79859" lon="5.92125">
        <ele>225</ele>
        <time>2018-12-03T22:01:59Z</time>
      </trkpt>
      <trkpt lat="47.79868" lon="5.92166">
        <ele>225</ele>
        <time>2018-12-03T22:02:59Z</time>
      </trkpt>
      <trkpt lat="47.79873" lon="5.92197">
        <ele>225</ele>
        <time>2018-12-03T22:03:59Z</time>
      </trkpt>
      <trkpt lat="47.79877" lon="5.92232">
        <ele>225</ele>
        <time>2018-12-03T22:04:59Z</time>
      </trkpt>
      <trkpt lat="47.79878" lon="5.92252">
        <ele>226</ele>
        <time>2018-12-03T22:05:59Z</time>
      </trkpt>
      <trkpt lat="47.79878" lon="5.92278">
        <ele>226</ele>
        <time>2018-12-03T22:06:59Z</time>
      </trkpt>
      <trkpt lat="47.79877" lon="5.92299">
        <ele>226</ele>
        <time>2018-12-03T22:07:59Z</time>
      </trkpt>
      <trkpt lat="47.79876" lon="5.92316">
        <ele>227</ele>
        <time>2018-12-03T22:08:59Z</time>
      </trkpt>
      <trkpt lat="47.79874" lon="5.92326">
        <ele>227</ele>
        <time>2018-12-03T22:09:59Z</time>
      </trkpt>
      <trkpt lat="47.79872" lon="5.92336">
        <ele>227</ele>
        <time>2018-12-03T22:10:59Z</time>
      </trkpt>
      <trkpt lat="47.79906" lon="5.92451">
        <ele>224</ele>
        <time>2018-12-03T22:11:59Z</time>
      </trkpt>
      <trkpt lat="47.79915" lon="5.92478">
        <ele>224</ele>
        <time>2018-12-03T22:12:59Z</time>
      </trkpt>
      <trkpt lat="47.79927" lon="5.92523">
        <ele>224</ele>
        <time>2018-12-03T22:13:59Z</time>
      </trkpt>
      <trkpt lat="47.79936" lon="5.92556">
        <ele>223</ele>
        <time>2018-12-03T22:14:59Z</time>
      </trkpt>
      <trkpt lat="47.79955" lon="5.92638">
        <ele>222</ele>
        <time>2018-12-03T22:15:59Z</time>
      </trkpt>
      <trkpt lat="47.7996" lon="5.92659">
        <ele>221</ele>
        <time>2018-12-03T22:16:59Z</time>
      </trkpt>
      <trkpt lat="47.79975" lon="5.92735">
        <ele>219</ele>
        <time>2018-12-03T22:17:59Z</time>
      </trkpt>
      <trkpt lat="47.79976" lon="5.92746">
        <ele>219</ele>
        <time>2018-12-03T22:18:59Z</time>
      </trkpt>
      <trkpt lat="47.79976" lon="5.92809">
        <ele>218</ele>
        <time>2018-12-03T22:19:59Z</time>
      </trkpt>
      <trkpt lat="47.79975" lon="5.92816">
        <ele>217</ele>
        <time>2018-12-03T22:20:59Z</time>
      </trkpt>
      <trkpt lat="47.79976" lon="5.9286">
        <ele>217</ele>
        <time>2018-12-03T22:21:59Z</time>
      </trkpt>
      <trkpt lat="47.79975" lon="5.92875">
        <ele>217</ele>
        <time>2018-12-03T22:22:59Z</time>
      </trkpt>
      <trkpt lat="47.79976" lon="5.92886">
        <ele>217</ele>
        <time>2018-12-03T22:23:59Z</time>
      </trkpt>
      <trkpt lat="47.79977" lon="5.92892">
        <ele>217</ele>
        <time>2018-12-03T22:24:59Z</time>
      </trkpt>
      <trkpt lat="47.79976" lon="5.92897">
        <ele>217</ele>
        <time>2018-12-03T22:25:59Z</time>
      </trkpt>
      <trkpt lat="47.79975" lon="5.92901">
        <ele>217</ele>
        <time>2018-12-03T22:26:59Z</time>
      </trkpt>
      <trkpt lat="47.79976" lon="5.92919">
        <ele>217</ele>
        <time>2018-12-03T22:27:59Z</time>
      </trkpt>
      <trkpt lat="47.79978" lon="5.92934">
        <ele>217</ele>
        <time>2018-12-03T22:28:59Z</time>
      </trkpt>
      <trkpt lat="47.79973" lon="5.92941">
        <ele>217</ele>
        <time>2018-12-03T22:29:59Z</time>
      </trkpt>
      <trkpt lat="47.79968" lon="5.92948">
        <ele>217</ele>
        <time>2018-12-03T22:30:59Z</time>
      </trkpt>
      <trkpt lat="47.79964" lon="5.92956">
        <ele>217</ele>
        <time>2018-12-03T22:31:59Z</time>
      </trkpt>
      <trkpt lat="47.79958" lon="5.92965">
        <ele>218</ele>
        <time>2018-12-03T22:32:59Z</time>
      </trkpt>
      <trkpt lat="47.79952" lon="5.92981">
        <ele>218</ele>
        <time>2018-12-03T22:33:59Z</time>
      </trkpt>
      <trkpt lat="47.79949" lon="5.92988">
        <ele>218</ele>
        <time>2018-12-03T22:34:59Z</time>
      </trkpt>
      <trkpt lat="47.79942" lon="5.93017">
        <ele>219</ele>
        <time>2018-12-03T22:35:59Z</time>
      </trkpt>
      <trkpt lat="47.79939" lon="5.93029">
        <ele>219</ele>
        <time>2018-12-03T22:36:59Z</time>
      </trkpt>
      <trkpt lat="47.79935" lon="5.9304">
        <ele>220</ele>
        <time>2018-12-03T22:37:59Z</time>
      </trkpt>
      <trkpt lat="47.79931" lon="5.93048">
        <ele>220</ele>
        <time>2018-12-03T22:38:59Z</time>
      </trkpt>
      <trkpt lat="47.79928" lon="5.93054">
        <ele>220</ele>
        <time>2018-12-03T22:39:59Z</time>
      </trkpt>
      <trkpt lat="47.79921" lon="5.93064">
        <ele>221</ele>
        <time>2018-12-03T22:40:59Z</time>
      </trkpt>
      <trkpt lat="47.79905" lon="5.93081">
        <ele>222</ele>
        <time>2018-12-03T22:41:59Z</time>
      </trkpt>
      <trkpt lat="47.799" lon="5.93087">
        <ele>222</ele>
        <time>2018-12-03T22:42:59Z</time>
      </trkpt>
      <trkpt lat="47.79892" lon="5.93101">
        <ele>223</ele>
        <time>2018-12-03T22:43:59Z</time>
      </trkpt>
      <trkpt lat="47.79889" lon="5.93107">
        <ele>223</ele>
        <time>2018-12-03T22:44:59Z</time>
      </trkpt>
      <trkpt lat="47.79887" lon="5.93115">
        <ele>223</ele>
        <time>2018-12-03T22:45:59Z</time>
      </trkpt>
      <trkpt lat="47.79886" lon="5.93121">
        <ele>223</ele>
        <time>2018-12-03T22:46:59Z</time>
      </trkpt>
      <trkpt lat="47.79883" lon="5.93144">
        <ele>223</ele>
        <time>2018-12-03T22:47:59Z</time>
      </trkpt>
      <trkpt lat="47.79881" lon="5.93146">
        <ele>223</ele>
        <time>2018-12-03T22:48:59Z</time>
      </trkpt>
      <trkpt lat="47.79881" lon="5.9315">
        <ele>223</ele>
        <time>2018-12-03T22:49:59Z</time>
      </trkpt>
      <trkpt lat="47.7988" lon="5.93159">
        <ele>224</ele>
        <time>2018-12-03T22:50:59Z</time>
      </trkpt>
      <trkpt lat="47.79876" lon="5.93184">
        <ele>224</ele>
        <time>2018-12-03T22:51:59Z</time>
      </trkpt>
      <trkpt lat="47.79874" lon="5.93193">
        <ele>223</ele>
        <time>2018-12-03T22:52:59Z</time>
      </trkpt>
      <trkpt lat="47.79871" lon="5.93201">
        <ele>223</ele>
        <time>2018-12-03T22:53:59Z</time>
      </trkpt>
      <trkpt lat="47.79869" lon="5.93207">
        <ele>223</ele>
        <time>2018-12-03T22:54:59Z</time>
      </trkpt>
      <trkpt lat="47.79862" lon="5.93221">
        <ele>223</ele>
        <time>2018-12-03T22:55:59Z</time>
      </trkpt>
      <trkpt lat="47.79859" lon="5.93226">
        <ele>223</ele>
        <time>2018-12-03T22:56:59Z</time>
      </trkpt>
      <trkpt lat="47.79867" lon="5.93237">
        <ele>223</ele>
        <time>2018-12-03T22:57:59Z</time>
      </trkpt>
      <trkpt lat="47.79872" lon="5.93242">
        <ele>222</ele>
        <time>2018-12-03T22:58:59Z</time>
      </trkpt>
      <trkpt lat="47.79887" lon="5.93271">
        <ele>221</ele>
        <time>2018-12-03T22:59:59Z</time>
      </trkpt>
      <trkpt lat="47.7989" lon="5.93278">
        <ele>221</ele>
        <time>2018-12-03T23:00:59Z</time>
      </trkpt>
      <trkpt lat="47.79895" lon="5.93281">
        <ele>221</ele>
        <time>2018-12-03T23:01:59Z</time>
      </trkpt>
      <trkpt lat="47.79903" lon="5.93296">
        <ele>220</ele>
        <time>2018-12-03T23:02:59Z</time>
      </trkpt>
      <trkpt lat="47.79906" lon="5.93304">
        <ele>220</ele>
        <time>2018-12-03T23:03:59Z</time>
      </trkpt>
      <trkpt lat="47.79907" lon="5.9331">
        <ele>220</ele>
        <time>2018-12-03T23:04:59Z</time>
      </trkpt>
      <trkpt lat="47.79908" lon="5.9332">
        <ele>220</ele>
        <time>2018-12-03T23:05:59Z</time>
      </trkpt>
      <trkpt lat="47.79908" lon="5.93335">
        <ele>220</ele>
        <time>2018-12-03T23:06:59Z</time>
      </trkpt>
      <trkpt lat="47.79908" lon="5.93344">
        <ele>220</ele>
        <time>2018-12-03T23:07:59Z</time>
      </trkpt>
      <trkpt lat="47.79909" lon="5.93359">
        <ele>219</ele>
        <time>2018-12-03T23:08:59Z</time>
      </trkpt>
      <trkpt lat="47.7991" lon="5.93371">
        <ele>219</ele>
        <time>2018-12-03T23:09:59Z</time>
      </trkpt>
      <trkpt lat="47.79919" lon="5.93423">
        <ele>217</ele>
        <time>2018-12-03T23:10:59Z</time>
      </trkpt>
      <trkpt lat="47.7992" lon="5.93426">
        <ele>217</ele>
        <time>2018-12-03T23:11:59Z</time>
      </trkpt>
      <trkpt lat="47.7992" lon="5.93445">
        <ele>217</ele>
        <time>2018-12-03T23:12:59Z</time>
      </trkpt>
      <trkpt lat="47.79921" lon="5.93456">
        <ele>218</ele>
        <time>2018-12-03T23:13:59Z</time>
      </trkpt>
      <trkpt lat="47.79917" lon="5.93515">
        <ele>218</ele>
        <time>2018-12-03T23:14:59Z</time>
      </trkpt>
      <trkpt lat="47.79917" lon="5.93526">
        <ele>218</ele>
        <time>2018-12-03T23:15:59Z</time>
      </trkpt>
      <trkpt lat="47.79916" lon="5.93534">
        <ele>218</ele>
        <time>2018-12-03T23:16:59Z</time>
      </trkpt>
      <trkpt lat="47.79914" lon="5.93549">
        <ele>217</ele>
        <time>2018-12-03T23:17:59Z</time>
      </trkpt>
      <trkpt lat="47.79903" lon="5.93658">
        <ele>217</ele>
        <time>2018-12-03T23:18:59Z</time>
      </trkpt>
      <trkpt lat="47.79902" lon="5.93674">
        <ele>217</ele>
        <time>2018-12-03T23:19:59Z</time>
      </trkpt>
      <trkpt lat="47.79898" lon="5.93709">
        <ele>217</ele>
        <time>2018-12-03T23:20:59Z</time>
      </trkpt>
      <trkpt lat="47.79896" lon="5.9372">
        <ele>217</ele>
        <time>2018-12-03T23:21:59Z</time>
      </trkpt>
      <trkpt lat="47.79895" lon="5.93734">
        <ele>217</ele>
        <time>2018-12-03T23:22:59Z</time>
      </trkpt>
      <trkpt lat="47.79892" lon="5.93753">
        <ele>217</ele>
        <time>2018-12-03T23:23:59Z</time>
      </trkpt>
      <trkpt lat="47.7989" lon="5.93778">
        <ele>217</ele>
        <time>2018-12-03T23:24:59Z</time>
      </trkpt>
      <trkpt lat="47.79889" lon="5.93789">
        <ele>217</ele>
        <time>2018-12-03T23:25:59Z</time>
      </trkpt>
      <trkpt lat="47.79889" lon="5.93798">
        <ele>217</ele>
        <time>2018-12-03T23:26:59Z</time>
      </trkpt>
      <trkpt lat="47.79889" lon="5.93809">
        <ele>217</ele>
        <time>2018-12-03T23:27:59Z</time>
      </trkpt>
      <trkpt lat="47.79891" lon="5.93849">
        <ele>217</ele>
        <time>2018-12-03T23:28:59Z</time>
      </trkpt>
      <trkpt lat="47.79894" lon="5.93879">
        <ele>218</ele>
        <time>2018-12-03T23:29:59Z</time>
      </trkpt>
      <trkpt lat="47.79906" lon="5.93933">
        <ele>217</ele>
        <time>2018-12-03T23:30:59Z</time>
      </trkpt>
      <trkpt lat="47.7991" lon="5.93949">
        <ele>217</ele>
        <time>2018-12-03T23:31:59Z</time>
      </trkpt>
      <trkpt lat="47.79913" lon="5.93966">
        <ele>216</ele>
        <time>2018-12-03T23:32:59Z</time>
      </trkpt>
      <trkpt lat="47.79923" lon="5.94041">
        <ele>217</ele>
        <time>2018-12-03T23:33:59Z</time>
      </trkpt>
      <trkpt lat="47.79925" lon="5.94056">
        <ele>218</ele>
        <time>2018-12-03T23:34:59Z</time>
      </trkpt>
      <trkpt lat="47.79931" lon="5.94088">
        <ele>218</ele>
        <time>2018-12-03T23:35:59Z</time>
      </trkpt>
      <trkpt lat="47.79934" lon="5.94104">
        <ele>219</ele>
        <time>2018-12-03T23:36:59Z</time>
      </trkpt>
      <trkpt lat="47.79944" lon="5.9414">
        <ele>219</ele>
        <time>2018-12-03T23:37:59Z</time>
      </trkpt>
      <trkpt lat="47.79951" lon="5.94169">
        <ele>219</ele>
        <time>2018-12-03T23:38:59Z</time>
      </trkpt>
      <trkpt lat="47.79961" lon="5.94214">
        <ele>219</ele>
        <time>2018-12-03T23:39:59Z</time>
      </trkpt>
      <trkpt lat="47.79981" lon="5.94291">
        <ele>218</ele>
        <time>2018-12-03T23:40:59Z</time>
      </trkpt>
      <trkpt lat="47.79987" lon="5.94314">
        <ele>218</ele>
        <time>2018-12-03T23:41:59Z</time>
      </trkpt>
      <trkpt lat="47.7999" lon="5.94331">
        <ele>218</ele>
        <time>2018-12-03T23:42:59Z</time>
      </trkpt>
      <trkpt lat="47.79995" lon="5.94352">
        <ele>218</ele>
        <time>2018-12-03T23:43:59Z</time>
      </trkpt>
      <trkpt lat="47.79997" lon="5.94379">
        <ele>218</ele>
        <time>2018-12-03T23:44:59Z</time>
      </trkpt>
      <trkpt lat="47.79998" lon="5.94392">
        <ele>218</ele>
        <time>2018-12-03T23:45:59Z</time>
      </trkpt>
      <trkpt lat="47.79998" lon="5.94404">
        <ele>218</ele>
        <time>2018-12-03T23:46:59Z</time>
      </trkpt>
      <trkpt lat="47.79999" lon="5.94422">
        <ele>218</ele>
        <time>2018-12-03T23:47:59Z</time>
      </trkpt>
      <trkpt lat="47.80002" lon="5.94457">
        <ele>218</ele>
        <time>2018-12-03T23:48:59Z</time>
      </trkpt>
      <trkpt lat="47.80006" lon="5.94491">
        <ele>219</ele>
        <time>2018-12-03T23:49:59Z</time>
      </trkpt>
      <trkpt lat="47.80031" lon="5.94612">
        <ele>220</ele>
        <time>2018-12-03T23:50:59Z</time>
      </trkpt>
      <trkpt lat="47.80037" lon="5.94642">
        <ele>220</ele>
        <time>2018-12-03T23:51:59Z</time>
      </trkpt>
      <trkpt lat="47.80043" lon="5.94689">
        <ele>219</ele>
        <time>2018-12-03T23:52:59Z</time>
      </trkpt>
      <trkpt lat="47.80045" lon="5.94701">
        <ele>219</ele>
        <time>2018-12-03T23:53:59Z</time>
      </trkpt>
      <trkpt lat="47.80051" lon="5.94773">
        <ele>218</ele>
        <time>2018-12-03T23:54:59Z</time>
      </trkpt>
      <trkpt lat="47.80052" lon="5.9478">
        <ele>218</ele>
        <time>2018-12-03T23:55:59Z</time>
      </trkpt>
      <trkpt lat="47.80056" lon="5.94791">
        <ele>218</ele>
        <time>2018-12-03T23:56:59Z</time>
      </trkpt>
      <trkpt lat="47.80059" lon="5.94799">
        <ele>218</ele>
        <time>2018-12-03T23:57:59Z</time>
      </trkpt>
      <trkpt lat="47.80063" lon="5.94807">
        <ele>218</ele>
        <time>2018-12-03T23:58:59Z</time>
      </trkpt>
      <trkpt lat="47.80066" lon="5.94815">
        <ele>218</ele>
        <time>2018-12-03T23:59:59Z</time>
      </trkpt>
      <trkpt lat="47.80069" lon="5.94818">
        <ele>218</ele>
        <time>2018-12-04T00:00:59Z</time>
      </trkpt>
      <trkpt lat="47.80072" lon="5.94824">
        <ele>217</ele>
        <time>2018-12-04T00:01:59Z</time>
      </trkpt>
      <trkpt lat="47.80081" lon="5.9484">
        <ele>217</ele>
        <time>2018-12-04T00:02:59Z</time>
      </trkpt>
      <trkpt lat="47.80094" lon="5.9486">
        <ele>217</ele>
        <time>2018-12-04T00:03:59Z</time>
      </trkpt>
      <trkpt lat="47.8011" lon="5.94895">
        <ele>218</ele>
        <time>2018-12-04T00:04:59Z</time>
      </trkpt>
      <trkpt lat="47.80124" lon="5.94933">
        <ele>218</ele>
        <time>2018-12-04T00:05:59Z</time>
      </trkpt>
      <trkpt lat="47.80134" lon="5.94967">
        <ele>219</ele>
        <time>2018-12-04T00:06:59Z</time>
      </trkpt>
      <trkpt lat="47.80144" lon="5.95007">
        <ele>219</ele>
        <time>2018-12-04T00:07:59Z</time>
      </trkpt>
      <trkpt lat="47.8015" lon="5.95042">
        <ele>219</ele>
        <time>2018-12-04T00:08:59Z</time>
      </trkpt>
      <trkpt lat="47.80156" lon="5.95073">
        <ele>219</ele>
        <time>2018-12-04T00:09:59Z</time>
      </trkpt>
      <trkpt lat="47.80164" lon="5.95133">
        <ele>218</ele>
        <time>2018-12-04T00:10:59Z</time>
      </trkpt>
      <trkpt lat="47.80171" lon="5.95198">
        <ele>217</ele>
        <time>2018-12-04T00:11:59Z</time>
      </trkpt>
      <trkpt lat="47.80178" lon="5.95246">
        <ele>217</ele>
        <time>2018-12-04T00:12:59Z</time>
      </trkpt>
      <trkpt lat="47.80185" lon="5.95279">
        <ele>217</ele>
        <time>2018-12-04T00:13:59Z</time>
      </trkpt>
      <trkpt lat="47.80193" lon="5.95298">
        <ele>216</ele>
        <time>2018-12-04T00:14:59Z</time>
      </trkpt>
      <trkpt lat="47.80204" lon="5.9532">
        <ele>215</ele>
        <time>2018-12-04T00:15:59Z</time>
      </trkpt>
      <trkpt lat="47.80215" lon="5.9534">
        <ele>214</ele>
        <time>2018-12-04T00:16:59Z</time>
      </trkpt>
      <trkpt lat="47.80222" lon="5.95362">
        <ele>214</ele>
        <time>2018-12-04T00:17:59Z</time>
      </trkpt>
      <trkpt lat="47.80229" lon="5.95387">
        <ele>214</ele>
        <time>2018-12-04T00:18:59Z</time>
      </trkpt>
      <trkpt lat="47.80233" lon="5.95414">
        <ele>213</ele>
        <time>2018-12-04T00:19:59Z</time>
      </trkpt>
      <trkpt lat="47.80238" lon="5.95459">
        <ele>213</ele>
        <time>2018-12-04T00:20:59Z</time>
      </trkpt>
      <trkpt lat="47.80241" lon="5.95512">
        <ele>214</ele>
        <time>2018-12-04T00:21:59Z</time>
      </trkpt>
      <trkpt lat="47.80244" lon="5.95544">
        <ele>215</ele>
        <time>2018-12-04T00:22:59Z</time>
      </trkpt>
      <trkpt lat="47.80248" lon="5.95572">
        <ele>216</ele>
        <time>2018-12-04T00:23:59Z</time>
      </trkpt>
      <trkpt lat="47.80259" lon="5.95625">
        <ele>216</ele>
        <time>2018-12-04T00:24:59Z</time>
      </trkpt>
      <trkpt lat="47.80288" lon="5.95733">
        <ele>217</ele>
        <time>2018-12-04T00:25:59Z</time>
      </trkpt>
      <trkpt lat="47.80294" lon="5.95764">
        <ele>217</ele>
        <time>2018-12-04T00:26:59Z</time>
      </trkpt>
      <trkpt lat="47.80299" lon="5.958">
        <ele>216</ele>
        <time>2018-12-04T00:27:59Z</time>
      </trkpt>
      <trkpt lat="47.80302" lon="5.95836">
        <ele>216</ele>
        <time>2018-12-04T00:28:59Z</time>
      </trkpt>
      <trkpt lat="47.80302" lon="5.95868">
        <ele>216</ele>
        <time>2018-12-04T00:29:59Z</time>
      </trkpt>
      <trkpt lat="47.80299" lon="5.95901">
        <ele>217</ele>
        <time>2018-12-04T00:30:59Z</time>
      </trkpt>
      <trkpt lat="47.80297" lon="5.95927">
        <ele>217</ele>
        <time>2018-12-04T00:31:59Z</time>
      </trkpt>
      <trkpt lat="47.80297" lon="5.95975">
        <ele>217</ele>
        <time>2018-12-04T00:32:59Z</time>
      </trkpt>
      <trkpt lat="47.80296" lon="5.96019">
        <ele>217</ele>
        <time>2018-12-04T00:33:59Z</time>
      </trkpt>
      <trkpt lat="47.80293" lon="5.96057">
        <ele>217</ele>
        <time>2018-12-04T00:34:59Z</time>
      </trkpt>
      <trkpt lat="47.80288" lon="5.96091">
        <ele>217</ele>
        <time>2018-12-04T00:35:59Z</time>
      </trkpt>
      <trkpt lat="47.80281" lon="5.96128">
        <ele>216</ele>
        <time>2018-12-04T00:36:59Z</time>
      </trkpt>
      <trkpt lat="47.8026" lon="5.96215">
        <ele>215</ele>
        <time>2018-12-04T00:37:59Z</time>
      </trkpt>
      <trkpt lat="47.80258" lon="5.96232">
        <ele>215</ele>
        <time>2018-12-04T00:38:59Z</time>
      </trkpt>
      <trkpt lat="47.80257" lon="5.96259">
        <ele>215</ele>
        <time>2018-12-04T00:39:59Z</time>
      </trkpt>
      <trkpt lat="47.80258" lon="5.96285">
        <ele>215</ele>
        <time>2018-12-04T00:40:59Z</time>
      </trkpt>
      <trkpt lat="47.80262" lon="5.96315">
        <ele>215</ele>
        <time>2018-12-04T00:41:59Z</time>
      </trkpt>
      <trkpt lat="47.80262" lon="5.96316">
        <ele>215</ele>
        <time>2018-12-04T00:42:59Z</time>
      </trkpt>
      <trkpt lat="47.80274" lon="5.9636">
        <ele>216</ele>
        <time>2018-12-04T00:43:59Z</time>
      </trkpt>
      <trkpt lat="47.80279" lon="5.96372">
        <ele>216</ele>
        <time>2018-12-04T00:44:59Z</time>
      </trkpt>
      <trkpt lat="47.80293" lon="5.96398">
        <ele>216</ele>
        <time>2018-12-04T00:45:59Z</time>
      </trkpt>
      <trkpt lat="47.80314" lon="5.96431">
        <ele>217</ele>
        <time>2018-12-04T00:46:59Z</time>
      </trkpt>
      <trkpt lat="47.80339" lon="5.96465">
        <ele>218</ele>
        <time>2018-12-04T00:47:59Z</time>
      </trkpt>
      <trkpt lat="47.8035" lon="5.96482">
        <ele>218</ele>
        <time>2018-12-04T00:48:59Z</time>
      </trkpt>
      <trkpt lat="47.80358" lon="5.96495">
        <ele>218</ele>
        <time>2018-12-04T00:49:59Z</time>
      </trkpt>
      <trkpt lat="47.8037" lon="5.96519">
        <ele>219</ele>
        <time>2018-12-04T00:50:59Z</time>
      </trkpt>
      <trkpt lat="47.80378" lon="5.9654">
        <ele>219</ele>
        <time>2018-12-04T00:51:59Z</time>
      </trkpt>
      <trkpt lat="47.80388" lon="5.96572">
        <ele>220</ele>
        <time>2018-12-04T00:52:59Z</time>
      </trkpt>
      <trkpt lat="47.80416" lon="5.96683">
        <ele>220</ele>
        <time>2018-12-04T00:53:59Z</time>
      </trkpt>
      <trkpt lat="47.80427" lon="5.9672">
        <ele>219</ele>
        <time>2018-12-04T00:54:59Z</time>
      </trkpt>
      <trkpt lat="47.80433" lon="5.96754">
        <ele>219</ele>
        <time>2018-12-04T00:55:59Z</time>
      </trkpt>
      <trkpt lat="47.80437" lon="5.968">
        <ele>221</ele>
        <time>2018-12-04T00:56:59Z</time>
      </trkpt>
      <trkpt lat="47.80441" lon="5.96826">
        <ele>222</ele>
        <time>2018-12-04T00:57:59Z</time>
      </trkpt>
      <trkpt lat="47.80446" lon="5.96853">
        <ele>223</ele>
        <time>2018-12-04T00:58:59Z</time>
      </trkpt>
      <trkpt lat="47.80464" lon="5.96925">
        <ele>224</ele>
        <time>2018-12-04T00:59:59Z</time>
      </trkpt>
      <trkpt lat="47.80469" lon="5.96949">
        <ele>224</ele>
        <time>2018-12-04T01:00:59Z</time>
      </trkpt>
      <trkpt lat="47.80494" lon="5.97034">
        <ele>222</ele>
        <time>2018-12-04T01:01:59Z</time>
      </trkpt>
      <trkpt lat="47.80508" lon="5.9709">
        <ele>223</ele>
        <time>2018-12-04T01:02:59Z</time>
      </trkpt>
      <trkpt lat="47.80516" lon="5.97114">
        <ele>224</ele>
        <time>2018-12-04T01:03:59Z</time>
      </trkpt>
      <trkpt lat="47.80525" lon="5.97136">
        <ele>224</ele>
        <time>2018-12-04T01:04:59Z</time>
      </trkpt>
      <trkpt lat="47.80536" lon="5.97165">
        <ele>223</ele>
        <time>2018-12-04T01:05:59Z</time>
      </trkpt>
      <trkpt lat="47.80547" lon="5.97189">
        <ele>222</ele>
        <time>2018-12-04T01:06:59Z</time>
      </trkpt>
      <trkpt lat="47.80555" lon="5.97203">
        <ele>220</ele>
        <time>2018-12-04T01:07:59Z</time>
      </trkpt>
      <trkpt lat="47.80566" lon="5.97221">
        <ele>218</ele>
        <time>2018-12-04T01:08:59Z</time>
      </trkpt>
      <trkpt lat="47.80579" lon="5.97246">
        <ele>216</ele>
        <time>2018-12-04T01:09:59Z</time>
      </trkpt>
      <trkpt lat="47.80587" lon="5.97265">
        <ele>216</ele>
        <time>2018-12-04T01:10:59Z</time>
      </trkpt>
      <trkpt lat="47.8059" lon="5.97283">
        <ele>216</ele>
        <time>2018-12-04T01:11:59Z</time>
      </trkpt>
      <trkpt lat="47.80591" lon="5.97301">
        <ele>217</ele>
        <time>2018-12-04T01:12:59Z</time>
      </trkpt>
      <trkpt lat="47.80592" lon="5.97355">
        <ele>219</ele>
        <time>2018-12-04T01:13:59Z</time>
      </trkpt>
      <trkpt lat="47.80592" lon="5.97389">
        <ele>219</ele>
        <time>2018-12-04T01:14:59Z</time>
      </trkpt>
      <trkpt lat="47.80592" lon="5.9741">
        <ele>219</ele>
        <time>2018-12-04T01:15:59Z</time>
      </trkpt>
      <trkpt lat="47.80591" lon="5.97461">
        <ele>220</ele>
        <time>2018-12-04T01:16:59Z</time>
      </trkpt>
      <trkpt lat="47.8059" lon="5.97517">
        <ele>222</ele>
        <time>2018-12-04T01:17:59Z</time>
      </trkpt>
      <trkpt lat="47.8059" lon="5.97593">
        <ele>224</ele>
        <time>2018-12-04T01:18:59Z</time>
      </trkpt>
      <trkpt lat="47.8059" lon="5.97621">
        <ele>224</ele>
        <time>2018-12-04T01:19:59Z</time>
      </trkpt>
      <trkpt lat="47.80593" lon="5.97654">
        <ele>223</ele>
        <time>2018-12-04T01:20:59Z</time>
      </trkpt>
      <trkpt lat="47.80601" lon="5.97714">
        <ele>222</ele>
        <time>2018-12-04T01:21:59Z</time>
      </trkpt>
      <trkpt lat="47.80605" lon="5.97736">
        <ele>222</ele>
        <time>2018-12-04T01:22:59Z</time>
      </trkpt>
      <trkpt lat="47.80609" lon="5.97763">
        <ele>222</ele>
        <time>2018-12-04T01:23:59Z</time>
      </trkpt>
      <trkpt lat="47.80598" lon="5.97785">
        <ele>224</ele>
        <time>2018-12-04T01:24:59Z</time>
      </trkpt>
      <trkpt lat="47.80595" lon="5.978">
        <ele>225</ele>
        <time>2018-12-04T01:25:59Z</time>
      </trkpt>
      <trkpt lat="47.8059" lon="5.97862">
        <ele>226</ele>
        <time>2018-12-04T01:26:59Z</time>
      </trkpt>
      <trkpt lat="47.80582" lon="5.97923">
        <ele>224</ele>
        <time>2018-12-04T01:27:59Z</time>
      </trkpt>
      <trkpt lat="47.80571" lon="5.97991">
        <ele>223</ele>
        <time>2018-12-04T01:28:59Z</time>
      </trkpt>
      <trkpt lat="47.80564" lon="5.98021">
        <ele>224</ele>
        <time>2018-12-04T01:29:59Z</time>
      </trkpt>
      <trkpt lat="47.8056" lon="5.98042">
        <ele>224</ele>
        <time>2018-12-04T01:30:59Z</time>
      </trkpt>
      <trkpt lat="47.80546" lon="5.98084">
        <ele>225</ele>
        <time>2018-12-04T01:31:59Z</time>
      </trkpt>
      <trkpt lat="47.80529" lon="5.98129">
        <ele>223</ele>
        <time>2018-12-04T01:32:59Z</time>
      </trkpt>
      <trkpt lat="47.80525" lon="5.98144">
        <ele>222</ele>
        <time>2018-12-04T01:33:59Z</time>
      </trkpt>
      <trkpt lat="47.80517" lon="5.98166">
        <ele>220</ele>
        <time>2018-12-04T01:34:59Z</time>
      </trkpt>
      <trkpt lat="47.80514" lon="5.98177">
        <ele>219</ele>
        <time>2018-12-04T01:35:59Z</time>
      </trkpt>
      <trkpt lat="47.80502" lon="5.98206">
        <ele>218</ele>
        <time>2018-12-04T01:36:59Z</time>
      </trkpt>
      <trkpt lat="47.80481" lon="5.98267">
        <ele>219</ele>
        <time>2018-12-04T01:37:59Z</time>
      </trkpt>
      <trkpt lat="47.80475" lon="5.98287">
        <ele>218</ele>
        <time>2018-12-04T01:38:59Z</time>
      </trkpt>
      <trkpt lat="47.80461" lon="5.9832">
        <ele>217</ele>
        <time>2018-12-04T01:39:59Z</time>
      </trkpt>
      <trkpt lat="47.80448" lon="5.98343">
        <ele>216</ele>
        <time>2018-12-04T01:40:59Z</time>
      </trkpt>
      <trkpt lat="47.80434" lon="5.98364">
        <ele>216</ele>
        <time>2018-12-04T01:41:59Z</time>
      </trkpt>
      <trkpt lat="47.80414" lon="5.98391">
        <ele>214</ele>
        <time>2018-12-04T01:42:59Z</time>
      </trkpt>
      <trkpt lat="47.80239" lon="5.9858">
        <ele>221</ele>
        <time>2018-12-04T01:43:59Z</time>
      </trkpt>
      <trkpt lat="47.80207" lon="5.98617">
        <ele>224</ele>
        <time>2018-12-04T01:44:59Z</time>
      </trkpt>
      <trkpt lat="47.80168" lon="5.98656">
        <ele>223</ele>
        <time>2018-12-04T01:45:59Z</time>
      </trkpt>
      <trkpt lat="47.8014" lon="5.98688">
        <ele>224</ele>
        <time>2018-12-04T01:46:59Z</time>
      </trkpt>
      <trkpt lat="47.80076" lon="5.98757">
        <ele>227</ele>
        <time>2018-12-04T01:47:59Z</time>
      </trkpt>
      <trkpt lat="47.80031" lon="5.98805">
        <ele>229</ele>
        <time>2018-12-04T01:48:59Z</time>
      </trkpt>
      <trkpt lat="47.79976" lon="5.98877">
        <ele>224</ele>
        <time>2018-12-04T01:49:59Z</time>
      </trkpt>
      <trkpt lat="47.79937" lon="5.98921">
        <ele>219</ele>
        <time>2018-12-04T01:50:59Z</time>
      </trkpt>
      <trkpt lat="47.79906" lon="5.98952">
        <ele>218</ele>
        <time>2018-12-04T01:51:59Z</time>
      </trkpt>
      <trkpt lat="47.79878" lon="5.98978">
        <ele>218</ele>
        <time>2018-12-04T01:52:59Z</time>
      </trkpt>
      <trkpt lat="47.79826" lon="5.99026">
        <ele>217</ele>
        <time>2018-12-04T01:53:59Z</time>
      </trkpt>
      <trkpt lat="47.79715" lon="5.99105">
        <ele>219</ele>
        <time>2018-12-04T01:54:59Z</time>
      </trkpt>
      <trkpt lat="47.79676" lon="5.99132">
        <ele>219</ele>
        <time>2018-12-04T01:55:59Z</time>
      </trkpt>
      <trkpt lat="47.79633" lon="5.99164">
        <ele>221</ele>
        <time>2018-12-04T01:56:59Z</time>
      </trkpt>
      <trkpt lat="47.79443" lon="5.993">
        <ele>221</ele>
        <time>2018-12-04T01:57:59Z</time>
      </trkpt>
      <trkpt lat="47.79395" lon="5.99337">
        <ele>219</ele>
        <time>2018-12-04T01:58:59Z</time>
      </trkpt>
      <trkpt lat="47.79337" lon="5.99376">
        <ele>221</ele>
        <time>2018-12-04T01:59:59Z</time>
      </trkpt>
      <trkpt lat="47.79308" lon="5.99397">
        <ele>222</ele>
        <time>2018-12-04T02:00:59Z</time>
      </trkpt>
      <trkpt lat="47.79283" lon="5.99423">
        <ele>223</ele>
        <time>2018-12-04T02:01:59Z</time>
      </trkpt>
      <trkpt lat="47.79247" lon="5.99465">
        <ele>221</ele>
        <time>2018-12-04T02:02:59Z</time>
      </trkpt>
      <trkpt lat="47.7921" lon="5.99507">
        <ele>219</ele>
        <time>2018-12-04T02:03:59Z</time>
      </trkpt>
      <trkpt lat="47.79178" lon="5.99538">
        <ele>219</ele>
        <time>2018-12-04T02:04:59Z</time>
      </trkpt>
      <trkpt lat="47.79134" lon="5.99587">
        <ele>216</ele>
        <time>2018-12-04T02:05:59Z</time>
      </trkpt>
      <trkpt lat="47.79052" lon="5.9967">
        <ele>216</ele>
        <time>2018-12-04T02:06:59Z</time>
      </trkpt>
      <trkpt lat="47.79035" lon="5.99684">
        <ele>216</ele>
        <time>2018-12-04T02:07:59Z</time>
      </trkpt>
      <trkpt lat="47.79016" lon="5.99696">
        <ele>217</ele>
        <time>2018-12-04T02:08:59Z</time>
      </trkpt>
      <trkpt lat="47.7899" lon="5.99707">
        <ele>217</ele>
        <time>2018-12-04T02:09:59Z</time>
      </trkpt>
      <trkpt lat="47.78965" lon="5.99714">
        <ele>216</ele>
        <time>2018-12-04T02:10:59Z</time>
      </trkpt>
      <trkpt lat="47.7895" lon="5.99717">
        <ele>216</ele>
        <time>2018-12-04T02:11:59Z</time>
      </trkpt>
      <trkpt lat="47.7894" lon="5.99718">
        <ele>216</ele>
        <time>2018-12-04T02:12:59Z</time>
      </trkpt>
      <trkpt lat="47.78929" lon="5.99711">
        <ele>217</ele>
        <time>2018-12-04T02:13:59Z</time>
      </trkpt>
      <trkpt lat="47.78916" lon="5.99704">
        <ele>217</ele>
        <time>2018-12-04T02:14:59Z</time>
      </trkpt>
      <trkpt lat="47.78917" lon="5.99713">
        <ele>217</ele>
        <time>2018-12-04T02:15:59Z</time>
      </trkpt>
      <trkpt lat="47.78917" lon="5.99718">
        <ele>217</ele>
        <time>2018-12-04T02:16:59Z</time>
      </trkpt>
      <trkpt lat="47.78916" lon="5.99727">
        <ele>216</ele>
        <time>2018-12-04T02:17:59Z</time>
      </trkpt>
      <trkpt lat="47.78914" lon="5.99735">
        <ele>216</ele>
        <time>2018-12-04T02:18:59Z</time>
      </trkpt>
      <trkpt lat="47.78905" lon="5.99757">
        <ele>216</ele>
        <time>2018-12-04T02:19:59Z</time>
      </trkpt>
      <trkpt lat="47.78884" lon="5.99799">
        <ele>215</ele>
        <time>2018-12-04T02:20:59Z</time>
      </trkpt>
      <trkpt lat="47.78858" lon="5.99852">
        <ele>215</ele>
        <time>2018-12-04T02:21:59Z</time>
      </trkpt>
      <trkpt lat="47.78803" lon="5.99973">
        <ele>214</ele>
        <time>2018-12-04T02:22:59Z</time>
      </trkpt>
      <trkpt lat="47.78786" lon="6.00009">
        <ele>215</ele>
        <time>2018-12-04T02:23:59Z</time>
      </trkpt>
      <trkpt lat="47.78771" lon="6.00036">
        <ele>214</ele>
        <time>2018-12-04T02:24:59Z</time>
      </trkpt>
      <trkpt lat="47.78756" lon="6.00057">
        <ele>214</ele>
        <time>2018-12-04T02:25:59Z</time>
      </trkpt>
      <trkpt lat="47.78729" lon="6.00088">
        <ele>213</ele>
        <time>2018-12-04T02:26:59Z</time>
      </trkpt>
      <trkpt lat="47.78708" lon="6.00106">
        <ele>212</ele>
        <time>2018-12-04T02:27:59Z</time>
      </trkpt>
      <trkpt lat="47.78678" lon="6.00127">
        <ele>211</ele>
        <time>2018-12-04T02:28:59Z</time>
      </trkpt>
      <trkpt lat="47.78655" lon="6.00141">
        <ele>210</ele>
        <time>2018-12-04T02:29:59Z</time>
      </trkpt>
      <trkpt lat="47.7864" lon="6.00146">
        <ele>210</ele>
        <time>2018-12-04T02:30:59Z</time>
      </trkpt>
      <trkpt lat="47.78622" lon="6.0015">
        <ele>210</ele>
        <time>2018-12-04T02:31:59Z</time>
      </trkpt>
      <trkpt lat="47.78593" lon="6.00156">
        <ele>210</ele>
        <time>2018-12-04T02:32:59Z</time>
      </trkpt>
      <trkpt lat="47.78571" lon="6.00162">
        <ele>211</ele>
        <time>2018-12-04T02:33:59Z</time>
      </trkpt>
      <trkpt lat="47.78559" lon="6.00165">
        <ele>211</ele>
        <time>2018-12-04T02:34:59Z</time>
      </trkpt>
      <trkpt lat="47.78516" lon="6.00179">
        <ele>214</ele>
        <time>2018-12-04T02:35:59Z</time>
      </trkpt>
      <trkpt lat="47.78511" lon="6.00181">
        <ele>214</ele>
        <time>2018-12-04T02:36:59Z</time>
      </trkpt>
      <trkpt lat="47.78418" lon="6.00238">
        <ele>220</ele>
        <time>2018-12-04T02:37:59Z</time>
      </trkpt>
      <trkpt lat="47.78356" lon="6.00277">
        <ele>219</ele>
        <time>2018-12-04T02:38:59Z</time>
      </trkpt>
      <trkpt lat="47.78324" lon="6.00302">
        <ele>219</ele>
        <time>2018-12-04T02:39:59Z</time>
      </trkpt>
      <trkpt lat="47.78298" lon="6.00321">
        <ele>218</ele>
        <time>2018-12-04T02:40:59Z</time>
      </trkpt>
      <trkpt lat="47.78196" lon="6.00389">
        <ele>212</ele>
        <time>2018-12-04T02:41:59Z</time>
      </trkpt>
      <trkpt lat="47.78182" lon="6.00401">
        <ele>211</ele>
        <time>2018-12-04T02:42:59Z</time>
      </trkpt>
      <trkpt lat="47.78171" lon="6.00412">
        <ele>210</ele>
        <time>2018-12-04T02:43:59Z</time>
      </trkpt>
      <trkpt lat="47.78136" lon="6.00459">
        <ele>209</ele>
        <time>2018-12-04T02:44:59Z</time>
      </trkpt>
      <trkpt lat="47.78118" lon="6.00486">
        <ele>210</ele>
        <time>2018-12-04T02:45:59Z</time>
      </trkpt>
      <trkpt lat="47.78098" lon="6.0051">
        <ele>210</ele>
        <time>2018-12-04T02:46:59Z</time>
      </trkpt>
      <trkpt lat="47.78085" lon="6.00526">
        <ele>210</ele>
        <time>2018-12-04T02:47:59Z</time>
      </trkpt>
      <trkpt lat="47.78082" lon="6.00528">
        <ele>210</ele>
        <time>2018-12-04T02:48:59Z</time>
      </trkpt>
      <trkpt lat="47.7808" lon="6.00531">
        <ele>210</ele>
        <time>2018-12-04T02:49:59Z</time>
      </trkpt>
      <trkpt lat="47.78074" lon="6.00536">
        <ele>209</ele>
        <time>2018-12-04T02:50:59Z</time>
      </trkpt>
      <trkpt lat="47.78068" lon="6.00539">
        <ele>209</ele>
        <time>2018-12-04T02:51:59Z</time>
      </trkpt>
      <trkpt lat="47.78058" lon="6.00541">
        <ele>209</ele>
        <time>2018-12-04T02:52:59Z</time>
      </trkpt>
      <trkpt lat="47.78014" lon="6.00542">
        <ele>209</ele>
        <time>2018-12-04T02:53:59Z</time>
      </trkpt>
      <trkpt lat="47.77981" lon="6.00543">
        <ele>209</ele>
        <time>2018-12-04T02:54:59Z</time>
      </trkpt>
      <trkpt lat="47.77973" lon="6.00542">
        <ele>209</ele>
        <time>2018-12-04T02:55:59Z</time>
      </trkpt>
      <trkpt lat="47.77967" lon="6.00542">
        <ele>210</ele>
        <time>2018-12-04T02:56:59Z</time>
      </trkpt>
      <trkpt lat="47.7796" lon="6.0054">
        <ele>210</ele>
        <time>2018-12-04T02:57:59Z</time>
      </trkpt>
      <trkpt lat="47.77932" lon="6.00529">
        <ele>211</ele>
        <time>2018-12-04T02:58:59Z</time>
      </trkpt>
      <trkpt lat="47.7786" lon="6.00492">
        <ele>218</ele>
        <time>2018-12-04T02:59:59Z</time>
      </trkpt>
      <trkpt lat="47.77827" lon="6.00478">
        <ele>220</ele>
        <time>2018-12-04T03:00:59Z</time>
      </trkpt>
      <trkpt lat="47.77799" lon="6.00471">
        <ele>220</ele>
        <time>2018-12-04T03:01:59Z</time>
      </trkpt>
      <trkpt lat="47.77786" lon="6.00473">
        <ele>221</ele>
        <time>2018-12-04T03:02:59Z</time>
      </trkpt>
      <trkpt lat="47.77774" lon="6.00481">
        <ele>222</ele>
        <time>2018-12-04T03:03:59Z</time>
      </trkpt>
      <trkpt lat="47.77766" lon="6.00489">
        <ele>223</ele>
        <time>2018-12-04T03:04:59Z</time>
      </trkpt>
      <trkpt lat="47.77759" lon="6.00501">
        <ele>224</ele>
        <time>2018-12-04T03:05:59Z</time>
      </trkpt>
      <trkpt lat="47.77748" lon="6.00524">
        <ele>223</ele>
        <time>2018-12-04T03:06:59Z</time>
      </trkpt>
      <trkpt lat="47.77734" lon="6.00546">
        <ele>222</ele>
        <time>2018-12-04T03:07:59Z</time>
      </trkpt>
      <trkpt lat="47.77722" lon="6.00559">
        <ele>222</ele>
        <time>2018-12-04T03:08:59Z</time>
      </trkpt>
      <trkpt lat="47.77706" lon="6.00573">
        <ele>223</ele>
        <time>2018-12-04T03:09:59Z</time>
      </trkpt>
      <trkpt lat="47.77685" lon="6.00591">
        <ele>224</ele>
        <time>2018-12-04T03:10:59Z</time>
      </trkpt>
      <trkpt lat="47.77666" lon="6.00604">
        <ele>225</ele>
        <time>2018-12-04T03:11:59Z</time>
      </trkpt>
      <trkpt lat="47.77651" lon="6.00611">
        <ele>225</ele>
        <time>2018-12-04T03:12:59Z</time>
      </trkpt>
      <trkpt lat="47.77628" lon="6.00618">
        <ele>225</ele>
        <time>2018-12-04T03:13:59Z</time>
      </trkpt>
      <trkpt lat="47.77599" lon="6.00624">
        <ele>226</ele>
        <time>2018-12-04T03:14:59Z</time>
      </trkpt>
      <trkpt lat="47.77556" lon="6.00633">
        <ele>228</ele>
        <time>2018-12-04T03:15:59Z</time>
      </trkpt>
      <trkpt lat="47.77469" lon="6.00646">
        <ele>233</ele>
        <time>2018-12-04T03:16:59Z</time>
      </trkpt>
      <trkpt lat="47.77355" lon="6.00668">
        <ele>231</ele>
        <time>2018-12-04T03:17:59Z</time>
      </trkpt>
      <trkpt lat="47.77332" lon="6.00672">
        <ele>230</ele>
        <time>2018-12-04T03:18:59Z</time>
      </trkpt>
      <trkpt lat="47.77301" lon="6.00679">
        <ele>230</ele>
        <time>2018-12-04T03:19:59Z</time>
      </trkpt>
      <trkpt lat="47.77288" lon="6.00682">
        <ele>229</ele>
        <time>2018-12-04T03:20:59Z</time>
      </trkpt>
      <trkpt lat="47.77281" lon="6.00682">
        <ele>229</ele>
        <time>2018-12-04T03:21:59Z</time>
      </trkpt>
      <trkpt lat="47.77267" lon="6.00682">
        <ele>229</ele>
        <time>2018-12-04T03:22:59Z</time>
      </trkpt>
      <trkpt lat="47.77256" lon="6.00681">
        <ele>228</ele>
        <time>2018-12-04T03:23:59Z</time>
      </trkpt>
      <trkpt lat="47.77241" lon="6.00676">
        <ele>228</ele>
        <time>2018-12-04T03:24:59Z</time>
      </trkpt>
      <trkpt lat="47.77212" lon="6.00665">
        <ele>227</ele>
        <time>2018-12-04T03:25:59Z</time>
      </trkpt>
      <trkpt lat="47.77173" lon="6.00648">
        <ele>225</ele>
        <time>2018-12-04T03:26:59Z</time>
      </trkpt>
      <trkpt lat="47.77128" lon="6.00628">
        <ele>226</ele>
        <time>2018-12-04T03:27:59Z</time>
      </trkpt>
      <trkpt lat="47.77083" lon="6.0061">
        <ele>227</ele>
        <time>2018-12-04T03:28:59Z</time>
      </trkpt>
      <trkpt lat="47.77038" lon="6.0059">
        <ele>227</ele>
        <time>2018-12-04T03:29:59Z</time>
      </trkpt>
      <trkpt lat="47.76995" lon="6.00571">
        <ele>228</ele>
        <time>2018-12-04T03:30:59Z</time>
      </trkpt>
      <trkpt lat="47.7693" lon="6.00547">
        <ele>231</ele>
        <time>2018-12-04T03:31:59Z</time>
      </trkpt>
      <trkpt lat="47.7691" lon="6.00542">
        <ele>232</ele>
        <time>2018-12-04T03:32:59Z</time>
      </trkpt>
      <trkpt lat="47.76897" lon="6.0054">
        <ele>233</ele>
        <time>2018-12-04T03:33:59Z</time>
      </trkpt>
      <trkpt lat="47.76835" lon="6.00543">
        <ele>236</ele>
        <time>2018-12-04T03:34:59Z</time>
      </trkpt>
      <trkpt lat="47.76792" lon="6.00545">
        <ele>236</ele>
        <time>2018-12-04T03:35:59Z</time>
      </trkpt>
      <trkpt lat="47.76718" lon="6.00547">
        <ele>237</ele>
        <time>2018-12-04T03:36:59Z</time>
      </trkpt>
      <trkpt lat="47.76698" lon="6.00548">
        <ele>237</ele>
        <time>2018-12-04T03:37:59Z</time>
      </trkpt>
      <trkpt lat="47.76691" lon="6.00547">
        <ele>237</ele>
        <time>2018-12-04T03:38:59Z</time>
      </trkpt>
      <trkpt lat="47.76688" lon="6.00545">
        <ele>237</ele>
        <time>2018-12-04T03:39:59Z</time>
      </trkpt>
      <trkpt lat="47.76684" lon="6.00542">
        <ele>237</ele>
        <time>2018-12-04T03:40:59Z</time>
      </trkpt>
      <trkpt lat="47.76679" lon="6.00547">
        <ele>237</ele>
        <time>2018-12-04T03:41:59Z</time>
      </trkpt>
      <trkpt lat="47.76675" lon="6.00551">
        <ele>236</ele>
        <time>2018-12-04T03:42:59Z</time>
      </trkpt>
      <trkpt lat="47.76665" lon="6.00559">
        <ele>236</ele>
        <time>2018-12-04T03:43:59Z</time>
      </trkpt>
      <trkpt lat="47.76652" lon="6.00566">
        <ele>237</ele>
        <time>2018-12-04T03:44:59Z</time>
      </trkpt>
      <trkpt lat="47.76638" lon="6.00571">
        <ele>237</ele>
        <time>2018-12-04T03:45:59Z</time>
      </trkpt>
      <trkpt lat="47.7655" lon="6.00593">
        <ele>238</ele>
        <time>2018-12-04T03:46:59Z</time>
      </trkpt>
      <trkpt lat="47.7654" lon="6.00596">
        <ele>238</ele>
        <time>2018-12-04T03:47:59Z</time>
      </trkpt>
      <trkpt lat="47.76512" lon="6.00609">
        <ele>237</ele>
        <time>2018-12-04T03:48:59Z</time>
      </trkpt>
      <trkpt lat="47.76486" lon="6.00623">
        <ele>237</ele>
        <time>2018-12-04T03:49:59Z</time>
      </trkpt>
      <trkpt lat="47.76463" lon="6.00638">
        <ele>236</ele>
        <time>2018-12-04T03:50:59Z</time>
      </trkpt>
      <trkpt lat="47.76445" lon="6.00652">
        <ele>236</ele>
        <time>2018-12-04T03:51:59Z</time>
      </trkpt>
      <trkpt lat="47.76427" lon="6.00668">
        <ele>235</ele>
        <time>2018-12-04T03:52:59Z</time>
      </trkpt>
      <trkpt lat="47.76382" lon="6.00721">
        <ele>236</ele>
        <time>2018-12-04T03:53:59Z</time>
      </trkpt>
      <trkpt lat="47.76352" lon="6.00758">
        <ele>239</ele>
        <time>2018-12-04T03:54:59Z</time>
      </trkpt>
      <trkpt lat="47.76328" lon="6.00789">
        <ele>239</ele>
        <time>2018-12-04T03:55:59Z</time>
      </trkpt>
      <trkpt lat="47.76305" lon="6.00824">
        <ele>239</ele>
        <time>2018-12-04T03:56:59Z</time>
      </trkpt>
      <trkpt lat="47.7629" lon="6.00841">
        <ele>240</ele>
        <time>2018-12-04T03:57:59Z</time>
      </trkpt>
      <trkpt lat="47.76283" lon="6.00848">
        <ele>240</ele>
        <time>2018-12-04T03:58:59Z</time>
      </trkpt>
      <trkpt lat="47.76261" lon="6.00865">
        <ele>240</ele>
        <time>2018-12-04T03:59:59Z</time>
      </trkpt>
      <trkpt lat="47.76225" lon="6.00884">
        <ele>240</ele>
        <time>2018-12-04T04:00:59Z</time>
      </trkpt>
      <trkpt lat="47.76204" lon="6.00893">
        <ele>240</ele>
        <time>2018-12-04T04:01:59Z</time>
      </trkpt>
      <trkpt lat="47.76182" lon="6.00902">
        <ele>240</ele>
        <time>2018-12-04T04:02:59Z</time>
      </trkpt>
      <trkpt lat="47.76163" lon="6.00911">
        <ele>240</ele>
        <time>2018-12-04T04:03:59Z</time>
      </trkpt>
      <trkpt lat="47.76147" lon="6.00927">
        <ele>240</ele>
        <time>2018-12-04T04:04:59Z</time>
      </trkpt>
      <trkpt lat="47.76137" lon="6.0094">
        <ele>240</ele>
        <time>2018-12-04T04:05:59Z</time>
      </trkpt>
      <trkpt lat="47.76132" lon="6.00946">
        <ele>240</ele>
        <time>2018-12-04T04:06:59Z</time>
      </trkpt>
      <trkpt lat="47.7612" lon="6.00968">
        <ele>240</ele>
        <time>2018-12-04T04:07:59Z</time>
      </trkpt>
      <trkpt lat="47.76104" lon="6.00998">
        <ele>239</ele>
        <time>2018-12-04T04:08:59Z</time>
      </trkpt>
      <trkpt lat="47.76092" lon="6.01024">
        <ele>240</ele>
        <time>2018-12-04T04:09:59Z</time>
      </trkpt>
      <trkpt lat="47.76085" lon="6.01037">
        <ele>240</ele>
        <time>2018-12-04T04:10:59Z</time>
      </trkpt>
      <trkpt lat="47.76076" lon="6.0105">
        <ele>241</ele>
        <time>2018-12-04T04:11:59Z</time>
      </trkpt>
      <trkpt lat="47.76058" lon="6.01072">
        <ele>241</ele>
        <time>2018-12-04T04:12:59Z</time>
      </trkpt>
      <trkpt lat="47.76031" lon="6.01102">
        <ele>241</ele>
        <time>2018-12-04T04:13:59Z</time>
      </trkpt>
      <trkpt lat="47.76025" lon="6.0111">
        <ele>241</ele>
        <time>2018-12-04T04:14:59Z</time>
      </trkpt>
      <trkpt lat="47.76023" lon="6.01114">
        <ele>241</ele>
        <time>2018-12-04T04:15:59Z</time>
      </trkpt>
      <trkpt lat="47.75993" lon="6.01154">
        <ele>239</ele>
        <time>2018-12-04T04:16:59Z</time>
      </trkpt>
      <trkpt lat="47.75973" lon="6.01182">
        <ele>237</ele>
        <time>2018-12-04T04:17:59Z</time>
      </trkpt>
      <trkpt lat="47.75946" lon="6.01223">
        <ele>236</ele>
        <time>2018-12-04T04:18:59Z</time>
      </trkpt>
      <trkpt lat="47.75927" lon="6.01248">
        <ele>235</ele>
        <time>2018-12-04T04:19:59Z</time>
      </trkpt>
      <trkpt lat="47.7591" lon="6.01267">
        <ele>234</ele>
        <time>2018-12-04T04:20:59Z</time>
      </trkpt>
      <trkpt lat="47.75899" lon="6.01277">
        <ele>233</ele>
        <time>2018-12-04T04:21:59Z</time>
      </trkpt>
      <trkpt lat="47.75887" lon="6.01286">
        <ele>232</ele>
        <time>2018-12-04T04:22:59Z</time>
      </trkpt>
      <trkpt lat="47.75878" lon="6.01291">
        <ele>232</ele>
        <time>2018-12-04T04:23:59Z</time>
      </trkpt>
      <trkpt lat="47.75864" lon="6.01294">
        <ele>231</ele>
        <time>2018-12-04T04:24:59Z</time>
      </trkpt>
      <trkpt lat="47.75851" lon="6.01295">
        <ele>230</ele>
        <time>2018-12-04T04:25:59Z</time>
      </trkpt>
      <trkpt lat="47.75837" lon="6.01293">
        <ele>229</ele>
        <time>2018-12-04T04:26:59Z</time>
      </trkpt>
      <trkpt lat="47.75824" lon="6.01289">
        <ele>229</ele>
        <time>2018-12-04T04:27:59Z</time>
      </trkpt>
      <trkpt lat="47.75824" lon="6.01288">
        <ele>229</ele>
        <time>2018-12-04T04:28:59Z</time>
      </trkpt>
      <trkpt lat="47.75811" lon="6.01282">
        <ele>228</ele>
        <time>2018-12-04T04:29:59Z</time>
      </trkpt>
      <trkpt lat="47.75771" lon="6.01251">
        <ele>227</ele>
        <time>2018-12-04T04:30:59Z</time>
      </trkpt>
      <trkpt lat="47.75741" lon="6.01227">
        <ele>226</ele>
        <time>2018-12-04T04:31:59Z</time>
      </trkpt>
      <trkpt lat="47.75715" lon="6.01203">
        <ele>226</ele>
        <time>2018-12-04T04:32:59Z</time>
      </trkpt>
      <trkpt lat="47.75689" lon="6.01176">
        <ele>225</ele>
        <time>2018-12-04T04:33:59Z</time>
      </trkpt>
      <trkpt lat="47.75665" lon="6.01147">
        <ele>225</ele>
        <time>2018-12-04T04:34:59Z</time>
      </trkpt>
      <trkpt lat="47.75645" lon="6.01117">
        <ele>225</ele>
        <time>2018-12-04T04:35:59Z</time>
      </trkpt>
      <trkpt lat="47.75626" lon="6.01091">
        <ele>225</ele>
        <time>2018-12-04T04:36:59Z</time>
      </trkpt>
      <trkpt lat="47.75615" lon="6.01074">
        <ele>225</ele>
        <time>2018-12-04T04:37:59Z</time>
      </trkpt>
      <trkpt lat="47.75597" lon="6.01042">
        <ele>225</ele>
        <time>2018-12-04T04:38:59Z</time>
      </trkpt>
      <trkpt lat="47.75576" lon="6.01002">
        <ele>225</ele>
        <time>2018-12-04T04:39:59Z</time>
      </trkpt>
      <trkpt lat="47.75557" lon="6.00963">
        <ele>225</ele>
        <time>2018-12-04T04:40:59Z</time>
      </trkpt>
      <trkpt lat="47.75546" lon="6.00944">
        <ele>225</ele>
        <time>2018-12-04T04:41:59Z</time>
      </trkpt>
      <trkpt lat="47.75537" lon="6.00928">
        <ele>225</ele>
        <time>2018-12-04T04:42:59Z</time>
      </trkpt>
      <trkpt lat="47.75529" lon="6.00919">
        <ele>225</ele>
        <time>2018-12-04T04:43:59Z</time>
      </trkpt>
      <trkpt lat="47.75523" lon="6.00911">
        <ele>225</ele>
        <time>2018-12-04T04:44:59Z</time>
      </trkpt>
      <trkpt lat="47.75505" lon="6.00891">
        <ele>225</ele>
        <time>2018-12-04T04:45:59Z</time>
      </trkpt>
      <trkpt lat="47.75493" lon="6.00879">
        <ele>224</ele>
        <time>2018-12-04T04:46:59Z</time>
      </trkpt>
      <trkpt lat="47.75466" lon="6.00854">
        <ele>224</ele>
        <time>2018-12-04T04:47:59Z</time>
      </trkpt>
      <trkpt lat="47.75446" lon="6.00836">
        <ele>223</ele>
        <time>2018-12-04T04:48:59Z</time>
      </trkpt>
      <trkpt lat="47.75423" lon="6.00817">
        <ele>222</ele>
        <time>2018-12-04T04:49:59Z</time>
      </trkpt>
      <trkpt lat="47.75372" lon="6.00771">
        <ele>221</ele>
        <time>2018-12-04T04:50:59Z</time>
      </trkpt>
      <trkpt lat="47.75362" lon="6.00764">
        <ele>220</ele>
        <time>2018-12-04T04:51:59Z</time>
      </trkpt>
      <trkpt lat="47.75333" lon="6.00736">
        <ele>219</ele>
        <time>2018-12-04T04:52:59Z</time>
      </trkpt>
      <trkpt lat="47.75319" lon="6.00725">
        <ele>219</ele>
        <time>2018-12-04T04:53:59Z</time>
      </trkpt>
      <trkpt lat="47.75305" lon="6.00715">
        <ele>219</ele>
        <time>2018-12-04T04:54:59Z</time>
      </trkpt>
      <trkpt lat="47.75267" lon="6.00691">
        <ele>219</ele>
        <time>2018-12-04T04:55:59Z</time>
      </trkpt>
      <trkpt lat="47.75251" lon="6.00681">
        <ele>219</ele>
        <time>2018-12-04T04:56:59Z</time>
      </trkpt>
      <trkpt lat="47.75234" lon="6.00669">
        <ele>219</ele>
        <time>2018-12-04T04:57:59Z</time>
      </trkpt>
      <trkpt lat="47.75213" lon="6.00656">
        <ele>220</ele>
        <time>2018-12-04T04:58:59Z</time>
      </trkpt>
      <trkpt lat="47.75189" lon="6.00639">
        <ele>221</ele>
        <time>2018-12-04T04:59:59Z</time>
      </trkpt>
      <trkpt lat="47.7517" lon="6.00624">
        <ele>221</ele>
        <time>2018-12-04T05:00:59Z</time>
      </trkpt>
      <trkpt lat="47.75144" lon="6.00603">
        <ele>223</ele>
        <time>2018-12-04T05:01:59Z</time>
      </trkpt>
      <trkpt lat="47.75124" lon="6.00589">
        <ele>224</ele>
        <time>2018-12-04T05:02:59Z</time>
      </trkpt>
      <trkpt lat="47.75106" lon="6.00579">
        <ele>225</ele>
        <time>2018-12-04T05:03:59Z</time>
      </trkpt>
      <trkpt lat="47.75097" lon="6.00575">
        <ele>226</ele>
        <time>2018-12-04T05:04:59Z</time>
      </trkpt>
      <trkpt lat="47.75083" lon="6.00571">
        <ele>226</ele>
        <time>2018-12-04T05:05:59Z</time>
      </trkpt>
      <trkpt lat="47.75065" lon="6.00569">
        <ele>228</ele>
        <time>2018-12-04T05:06:59Z</time>
      </trkpt>
      <trkpt lat="47.75045" lon="6.0057">
        <ele>229</ele>
        <time>2018-12-04T05:07:59Z</time>
      </trkpt>
      <trkpt lat="47.7502" lon="6.00578">
        <ele>231</ele>
        <time>2018-12-04T05:08:59Z</time>
      </trkpt>
      <trkpt lat="47.75011" lon="6.00581">
        <ele>232</ele>
        <time>2018-12-04T05:09:59Z</time>
      </trkpt>
      <trkpt lat="47.75001" lon="6.00587">
        <ele>233</ele>
        <time>2018-12-04T05:10:59Z</time>
      </trkpt>
      <trkpt lat="47.74988" lon="6.00595">
        <ele>235</ele>
        <time>2018-12-04T05:11:59Z</time>
      </trkpt>
      <trkpt lat="47.74967" lon="6.00611">
        <ele>237</ele>
        <time>2018-12-04T05:12:59Z</time>
      </trkpt>
      <trkpt lat="47.74929" lon="6.00643">
        <ele>240</ele>
        <time>2018-12-04T05:13:59Z</time>
      </trkpt>
      <trkpt lat="47.7488" lon="6.00678">
        <ele>244</ele>
        <time>2018-12-04T05:14:59Z</time>
      </trkpt>
      <trkpt lat="47.74849" lon="6.00701">
        <ele>246</ele>
        <time>2018-12-04T05:15:59Z</time>
      </trkpt>
      <trkpt lat="47.74829" lon="6.0072">
        <ele>247</ele>
        <time>2018-12-04T05:16:59Z</time>
      </trkpt>
      <trkpt lat="47.74809" lon="6.00743">
        <ele>247</ele>
        <time>2018-12-04T05:17:59Z</time>
      </trkpt>
      <trkpt lat="47.74786" lon="6.0077">
        <ele>248</ele>
        <time>2018-12-04T05:18:59Z</time>
      </trkpt>
      <trkpt lat="47.74759" lon="6.00804">
        <ele>249</ele>
        <time>2018-12-04T05:19:59Z</time>
      </trkpt>
      <trkpt lat="47.74746" lon="6.00818">
        <ele>250</ele>
        <time>2018-12-04T05:20:59Z</time>
      </trkpt>
      <trkpt lat="47.74735" lon="6.00826">
        <ele>251</ele>
        <time>2018-12-04T05:21:59Z</time>
      </trkpt>
      <trkpt lat="47.7472" lon="6.00832">
        <ele>254</ele>
        <time>2018-12-04T05:22:59Z</time>
      </trkpt>
      <trkpt lat="47.74706" lon="6.00836">
        <ele>256</ele>
        <time>2018-12-04T05:23:59Z</time>
      </trkpt>
      <trkpt lat="47.7468" lon="6.00841">
        <ele>259</ele>
        <time>2018-12-04T05:24:59Z</time>
      </trkpt>
      <trkpt lat="47.74634" lon="6.00846">
        <ele>267</ele>
        <time>2018-12-04T05:25:59Z</time>
      </trkpt>
      <trkpt lat="47.7462" lon="6.00851">
        <ele>268</ele>
        <time>2018-12-04T05:26:59Z</time>
      </trkpt>
      <trkpt lat="47.74596" lon="6.00866">
        <ele>269</ele>
        <time>2018-12-04T05:27:59Z</time>
      </trkpt>
      <trkpt lat="47.74572" lon="6.00886">
        <ele>269</ele>
        <time>2018-12-04T05:28:59Z</time>
      </trkpt>
      <trkpt lat="47.74532" lon="6.00925">
        <ele>270</ele>
        <time>2018-12-04T05:29:59Z</time>
      </trkpt>
      <trkpt lat="47.74509" lon="6.00948">
        <ele>273</ele>
        <time>2018-12-04T05:30:59Z</time>
      </trkpt>
      <trkpt lat="47.74491" lon="6.00962">
        <ele>273</ele>
        <time>2018-12-04T05:31:59Z</time>
      </trkpt>
      <trkpt lat="47.7448" lon="6.00967">
        <ele>272</ele>
        <time>2018-12-04T05:32:59Z</time>
      </trkpt>
      <trkpt lat="47.74471" lon="6.00967">
        <ele>271</ele>
        <time>2018-12-04T05:33:59Z</time>
      </trkpt>
      <trkpt lat="47.74459" lon="6.00964">
        <ele>271</ele>
        <time>2018-12-04T05:34:59Z</time>
      </trkpt>
      <trkpt lat="47.74447" lon="6.00957">
        <ele>272</ele>
        <time>2018-12-04T05:35:59Z</time>
      </trkpt>
      <trkpt lat="47.74413" lon="6.00933">
        <ele>275</ele>
        <time>2018-12-04T05:36:59Z</time>
      </trkpt>
      <trkpt lat="47.74386" lon="6.00912">
        <ele>274</ele>
        <time>2018-12-04T05:37:59Z</time>
      </trkpt>
      <trkpt lat="47.74375" lon="6.00901">
        <ele>273</ele>
        <time>2018-12-04T05:38:59Z</time>
      </trkpt>
      <trkpt lat="47.74362" lon="6.00884">
        <ele>272</ele>
        <time>2018-12-04T05:39:59Z</time>
      </trkpt>
      <trkpt lat="47.74354" lon="6.00863">
        <ele>272</ele>
        <time>2018-12-04T05:40:59Z</time>
      </trkpt>
      <trkpt lat="47.74346" lon="6.00833">
        <ele>273</ele>
        <time>2018-12-04T05:41:59Z</time>
      </trkpt>
      <trkpt lat="47.74345" lon="6.00827">
        <ele>273</ele>
        <time>2018-12-04T05:42:59Z</time>
      </trkpt>
      <trkpt lat="47.7434" lon="6.00812">
        <ele>274</ele>
        <time>2018-12-04T05:43:59Z</time>
      </trkpt>
      <trkpt lat="47.74334" lon="6.00799">
        <ele>274</ele>
        <time>2018-12-04T05:44:59Z</time>
      </trkpt>
      <trkpt lat="47.74325" lon="6.00785">
        <ele>274</ele>
        <time>2018-12-04T05:45:59Z</time>
      </trkpt>
      <trkpt lat="47.74311" lon="6.00767">
        <ele>274</ele>
        <time>2018-12-04T05:46:59Z</time>
      </trkpt>
      <trkpt lat="47.74291" lon="6.00746">
        <ele>273</ele>
        <time>2018-12-04T05:47:59Z</time>
      </trkpt>
      <trkpt lat="47.74266" lon="6.0072">
        <ele>273</ele>
        <time>2018-12-04T05:48:59Z</time>
      </trkpt>
      <trkpt lat="47.74248" lon="6.00704">
        <ele>273</ele>
        <time>2018-12-04T05:49:59Z</time>
      </trkpt>
      <trkpt lat="47.7423" lon="6.00691">
        <ele>276</ele>
        <time>2018-12-04T05:50:59Z</time>
      </trkpt>
      <trkpt lat="47.74209" lon="6.0068">
        <ele>277</ele>
        <time>2018-12-04T05:51:59Z</time>
      </trkpt>
      <trkpt lat="47.74182" lon="6.00668">
        <ele>279</ele>
        <time>2018-12-04T05:52:59Z</time>
      </trkpt>
      <trkpt lat="47.74158" lon="6.00655">
        <ele>279</ele>
        <time>2018-12-04T05:53:59Z</time>
      </trkpt>
      <trkpt lat="47.7414" lon="6.00643">
        <ele>279</ele>
        <time>2018-12-04T05:54:59Z</time>
      </trkpt>
      <trkpt lat="47.74137" lon="6.00641">
        <ele>278</ele>
        <time>2018-12-04T05:55:59Z</time>
      </trkpt>
      <trkpt lat="47.74124" lon="6.00639">
        <ele>278</ele>
        <time>2018-12-04T05:56:59Z</time>
      </trkpt>
      <trkpt lat="47.74114" lon="6.00639">
        <ele>277</ele>
        <time>2018-12-04T05:57:59Z</time>
      </trkpt>
      <trkpt lat="47.74104" lon="6.00641">
        <ele>276</ele>
        <time>2018-12-04T05:58:59Z</time>
      </trkpt>
      <trkpt lat="47.74093" lon="6.00645">
        <ele>276</ele>
        <time>2018-12-04T05:59:59Z</time>
      </trkpt>
      <trkpt lat="47.74077" lon="6.00656">
        <ele>274</ele>
        <time>2018-12-04T06:00:59Z</time>
      </trkpt>
      <trkpt lat="47.74073" lon="6.0066">
        <ele>274</ele>
        <time>2018-12-04T06:01:59Z</time>
      </trkpt>
      <trkpt lat="47.74069" lon="6.00667">
        <ele>274</ele>
        <time>2018-12-04T06:02:59Z</time>
      </trkpt>
      <trkpt lat="47.7406" lon="6.00679">
        <ele>273</ele>
        <time>2018-12-04T06:03:59Z</time>
      </trkpt>
      <trkpt lat="47.7405" lon="6.00697">
        <ele>273</ele>
        <time>2018-12-04T06:04:59Z</time>
      </trkpt>
      <trkpt lat="47.7404" lon="6.00715">
        <ele>273</ele>
        <time>2018-12-04T06:05:59Z</time>
      </trkpt>
      <trkpt lat="47.74027" lon="6.00733">
        <ele>273</ele>
        <time>2018-12-04T06:06:59Z</time>
      </trkpt>
      <trkpt lat="47.74012" lon="6.00751">
        <ele>273</ele>
        <time>2018-12-04T06:07:59Z</time>
      </trkpt>
      <trkpt lat="47.73998" lon="6.00771">
        <ele>273</ele>
        <time>2018-12-04T06:08:59Z</time>
      </trkpt>
      <trkpt lat="47.73983" lon="6.00788">
        <ele>272</ele>
        <time>2018-12-04T06:09:59Z</time>
      </trkpt>
      <trkpt lat="47.73968" lon="6.00805">
        <ele>272</ele>
        <time>2018-12-04T06:10:59Z</time>
      </trkpt>
      <trkpt lat="47.73952" lon="6.00818">
        <ele>271</ele>
        <time>2018-12-04T06:11:59Z</time>
      </trkpt>
      <trkpt lat="47.73943" lon="6.00826">
        <ele>271</ele>
        <time>2018-12-04T06:12:59Z</time>
      </trkpt>
      <trkpt lat="47.7394" lon="6.00827">
        <ele>271</ele>
        <time>2018-12-04T06:13:59Z</time>
      </trkpt>
      <trkpt lat="47.73928" lon="6.00834">
        <ele>270</ele>
        <time>2018-12-04T06:14:59Z</time>
      </trkpt>
      <trkpt lat="47.73909" lon="6.00842">
        <ele>270</ele>
        <time>2018-12-04T06:15:59Z</time>
      </trkpt>
      <trkpt lat="47.73901" lon="6.00846">
        <ele>270</ele>
        <time>2018-12-04T06:16:59Z</time>
      </trkpt>
      <trkpt lat="47.73892" lon="6.00849">
        <ele>269</ele>
        <time>2018-12-04T06:17:59Z</time>
      </trkpt>
      <trkpt lat="47.73852" lon="6.00858">
        <ele>268</ele>
        <time>2018-12-04T06:18:59Z</time>
      </trkpt>
      <trkpt lat="47.73838" lon="6.0086">
        <ele>268</ele>
        <time>2018-12-04T06:19:59Z</time>
      </trkpt>
      <trkpt lat="47.7377" lon="6.00879">
        <ele>265</ele>
        <time>2018-12-04T06:20:59Z</time>
      </trkpt>
      <trkpt lat="47.73746" lon="6.00885">
        <ele>264</ele>
        <time>2018-12-04T06:21:59Z</time>
      </trkpt>
      <trkpt lat="47.73724" lon="6.00892">
        <ele>263</ele>
        <time>2018-12-04T06:22:59Z</time>
      </trkpt>
      <trkpt lat="47.73696" lon="6.009">
        <ele>262</ele>
        <time>2018-12-04T06:23:59Z</time>
      </trkpt>
      <trkpt lat="47.73647" lon="6.00918">
        <ele>260</ele>
        <time>2018-12-04T06:24:59Z</time>
      </trkpt>
      <trkpt lat="47.73621" lon="6.00928">
        <ele>259</ele>
        <time>2018-12-04T06:25:59Z</time>
      </trkpt>
      <trkpt lat="47.736" lon="6.00933">
        <ele>258</ele>
        <time>2018-12-04T06:26:59Z</time>
      </trkpt>
      <trkpt lat="47.73583" lon="6.00935">
        <ele>258</ele>
        <time>2018-12-04T06:27:59Z</time>
      </trkpt>
      <trkpt lat="47.7357" lon="6.00935">
        <ele>257</ele>
        <time>2018-12-04T06:28:59Z</time>
      </trkpt>
      <trkpt lat="47.73556" lon="6.00931">
        <ele>257</ele>
        <time>2018-12-04T06:29:59Z</time>
      </trkpt>
      <trkpt lat="47.73543" lon="6.00928">
        <ele>256</ele>
        <time>2018-12-04T06:30:59Z</time>
      </trkpt>
      <trkpt lat="47.73507" lon="6.00913">
        <ele>254</ele>
        <time>2018-12-04T06:31:59Z</time>
      </trkpt>
      <trkpt lat="47.73487" lon="6.00905">
        <ele>253</ele>
        <time>2018-12-04T06:32:59Z</time>
      </trkpt>
      <trkpt lat="47.73467" lon="6.009">
        <ele>252</ele>
        <time>2018-12-04T06:33:59Z</time>
      </trkpt>
      <trkpt lat="47.73452" lon="6.00896">
        <ele>252</ele>
        <time>2018-12-04T06:34:59Z</time>
      </trkpt>
      <trkpt lat="47.73439" lon="6.00895">
        <ele>251</ele>
        <time>2018-12-04T06:35:59Z</time>
      </trkpt>
      <trkpt lat="47.73419" lon="6.00896">
        <ele>250</ele>
        <time>2018-12-04T06:36:59Z</time>
      </trkpt>
      <trkpt lat="47.73404" lon="6.00897">
        <ele>250</ele>
        <time>2018-12-04T06:37:59Z</time>
      </trkpt>
      <trkpt lat="47.73377" lon="6.00902">
        <ele>249</ele>
        <time>2018-12-04T06:38:59Z</time>
      </trkpt>
      <trkpt lat="47.73359" lon="6.00905">
        <ele>249</ele>
        <time>2018-12-04T06:39:59Z</time>
      </trkpt>
      <trkpt lat="47.73339" lon="6.00912">
        <ele>248</ele>
        <time>2018-12-04T06:40:59Z</time>
      </trkpt>
      <trkpt lat="47.73323" lon="6.00919">
        <ele>248</ele>
        <time>2018-12-04T06:41:59Z</time>
      </trkpt>
      <trkpt lat="47.73306" lon="6.00929">
        <ele>248</ele>
        <time>2018-12-04T06:42:59Z</time>
      </trkpt>
      <trkpt lat="47.73269" lon="6.00955">
        <ele>248</ele>
        <time>2018-12-04T06:43:59Z</time>
      </trkpt>
      <trkpt lat="47.73257" lon="6.00963">
        <ele>248</ele>
        <time>2018-12-04T06:44:59Z</time>
      </trkpt>
      <trkpt lat="47.73247" lon="6.00968">
        <ele>248</ele>
        <time>2018-12-04T06:45:59Z</time>
      </trkpt>
      <trkpt lat="47.73235" lon="6.00975">
        <ele>248</ele>
        <time>2018-12-04T06:46:59Z</time>
      </trkpt>
      <trkpt lat="47.73212" lon="6.00983">
        <ele>248</ele>
        <time>2018-12-04T06:47:59Z</time>
      </trkpt>
      <trkpt lat="47.73199" lon="6.00987">
        <ele>248</ele>
        <time>2018-12-04T06:48:59Z</time>
      </trkpt>
      <trkpt lat="47.73187" lon="6.00992">
        <ele>248</ele>
        <time>2018-12-04T06:49:59Z</time>
      </trkpt>
      <trkpt lat="47.73175" lon="6.00998">
        <ele>248</ele>
        <time>2018-12-04T06:50:59Z</time>
      </trkpt>
      <trkpt lat="47.73161" lon="6.01006">
        <ele>248</ele>
        <time>2018-12-04T06:51:59Z</time>
      </trkpt>
      <trkpt lat="47.73143" lon="6.01018">
        <ele>248</ele>
        <time>2018-12-04T06:52:59Z</time>
      </trkpt>
      <trkpt lat="47.7311" lon="6.01043">
        <ele>248</ele>
        <time>2018-12-04T06:53:59Z</time>
      </trkpt>
      <trkpt lat="47.73092" lon="6.01056">
        <ele>249</ele>
        <time>2018-12-04T06:54:59Z</time>
      </trkpt>
      <trkpt lat="47.73075" lon="6.01067">
        <ele>249</ele>
        <time>2018-12-04T06:55:59Z</time>
      </trkpt>
      <trkpt lat="47.73053" lon="6.01078">
        <ele>250</ele>
        <time>2018-12-04T06:56:59Z</time>
      </trkpt>
      <trkpt lat="47.73031" lon="6.01088">
        <ele>250</ele>
        <time>2018-12-04T06:57:59Z</time>
      </trkpt>
      <trkpt lat="47.73013" lon="6.01095">
        <ele>251</ele>
        <time>2018-12-04T06:58:59Z</time>
      </trkpt>
      <trkpt lat="47.72987" lon="6.011">
        <ele>251</ele>
        <time>2018-12-04T06:59:59Z</time>
      </trkpt>
      <trkpt lat="47.72972" lon="6.011">
        <ele>250</ele>
        <time>2018-12-04T07:00:59Z</time>
      </trkpt>
      <trkpt lat="47.72956" lon="6.011">
        <ele>250</ele>
        <time>2018-12-04T07:01:59Z</time>
      </trkpt>
      <trkpt lat="47.72942" lon="6.01102">
        <ele>249</ele>
        <time>2018-12-04T07:02:59Z</time>
      </trkpt>
      <trkpt lat="47.72927" lon="6.01104">
        <ele>249</ele>
        <time>2018-12-04T07:03:59Z</time>
      </trkpt>
      <trkpt lat="47.729" lon="6.01112">
        <ele>248</ele>
        <time>2018-12-04T07:04:59Z</time>
      </trkpt>
      <trkpt lat="47.7287" lon="6.01124">
        <ele>248</ele>
        <time>2018-12-04T07:05:59Z</time>
      </trkpt>
      <trkpt lat="47.72846" lon="6.01135">
        <ele>248</ele>
        <time>2018-12-04T07:06:59Z</time>
      </trkpt>
      <trkpt lat="47.72813" lon="6.01154">
        <ele>250</ele>
        <time>2018-12-04T07:07:59Z</time>
      </trkpt>
      <trkpt lat="47.72778" lon="6.01176">
        <ele>251</ele>
        <time>2018-12-04T07:08:59Z</time>
      </trkpt>
      <trkpt lat="47.72739" lon="6.01201">
        <ele>253</ele>
        <time>2018-12-04T07:09:59Z</time>
      </trkpt>
      <trkpt lat="47.72716" lon="6.01213">
        <ele>252</ele>
        <time>2018-12-04T07:10:59Z</time>
      </trkpt>
      <trkpt lat="47.72704" lon="6.01219">
        <ele>252</ele>
        <time>2018-12-04T07:11:59Z</time>
      </trkpt>
      <trkpt lat="47.72689" lon="6.01224">
        <ele>251</ele>
        <time>2018-12-04T07:12:59Z</time>
      </trkpt>
      <trkpt lat="47.72668" lon="6.01232">
        <ele>250</ele>
        <time>2018-12-04T07:13:59Z</time>
      </trkpt>
      <trkpt lat="47.72605" lon="6.01243">
        <ele>248</ele>
        <time>2018-12-04T07:14:59Z</time>
      </trkpt>
      <trkpt lat="47.72521" lon="6.01259">
        <ele>249</ele>
        <time>2018-12-04T07:15:59Z</time>
      </trkpt>
      <trkpt lat="47.72489" lon="6.01268">
        <ele>250</ele>
        <time>2018-12-04T07:16:59Z</time>
      </trkpt>
      <trkpt lat="47.72461" lon="6.01279">
        <ele>251</ele>
        <time>2018-12-04T07:17:59Z</time>
      </trkpt>
      <trkpt lat="47.72398" lon="6.01312">
        <ele>252</ele>
        <time>2018-12-04T07:18:59Z</time>
      </trkpt>
      <trkpt lat="47.72351" lon="6.01333">
        <ele>253</ele>
        <time>2018-12-04T07:19:59Z</time>
      </trkpt>
      <trkpt lat="47.72304" lon="6.0135">
        <ele>253</ele>
        <time>2018-12-04T07:20:59Z</time>
      </trkpt>
      <trkpt lat="47.72262" lon="6.01363">
        <ele>253</ele>
        <time>2018-12-04T07:21:59Z</time>
      </trkpt>
      <trkpt lat="47.72235" lon="6.01368">
        <ele>253</ele>
        <time>2018-12-04T07:22:59Z</time>
      </trkpt>
      <trkpt lat="47.72196" lon="6.01374">
        <ele>251</ele>
        <time>2018-12-04T07:23:59Z</time>
      </trkpt>
      <trkpt lat="47.72174" lon="6.01379">
        <ele>251</ele>
        <time>2018-12-04T07:24:59Z</time>
      </trkpt>
      <trkpt lat="47.72143" lon="6.01386">
        <ele>250</ele>
        <time>2018-12-04T07:25:59Z</time>
      </trkpt>
      <trkpt lat="47.72029" lon="6.0142">
        <ele>248</ele>
        <time>2018-12-04T07:26:59Z</time>
      </trkpt>
      <trkpt lat="47.72006" lon="6.01431">
        <ele>247</ele>
        <time>2018-12-04T07:27:59Z</time>
      </trkpt>
      <trkpt lat="47.71983" lon="6.01444">
        <ele>247</ele>
        <time>2018-12-04T07:28:59Z</time>
      </trkpt>
      <trkpt lat="47.71932" lon="6.01478">
        <ele>245</ele>
        <time>2018-12-04T07:29:59Z</time>
      </trkpt>
      <trkpt lat="47.7193" lon="6.01479">
        <ele>245</ele>
        <time>2018-12-04T07:30:59Z</time>
      </trkpt>
      <trkpt lat="47.71881" lon="6.01517">
        <ele>244</ele>
        <time>2018-12-04T07:31:59Z</time>
      </trkpt>
      <trkpt lat="47.71871" lon="6.01525">
        <ele>244</ele>
        <time>2018-12-04T07:32:59Z</time>
      </trkpt>
      <trkpt lat="47.71839" lon="6.01547">
        <ele>244</ele>
        <time>2018-12-04T07:33:59Z</time>
      </trkpt>
      <trkpt lat="47.71824" lon="6.01557">
        <ele>244</ele>
        <time>2018-12-04T07:34:59Z</time>
      </trkpt>
      <trkpt lat="47.71815" lon="6.01565">
        <ele>244</ele>
        <time>2018-12-04T07:35:59Z</time>
      </trkpt>
      <trkpt lat="47.71798" lon="6.01582">
        <ele>244</ele>
        <time>2018-12-04T07:36:59Z</time>
      </trkpt>
      <trkpt lat="47.7178" lon="6.01601">
        <ele>244</ele>
        <time>2018-12-04T07:37:59Z</time>
      </trkpt>
      <trkpt lat="47.71764" lon="6.01619">
        <ele>244</ele>
        <time>2018-12-04T07:38:59Z</time>
      </trkpt>
      <trkpt lat="47.71758" lon="6.01626">
        <ele>244</ele>
        <time>2018-12-04T07:39:59Z</time>
      </trkpt>
      <trkpt lat="47.71754" lon="6.01633">
        <ele>245</ele>
        <time>2018-12-04T07:40:59Z</time>
      </trkpt>
      <trkpt lat="47.71745" lon="6.01643">
        <ele>246</ele>
        <time>2018-12-04T07:41:59Z</time>
      </trkpt>
      <trkpt lat="47.7173" lon="6.01663">
        <ele>249</ele>
        <time>2018-12-04T07:42:59Z</time>
      </trkpt>
      <trkpt lat="47.71717" lon="6.01681">
        <ele>250</ele>
        <time>2018-12-04T07:43:59Z</time>
      </trkpt>
      <trkpt lat="47.71671" lon="6.01751">
        <ele>255</ele>
        <time>2018-12-04T07:44:59Z</time>
      </trkpt>
      <trkpt lat="47.71644" lon="6.01791">
        <ele>255</ele>
        <time>2018-12-04T07:45:59Z</time>
      </trkpt>
      <trkpt lat="47.71618" lon="6.01826">
        <ele>255</ele>
        <time>2018-12-04T07:46:59Z</time>
      </trkpt>
      <trkpt lat="47.71596" lon="6.01857">
        <ele>254</ele>
        <time>2018-12-04T07:47:59Z</time>
      </trkpt>
      <trkpt lat="47.71547" lon="6.01917">
        <ele>254</ele>
        <time>2018-12-04T07:48:59Z</time>
      </trkpt>
      <trkpt lat="47.71509" lon="6.01958">
        <ele>256</ele>
        <time>2018-12-04T07:49:59Z</time>
      </trkpt>
      <trkpt lat="47.7143" lon="6.02042">
        <ele>248</ele>
        <time>2018-12-04T07:50:59Z</time>
      </trkpt>
      <trkpt lat="47.71342" lon="6.02146">
        <ele>247</ele>
        <time>2018-12-04T07:51:59Z</time>
      </trkpt>
      <trkpt lat="47.71273" lon="6.02223">
        <ele>252</ele>
        <time>2018-12-04T07:52:59Z</time>
      </trkpt>
      <trkpt lat="47.71229" lon="6.02278">
        <ele>252</ele>
        <time>2018-12-04T07:53:59Z</time>
      </trkpt>
      <trkpt lat="47.71193" lon="6.02328">
        <ele>252</ele>
        <time>2018-12-04T07:54:59Z</time>
      </trkpt>
      <trkpt lat="47.71092" lon="6.02458">
        <ele>251</ele>
        <time>2018-12-04T07:55:59Z</time>
      </trkpt>
      <trkpt lat="47.71048" lon="6.0251">
        <ele>249</ele>
        <time>2018-12-04T07:56:59Z</time>
      </trkpt>
      <trkpt lat="47.71028" lon="6.02527">
        <ele>250</ele>
        <time>2018-12-04T07:57:59Z</time>
      </trkpt>
      <trkpt lat="47.71011" lon="6.02538">
        <ele>250</ele>
        <time>2018-12-04T07:58:59Z</time>
      </trkpt>
      <trkpt lat="47.70985" lon="6.02552">
        <ele>251</ele>
        <time>2018-12-04T07:59:59Z</time>
      </trkpt>
      <trkpt lat="47.70956" lon="6.02566">
        <ele>251</ele>
        <time>2018-12-04T08:00:59Z</time>
      </trkpt>
      <trkpt lat="47.70937" lon="6.02579">
        <ele>251</ele>
        <time>2018-12-04T08:01:59Z</time>
      </trkpt>
      <trkpt lat="47.70854" lon="6.02645">
        <ele>244</ele>
        <time>2018-12-04T08:02:59Z</time>
      </trkpt>
      <trkpt lat="47.70847" lon="6.02651">
        <ele>244</ele>
        <time>2018-12-04T08:03:59Z</time>
      </trkpt>
      <trkpt lat="47.70834" lon="6.0266">
        <ele>243</ele>
        <time>2018-12-04T08:04:59Z</time>
      </trkpt>
      <trkpt lat="47.70824" lon="6.02666">
        <ele>243</ele>
        <time>2018-12-04T08:05:59Z</time>
      </trkpt>
      <trkpt lat="47.70796" lon="6.02678">
        <ele>242</ele>
        <time>2018-12-04T08:06:59Z</time>
      </trkpt>
      <trkpt lat="47.70783" lon="6.02681">
        <ele>242</ele>
        <time>2018-12-04T08:07:59Z</time>
      </trkpt>
      <trkpt lat="47.7077" lon="6.02682">
        <ele>242</ele>
        <time>2018-12-04T08:08:59Z</time>
      </trkpt>
      <trkpt lat="47.70755" lon="6.02683">
        <ele>241</ele>
        <time>2018-12-04T08:09:59Z</time>
      </trkpt>
      <trkpt lat="47.70743" lon="6.02682">
        <ele>241</ele>
        <time>2018-12-04T08:10:59Z</time>
      </trkpt>
      <trkpt lat="47.70729" lon="6.02678">
        <ele>241</ele>
        <time>2018-12-04T08:11:59Z</time>
      </trkpt>
      <trkpt lat="47.70716" lon="6.02674">
        <ele>241</ele>
        <time>2018-12-04T08:12:59Z</time>
      </trkpt>
      <trkpt lat="47.7068" lon="6.02654">
        <ele>240</ele>
        <time>2018-12-04T08:13:59Z</time>
      </trkpt>
      <trkpt lat="47.70598" lon="6.02595">
        <ele>241</ele>
        <time>2018-12-04T08:14:59Z</time>
      </trkpt>
      <trkpt lat="47.70543" lon="6.02558">
        <ele>240</ele>
        <time>2018-12-04T08:15:59Z</time>
      </trkpt>
      <trkpt lat="47.70504" lon="6.0253">
        <ele>238</ele>
        <time>2018-12-04T08:16:59Z</time>
      </trkpt>
      <trkpt lat="47.70477" lon="6.02514">
        <ele>237</ele>
        <time>2018-12-04T08:17:59Z</time>
      </trkpt>
      <trkpt lat="47.70456" lon="6.02505">
        <ele>236</ele>
        <time>2018-12-04T08:18:59Z</time>
      </trkpt>
      <trkpt lat="47.70429" lon="6.02501">
        <ele>235</ele>
        <time>2018-12-04T08:19:59Z</time>
      </trkpt>
      <trkpt lat="47.70403" lon="6.02505">
        <ele>233</ele>
        <time>2018-12-04T08:20:59Z</time>
      </trkpt>
      <trkpt lat="47.70383" lon="6.02514">
        <ele>232</ele>
        <time>2018-12-04T08:21:59Z</time>
      </trkpt>
      <trkpt lat="47.70372" lon="6.0252">
        <ele>231</ele>
        <time>2018-12-04T08:22:59Z</time>
      </trkpt>
      <trkpt lat="47.70353" lon="6.02537">
        <ele>230</ele>
        <time>2018-12-04T08:23:59Z</time>
      </trkpt>
      <trkpt lat="47.70333" lon="6.02557">
        <ele>229</ele>
        <time>2018-12-04T08:24:59Z</time>
      </trkpt>
      <trkpt lat="47.70315" lon="6.0258">
        <ele>227</ele>
        <time>2018-12-04T08:25:59Z</time>
      </trkpt>
      <trkpt lat="47.70268" lon="6.02635">
        <ele>223</ele>
        <time>2018-12-04T08:26:59Z</time>
      </trkpt>
      <trkpt lat="47.70244" lon="6.02673">
        <ele>222</ele>
        <time>2018-12-04T08:27:59Z</time>
      </trkpt>
      <trkpt lat="47.70237" lon="6.02686">
        <ele>222</ele>
        <time>2018-12-04T08:28:59Z</time>
      </trkpt>
      <trkpt lat="47.70231" lon="6.02696">
        <ele>222</ele>
        <time>2018-12-04T08:29:59Z</time>
      </trkpt>
      <trkpt lat="47.70193" lon="6.02791">
        <ele>221</ele>
        <time>2018-12-04T08:30:59Z</time>
      </trkpt>
      <trkpt lat="47.70177" lon="6.02832">
        <ele>221</ele>
        <time>2018-12-04T08:31:59Z</time>
      </trkpt>
      <trkpt lat="47.70168" lon="6.02851">
        <ele>221</ele>
        <time>2018-12-04T08:32:59Z</time>
      </trkpt>
      <trkpt lat="47.7016" lon="6.0287">
        <ele>221</ele>
        <time>2018-12-04T08:33:59Z</time>
      </trkpt>
      <trkpt lat="47.70154" lon="6.02878">
        <ele>221</ele>
        <time>2018-12-04T08:34:59Z</time>
      </trkpt>
      <trkpt lat="47.70145" lon="6.02896">
        <ele>221</ele>
        <time>2018-12-04T08:35:59Z</time>
      </trkpt>
      <trkpt lat="47.70137" lon="6.02908">
        <ele>221</ele>
        <time>2018-12-04T08:36:59Z</time>
      </trkpt>
      <trkpt lat="47.70129" lon="6.02924">
        <ele>221</ele>
        <time>2018-12-04T08:37:59Z</time>
      </trkpt>
      <trkpt lat="47.7012" lon="6.0294">
        <ele>221</ele>
        <time>2018-12-04T08:38:59Z</time>
      </trkpt>
      <trkpt lat="47.70115" lon="6.02954">
        <ele>221</ele>
        <time>2018-12-04T08:39:59Z</time>
      </trkpt>
      <trkpt lat="47.70109" lon="6.02969">
        <ele>221</ele>
        <time>2018-12-04T08:40:59Z</time>
      </trkpt>
      <trkpt lat="47.70093" lon="6.03046">
        <ele>222</ele>
        <time>2018-12-04T08:41:59Z</time>
      </trkpt>
      <trkpt lat="47.70089" lon="6.03067">
        <ele>222</ele>
        <time>2018-12-04T08:42:59Z</time>
      </trkpt>
      <trkpt lat="47.70087" lon="6.03087">
        <ele>223</ele>
        <time>2018-12-04T08:43:59Z</time>
      </trkpt>
      <trkpt lat="47.70083" lon="6.03107">
        <ele>222</ele>
        <time>2018-12-04T08:44:59Z</time>
      </trkpt>
      <trkpt lat="47.70079" lon="6.03128">
        <ele>222</ele>
        <time>2018-12-04T08:45:59Z</time>
      </trkpt>
      <trkpt lat="47.70075" lon="6.03158">
        <ele>221</ele>
        <time>2018-12-04T08:46:59Z</time>
      </trkpt>
      <trkpt lat="47.70074" lon="6.03171">
        <ele>221</ele>
        <time>2018-12-04T08:47:59Z</time>
      </trkpt>
      <trkpt lat="47.70074" lon="6.032">
        <ele>220</ele>
        <time>2018-12-04T08:48:59Z</time>
      </trkpt>
      <trkpt lat="47.70074" lon="6.03219">
        <ele>220</ele>
        <time>2018-12-04T08:49:59Z</time>
      </trkpt>
      <trkpt lat="47.70075" lon="6.0324">
        <ele>220</ele>
        <time>2018-12-04T08:50:59Z</time>
      </trkpt>
      <trkpt lat="47.70076" lon="6.03261">
        <ele>219</ele>
        <time>2018-12-04T08:51:59Z</time>
      </trkpt>
      <trkpt lat="47.70078" lon="6.03286">
        <ele>219</ele>
        <time>2018-12-04T08:52:59Z</time>
      </trkpt>
      <trkpt lat="47.70079" lon="6.03317">
        <ele>219</ele>
        <time>2018-12-04T08:53:59Z</time>
      </trkpt>
      <trkpt lat="47.70083" lon="6.03379">
        <ele>217</ele>
        <time>2018-12-04T08:54:59Z</time>
      </trkpt>
      <trkpt lat="47.70084" lon="6.03385">
        <ele>217</ele>
        <time>2018-12-04T08:55:59Z</time>
      </trkpt>
      <trkpt lat="47.70084" lon="6.03418">
        <ele>216</ele>
        <time>2018-12-04T08:56:59Z</time>
      </trkpt>
      <trkpt lat="47.70084" lon="6.03435">
        <ele>216</ele>
        <time>2018-12-04T08:57:59Z</time>
      </trkpt>
      <trkpt lat="47.70082" lon="6.03454">
        <ele>216</ele>
        <time>2018-12-04T08:58:59Z</time>
      </trkpt>
      <trkpt lat="47.70081" lon="6.03473">
        <ele>215</ele>
        <time>2018-12-04T08:59:59Z</time>
      </trkpt>
      <trkpt lat="47.70079" lon="6.03488">
        <ele>215</ele>
        <time>2018-12-04T09:00:59Z</time>
      </trkpt>
      <trkpt lat="47.70077" lon="6.03504">
        <ele>215</ele>
        <time>2018-12-04T09:01:59Z</time>
      </trkpt>
      <trkpt lat="47.70068" lon="6.03541">
        <ele>216</ele>
        <time>2018-12-04T09:02:59Z</time>
      </trkpt>
      <trkpt lat="47.70065" lon="6.03553">
        <ele>216</ele>
        <time>2018-12-04T09:03:59Z</time>
      </trkpt>
      <trkpt lat="47.7006" lon="6.03568">
        <ele>216</ele>
        <time>2018-12-04T09:04:59Z</time>
      </trkpt>
      <trkpt lat="47.70055" lon="6.03584">
        <ele>217</ele>
        <time>2018-12-04T09:05:59Z</time>
      </trkpt>
      <trkpt lat="47.70045" lon="6.03605">
        <ele>217</ele>
        <time>2018-12-04T09:06:59Z</time>
      </trkpt>
      <trkpt lat="47.70036" lon="6.03622">
        <ele>217</ele>
        <time>2018-12-04T09:07:59Z</time>
      </trkpt>
      <trkpt lat="47.70024" lon="6.03642">
        <ele>217</ele>
        <time>2018-12-04T09:08:59Z</time>
      </trkpt>
      <trkpt lat="47.70006" lon="6.03669">
        <ele>216</ele>
        <time>2018-12-04T09:09:59Z</time>
      </trkpt>
      <trkpt lat="47.69996" lon="6.03682">
        <ele>216</ele>
        <time>2018-12-04T09:10:59Z</time>
      </trkpt>
      <trkpt lat="47.6999" lon="6.03688">
        <ele>216</ele>
        <time>2018-12-04T09:11:59Z</time>
      </trkpt>
      <trkpt lat="47.69981" lon="6.03696">
        <ele>216</ele>
        <time>2018-12-04T09:12:59Z</time>
      </trkpt>
      <trkpt lat="47.69956" lon="6.03716">
        <ele>216</ele>
        <time>2018-12-04T09:13:59Z</time>
      </trkpt>
      <trkpt lat="47.69937" lon="6.03728">
        <ele>215</ele>
        <time>2018-12-04T09:14:59Z</time>
      </trkpt>
      <trkpt lat="47.69907" lon="6.03742">
        <ele>214</ele>
        <time>2018-12-04T09:15:59Z</time>
      </trkpt>
      <trkpt lat="47.6987" lon="6.03759">
        <ele>215</ele>
        <time>2018-12-04T09:16:59Z</time>
      </trkpt>
      <trkpt lat="47.69782" lon="6.03793">
        <ele>214</ele>
        <time>2018-12-04T09:17:59Z</time>
      </trkpt>
      <trkpt lat="47.69766" lon="6.038">
        <ele>213</ele>
        <time>2018-12-04T09:18:59Z</time>
      </trkpt>
      <trkpt lat="47.69732" lon="6.0381">
        <ele>213</ele>
        <time>2018-12-04T09:19:59Z</time>
      </trkpt>
      <trkpt lat="47.69714" lon="6.03815">
        <ele>213</ele>
        <time>2018-12-04T09:20:59Z</time>
      </trkpt>
      <trkpt lat="47.69694" lon="6.03819">
        <ele>212</ele>
        <time>2018-12-04T09:21:59Z</time>
      </trkpt>
      <trkpt lat="47.69671" lon="6.03823">
        <ele>212</ele>
        <time>2018-12-04T09:22:59Z</time>
      </trkpt>
      <trkpt lat="47.6962" lon="6.03826">
        <ele>214</ele>
        <time>2018-12-04T09:23:59Z</time>
      </trkpt>
      <trkpt lat="47.69604" lon="6.03826">
        <ele>214</ele>
        <time>2018-12-04T09:24:59Z</time>
      </trkpt>
      <trkpt lat="47.69589" lon="6.03824">
        <ele>215</ele>
        <time>2018-12-04T09:25:59Z</time>
      </trkpt>
      <trkpt lat="47.6957" lon="6.03823">
        <ele>215</ele>
        <time>2018-12-04T09:26:59Z</time>
      </trkpt>
      <trkpt lat="47.69552" lon="6.0382">
        <ele>215</ele>
        <time>2018-12-04T09:27:59Z</time>
      </trkpt>
      <trkpt lat="47.69466" lon="6.03809">
        <ele>214</ele>
        <time>2018-12-04T09:28:59Z</time>
      </trkpt>
      <trkpt lat="47.69449" lon="6.03807">
        <ele>215</ele>
        <time>2018-12-04T09:29:59Z</time>
      </trkpt>
      <trkpt lat="47.69413" lon="6.03805">
        <ele>215</ele>
        <time>2018-12-04T09:30:59Z</time>
      </trkpt>
      <trkpt lat="47.69395" lon="6.03803">
        <ele>214</ele>
        <time>2018-12-04T09:31:59Z</time>
      </trkpt>
      <trkpt lat="47.69381" lon="6.03803">
        <ele>214</ele>
        <time>2018-12-04T09:32:59Z</time>
      </trkpt>
      <trkpt lat="47.69366" lon="6.03802">
        <ele>213</ele>
        <time>2018-12-04T09:33:59Z</time>
      </trkpt>
      <trkpt lat="47.69341" lon="6.03799">
        <ele>213</ele>
        <time>2018-12-04T09:34:59Z</time>
      </trkpt>
      <trkpt lat="47.69328" lon="6.03798">
        <ele>212</ele>
        <time>2018-12-04T09:35:59Z</time>
      </trkpt>
      <trkpt lat="47.6931" lon="6.03794">
        <ele>212</ele>
        <time>2018-12-04T09:36:59Z</time>
      </trkpt>
      <trkpt lat="47.69292" lon="6.03791">
        <ele>211</ele>
        <time>2018-12-04T09:37:59Z</time>
      </trkpt>
      <trkpt lat="47.69266" lon="6.03788">
        <ele>210</ele>
        <time>2018-12-04T09:38:59Z</time>
      </trkpt>
      <trkpt lat="47.69228" lon="6.03781">
        <ele>209</ele>
        <time>2018-12-04T09:39:59Z</time>
      </trkpt>
      <trkpt lat="47.69207" lon="6.03781">
        <ele>209</ele>
        <time>2018-12-04T09:40:59Z</time>
      </trkpt>
      <trkpt lat="47.69193" lon="6.03784">
        <ele>209</ele>
        <time>2018-12-04T09:41:59Z</time>
      </trkpt>
      <trkpt lat="47.69183" lon="6.03785">
        <ele>208</ele>
        <time>2018-12-04T09:42:59Z</time>
      </trkpt>
      <trkpt lat="47.69133" lon="6.03799">
        <ele>208</ele>
        <time>2018-12-04T09:43:59Z</time>
      </trkpt>
      <trkpt lat="47.69131" lon="6.03799">
        <ele>208</ele>
        <time>2018-12-04T09:44:59Z</time>
      </trkpt>
      <trkpt lat="47.691" lon="6.03789">
        <ele>208</ele>
        <time>2018-12-04T09:45:59Z</time>
      </trkpt>
      <trkpt lat="47.69091" lon="6.03784">
        <ele>208</ele>
        <time>2018-12-04T09:46:59Z</time>
      </trkpt>
      <trkpt lat="47.69055" lon="6.03759">
        <ele>209</ele>
        <time>2018-12-04T09:47:59Z</time>
      </trkpt>
      <trkpt lat="47.69038" lon="6.03747">
        <ele>210</ele>
        <time>2018-12-04T09:48:59Z</time>
      </trkpt>
      <trkpt lat="47.69015" lon="6.03728">
        <ele>211</ele>
        <time>2018-12-04T09:49:59Z</time>
      </trkpt>
      <trkpt lat="47.68998" lon="6.03715">
        <ele>212</ele>
        <time>2018-12-04T09:50:59Z</time>
      </trkpt>
      <trkpt lat="47.68983" lon="6.03702">
        <ele>212</ele>
        <time>2018-12-04T09:51:59Z</time>
      </trkpt>
      <trkpt lat="47.68972" lon="6.03694">
        <ele>212</ele>
        <time>2018-12-04T09:52:59Z</time>
      </trkpt>
      <trkpt lat="47.68956" lon="6.03683">
        <ele>212</ele>
        <time>2018-12-04T09:53:59Z</time>
      </trkpt>
      <trkpt lat="47.68939" lon="6.03673">
        <ele>212</ele>
        <time>2018-12-04T09:54:59Z</time>
      </trkpt>
      <trkpt lat="47.68933" lon="6.03669">
        <ele>212</ele>
        <time>2018-12-04T09:55:59Z</time>
      </trkpt>
      <trkpt lat="47.68923" lon="6.03665">
        <ele>212</ele>
        <time>2018-12-04T09:56:59Z</time>
      </trkpt>
      <trkpt lat="47.68915" lon="6.03661">
        <ele>212</ele>
        <time>2018-12-04T09:57:59Z</time>
      </trkpt>
      <trkpt lat="47.6889" lon="6.03653">
        <ele>213</ele>
        <time>2018-12-04T09:58:59Z</time>
      </trkpt>
      <trkpt lat="47.68874" lon="6.03651">
        <ele>213</ele>
        <time>2018-12-04T09:59:59Z</time>
      </trkpt>
      <trkpt lat="47.68858" lon="6.03651">
        <ele>213</ele>
        <time>2018-12-04T10:00:59Z</time>
      </trkpt>
      <trkpt lat="47.68843" lon="6.03652">
        <ele>213</ele>
        <time>2018-12-04T10:01:59Z</time>
      </trkpt>
      <trkpt lat="47.68829" lon="6.03651">
        <ele>213</ele>
        <time>2018-12-04T10:02:59Z</time>
      </trkpt>
      <trkpt lat="47.68811" lon="6.03651">
        <ele>213</ele>
        <time>2018-12-04T10:03:59Z</time>
      </trkpt>
      <trkpt lat="47.6879" lon="6.03649">
        <ele>213</ele>
        <time>2018-12-04T10:04:59Z</time>
      </trkpt>
      <trkpt lat="47.68766" lon="6.03648">
        <ele>213</ele>
        <time>2018-12-04T10:05:59Z</time>
      </trkpt>
      <trkpt lat="47.68709" lon="6.03638">
        <ele>213</ele>
        <time>2018-12-04T10:06:59Z</time>
      </trkpt>
      <trkpt lat="47.6864" lon="6.0363">
        <ele>211.5</ele>
      </trkpt>
      <trkpt lat="47.68605" lon="6.03623">
        <ele>211</ele>
        <time>2018-12-04T10:09:59Z</time>
      </trkpt>
      <trkpt lat="47.68609" lon="6.03648">
        <ele>210</ele>
        <time>2018-12-03T09:21:10Z</time>
      </trkpt>
      <trkpt lat="47.68609" lon="6.03648">
        <ele>210</ele>
        <time>2018-12-03T09:21:10Z</time>
      </trkpt>
      <trkpt lat="47.68564" lon="6.03671">
        <ele>209</ele>
        <time>2018-12-03T09:22:10Z</time>
      </trkpt>
      <trkpt lat="47.68462" lon="6.0362">
        <ele>207</ele>
        <time>2018-12-03T09:23:10Z</time>
      </trkpt>
      <trkpt lat="47.68414" lon="6.03626">
        <ele>206</ele>
        <time>2018-12-03T09:24:10Z</time>
      </trkpt>
      <trkpt lat="47.6832" lon="6.03592">
        <ele>205</ele>
        <time>2018-12-03T09:25:10Z</time>
      </trkpt>
      <trkpt lat="47.68232" lon="6.03575">
        <ele>205</ele>
        <time>2018-12-03T09:26:10Z</time>
      </trkpt>
      <trkpt lat="47.68158" lon="6.03583">
        <ele>205</ele>
        <time>2018-12-03T09:27:10Z</time>
      </trkpt>
      <trkpt lat="47.68043" lon="6.03575">
        <ele>205</ele>
        <time>2018-12-03T09:28:10Z</time>
      </trkpt>
      <trkpt lat="47.67994" lon="6.03607">
        <ele>205</ele>
        <time>2018-12-03T09:29:10Z</time>
      </trkpt>
      <trkpt lat="47.67895" lon="6.03675">
        <ele>206</ele>
        <time>2018-12-03T09:30:10Z</time>
      </trkpt>
      <trkpt lat="47.67817" lon="6.03718">
        <ele>208</ele>
        <time>2018-12-03T09:31:10Z</time>
      </trkpt>
      <trkpt lat="47.67729" lon="6.03808">
        <ele>209</ele>
        <time>2018-12-03T09:32:10Z</time>
      </trkpt>
      <trkpt lat="47.67611" lon="6.03931">
        <ele>207</ele>
        <time>2018-12-03T09:33:10Z</time>
      </trkpt>
      <trkpt lat="47.67547" lon="6.03993">
        <ele>209</ele>
        <time>2018-12-03T09:34:10Z</time>
      </trkpt>
      <trkpt lat="47.67505" lon="6.03982">
        <ele>213</ele>
        <time>2018-12-03T09:35:10Z</time>
      </trkpt>
      <trkpt lat="47.67413" lon="6.0383">
        <ele>213</ele>
        <time>2018-12-03T09:36:10Z</time>
      </trkpt>
      <trkpt lat="47.67365" lon="6.03763">
        <ele>216</ele>
        <time>2018-12-03T09:37:10Z</time>
      </trkpt>
      <trkpt lat="47.67299" lon="6.03534">
        <ele>213</ele>
        <time>2018-12-03T09:38:10Z</time>
      </trkpt>
      <trkpt lat="47.67258" lon="6.03345">
        <ele>212</ele>
        <time>2018-12-03T09:39:10Z</time>
      </trkpt>
      <trkpt lat="47.67228" lon="6.03225">
        <ele>208</ele>
        <time>2018-12-03T09:40:10Z</time>
      </trkpt>
      <trkpt lat="47.67193" lon="6.02952">
        <ele>210</ele>
        <time>2018-12-03T09:41:10Z</time>
      </trkpt>
      <trkpt lat="47.67144" lon="6.02834">
        <ele>211</ele>
        <time>2018-12-03T09:42:10Z</time>
      </trkpt>
      <trkpt lat="47.67062" lon="6.02736">
        <ele>211</ele>
        <time>2018-12-03T09:43:10Z</time>
      </trkpt>
      <trkpt lat="47.66997" lon="6.0265">
        <ele>210</ele>
        <time>2018-12-03T09:44:10Z</time>
      </trkpt>
      <trkpt lat="47.66826" lon="6.02349">
        <ele>209</ele>
        <time>2018-12-03T09:45:10Z</time>
      </trkpt>
      <trkpt lat="47.66741" lon="6.02036">
        <ele>206</ele>
        <time>2018-12-03T09:46:10Z</time>
      </trkpt>
      <trkpt lat="47.66716" lon="6.01935">
        <ele>206</ele>
        <time>2018-12-03T09:47:10Z</time>
      </trkpt>
      <trkpt lat="47.66676" lon="6.01852">
        <ele>207</ele>
        <time>2018-12-03T09:48:10Z</time>
      </trkpt>
      <trkpt lat="47.66602" lon="6.01749">
        <ele>206</ele>
        <time>2018-12-03T09:49:10Z</time>
      </trkpt>
      <trkpt lat="47.66502" lon="6.01652">
        <ele>207</ele>
        <time>2018-12-03T09:50:10Z</time>
      </trkpt>
      <trkpt lat="47.66377" lon="6.01551">
        <ele>204</ele>
        <time>2018-12-03T09:51:10Z</time>
      </trkpt>
      <trkpt lat="47.66252" lon="6.01495">
        <ele>205</ele>
        <time>2018-12-03T09:52:10Z</time>
      </trkpt>
      <trkpt lat="47.66132" lon="6.01493">
        <ele>206</ele>
        <time>2018-12-03T09:53:10Z</time>
      </trkpt>
      <trkpt lat="47.66037" lon="6.01506">
        <ele>207</ele>
        <time>2018-12-03T09:54:10Z</time>
      </trkpt>
      <trkpt lat="47.65952" lon="6.01538">
        <ele>210</ele>
        <time>2018-12-03T09:55:10Z</time>
      </trkpt>
      <trkpt lat="47.65849" lon="6.01594">
        <ele>213</ele>
        <time>2018-12-03T09:56:10Z</time>
      </trkpt>
      <trkpt lat="47.65692" lon="6.01701">
        <ele>207</ele>
        <time>2018-12-03T09:57:10Z</time>
      </trkpt>
      <trkpt lat="47.6565" lon="6.01682">
        <ele>206</ele>
        <time>2018-12-03T09:58:10Z</time>
      </trkpt>
      <trkpt lat="47.65615" lon="6.01721">
        <ele>205</ele>
        <time>2018-12-03T09:59:10Z</time>
      </trkpt>
      <trkpt lat="47.65544" lon="6.01806">
        <ele>204</ele>
        <time>2018-12-03T10:00:10Z</time>
      </trkpt>
      <trkpt lat="47.65514" lon="6.01852">
        <ele>205</ele>
        <time>2018-12-03T10:01:10Z</time>
      </trkpt>
      <trkpt lat="47.65507" lon="6.01894">
        <ele>205</ele>
        <time>2018-12-03T10:02:10Z</time>
      </trkpt>
      <trkpt lat="47.65369" lon="6.01997">
        <ele>205</ele>
        <time>2018-12-03T10:03:10Z</time>
      </trkpt>
      <trkpt lat="47.65281" lon="6.02051">
        <ele>205</ele>
        <time>2018-12-03T10:04:10Z</time>
      </trkpt>
      <trkpt lat="47.6522" lon="6.02058">
        <ele>205</ele>
        <time>2018-12-03T10:05:10Z</time>
      </trkpt>
      <trkpt lat="47.65041" lon="6.02012">
        <ele>204</ele>
        <time>2018-12-03T10:06:10Z</time>
      </trkpt>
      <trkpt lat="47.64947" lon="6.01978">
        <ele>206</ele>
        <time>2018-12-03T10:07:10Z</time>
      </trkpt>
      <trkpt lat="47.64908" lon="6.01914">
        <ele>207</ele>
        <time>2018-12-03T10:08:10Z</time>
      </trkpt>
      <trkpt lat="47.64859" lon="6.01802">
        <ele>209</ele>
        <time>2018-12-03T10:09:10Z</time>
      </trkpt>
      <trkpt lat="47.64824" lon="6.01676">
        <ele>206</ele>
        <time>2018-12-03T10:10:10Z</time>
      </trkpt>
      <trkpt lat="47.64791" lon="6.01603">
        <ele>209</ele>
        <time>2018-12-03T10:11:10Z</time>
      </trkpt>
      <trkpt lat="47.64751" lon="6.01528">
        <ele>211</ele>
        <time>2018-12-03T10:12:10Z</time>
      </trkpt>
      <trkpt lat="47.64715" lon="6.01358">
        <ele>212</ele>
        <time>2018-12-03T10:13:10Z</time>
      </trkpt>
      <trkpt lat="47.6466" lon="6.00937">
        <ele>212</ele>
        <time>2018-12-03T10:14:10Z</time>
      </trkpt>
      <trkpt lat="47.64678" lon="6.00882">
        <ele>207</ele>
        <time>2018-12-03T10:15:10Z</time>
      </trkpt>
      <trkpt lat="47.64688" lon="6.00738">
        <ele>207</ele>
        <time>2018-12-03T10:16:10Z</time>
      </trkpt>
      <trkpt lat="47.64696" lon="6.00633">
        <ele>207</ele>
        <time>2018-12-03T10:17:10Z</time>
      </trkpt>
      <trkpt lat="47.64675" lon="6.00259">
        <ele>205</ele>
        <time>2018-12-03T10:18:10Z</time>
      </trkpt>
      <trkpt lat="47.64655" lon="6.00176">
        <ele>209</ele>
        <time>2018-12-03T10:19:10Z</time>
      </trkpt>
      <trkpt lat="47.64728" lon="5.99903">
        <ele>209</ele>
        <time>2018-12-03T10:20:10Z</time>
      </trkpt>
      <trkpt lat="47.64874" lon="5.99701">
        <ele>209</ele>
        <time>2018-12-03T10:21:10Z</time>
      </trkpt>
      <trkpt lat="47.65012" lon="5.99558">
        <ele>205</ele>
        <time>2018-12-03T10:22:10Z</time>
      </trkpt>
      <trkpt lat="47.65064" lon="5.99755">
        <ele>205</ele>
        <time>2018-12-03T10:23:10Z</time>
      </trkpt>
      <trkpt lat="47.65219" lon="5.99785">
        <ele>203</ele>
        <time>2018-12-03T10:24:10Z</time>
      </trkpt>
      <trkpt lat="47.65326" lon="5.99839">
        <ele>206</ele>
        <time>2018-12-03T10:25:10Z</time>
      </trkpt>
      <trkpt lat="47.65359" lon="5.99779">
        <ele>208</ele>
        <time>2018-12-03T10:26:10Z</time>
      </trkpt>
      <trkpt lat="47.65457" lon="5.99532">
        <ele>207</ele>
        <time>2018-12-03T10:27:10Z</time>
      </trkpt>
      <trkpt lat="47.65572" lon="5.99165">
        <ele>210</ele>
        <time>2018-12-03T10:28:10Z</time>
      </trkpt>
      <trkpt lat="47.65641" lon="5.9877">
        <ele>213</ele>
        <time>2018-12-03T10:29:10Z</time>
      </trkpt>
      <trkpt lat="47.65775" lon="5.9839">
        <ele>209</ele>
        <time>2018-12-03T10:30:10Z</time>
      </trkpt>
      <trkpt lat="47.65855" lon="5.98305">
        <ele>208</ele>
        <time>2018-12-03T10:31:10Z</time>
      </trkpt>
      <trkpt lat="47.65916" lon="5.98193">
        <ele>208</ele>
        <time>2018-12-03T10:32:10Z</time>
      </trkpt>
      <trkpt lat="47.66063" lon="5.97927">
        <ele>210</ele>
        <time>2018-12-03T10:33:10Z</time>
      </trkpt>
      <trkpt lat="47.66163" lon="5.9773">
        <ele>211</ele>
        <time>2018-12-03T10:34:10Z</time>
      </trkpt>
      <trkpt lat="47.66229" lon="5.97639">
        <ele>212</ele>
        <time>2018-12-03T10:35:10Z</time>
      </trkpt>
      <trkpt lat="47.66265" lon="5.97577">
        <ele>212</ele>
        <time>2018-12-03T10:36:10Z</time>
      </trkpt>
      <trkpt lat="47.66382" lon="5.97534">
        <ele>213</ele>
        <time>2018-12-03T10:37:10Z</time>
      </trkpt>
      <trkpt lat="47.66447" lon="5.97451">
        <ele>213</ele>
        <time>2018-12-03T10:38:10Z</time>
      </trkpt>
      <trkpt lat="47.66495" lon="5.97277">
        <ele>212</ele>
        <time>2018-12-03T10:39:10Z</time>
      </trkpt>
      <trkpt lat="47.66507" lon="5.9718">
        <ele>211</ele>
        <time>2018-12-03T10:40:10Z</time>
      </trkpt>
      <trkpt lat="47.6644" lon="5.96925">
        <ele>206</ele>
        <time>2018-12-03T10:41:10Z</time>
      </trkpt>
      <trkpt lat="47.66645" lon="5.96573">
        <ele>207</ele>
        <time>2018-12-03T10:42:10Z</time>
      </trkpt>
      <trkpt lat="47.66382" lon="5.96361">
        <ele>208</ele>
        <time>2018-12-03T10:43:10Z</time>
      </trkpt>
      <trkpt lat="47.66154" lon="5.96444">
        <ele>209</ele>
        <time>2018-12-03T10:44:10Z</time>
      </trkpt>
      <trkpt lat="47.66053" lon="5.9647">
        <ele>206</ele>
        <time>2018-12-03T10:45:10Z</time>
      </trkpt>
      <trkpt lat="47.66002" lon="5.96406">
        <ele>206</ele>
        <time>2018-12-03T10:46:10Z</time>
      </trkpt>
      <trkpt lat="47.65924" lon="5.96345">
        <ele>205</ele>
        <time>2018-12-03T10:47:10Z</time>
      </trkpt>
      <trkpt lat="47.65849" lon="5.96313">
        <ele>209</ele>
        <time>2018-12-03T10:48:10Z</time>
      </trkpt>
      <trkpt lat="47.65786" lon="5.96307">
        <ele>214</ele>
        <time>2018-12-03T10:49:10Z</time>
      </trkpt>
      <trkpt lat="47.65696" lon="5.96348">
        <ele>225</ele>
        <time>2018-12-03T10:50:10Z</time>
      </trkpt>
      <trkpt lat="47.65534" lon="5.96511">
        <ele>219</ele>
        <time>2018-12-03T10:51:10Z</time>
      </trkpt>
      <trkpt lat="47.6546" lon="5.96545">
        <ele>212</ele>
        <time>2018-12-03T10:52:10Z</time>
      </trkpt>
      <trkpt lat="47.65427" lon="5.96528">
        <ele>210</ele>
        <time>2018-12-03T10:53:10Z</time>
      </trkpt>
      <trkpt lat="47.654" lon="5.96481">
        <ele>211</ele>
        <time>2018-12-03T10:54:10Z</time>
      </trkpt>
      <trkpt lat="47.65356" lon="5.96479">
        <ele>209</ele>
        <time>2018-12-03T10:55:10Z</time>
      </trkpt>
      <trkpt lat="47.65342" lon="5.96526">
        <ele>208</ele>
        <time>2018-12-03T10:56:10Z</time>
      </trkpt>
      <trkpt lat="47.65303" lon="5.96521">
        <ele>210</ele>
        <time>2018-12-03T10:57:10Z</time>
      </trkpt>
      <trkpt lat="47.65229" lon="5.96562">
        <ele>210</ele>
        <time>2018-12-03T10:58:10Z</time>
      </trkpt>
      <trkpt lat="47.65166" lon="5.96571">
        <ele>212</ele>
        <time>2018-12-03T10:59:10Z</time>
      </trkpt>
      <trkpt lat="47.65095" lon="5.96592">
        <ele>209</ele>
        <time>2018-12-03T11:00:10Z</time>
      </trkpt>
      <trkpt lat="47.65011" lon="5.96567">
        <ele>212</ele>
        <time>2018-12-03T11:01:10Z</time>
      </trkpt>
      <trkpt lat="47.64936" lon="5.96556">
        <ele>212</ele>
        <time>2018-12-03T11:02:10Z</time>
      </trkpt>
      <trkpt lat="47.64897" lon="5.96547">
        <ele>214</ele>
        <time>2018-12-03T11:03:10Z</time>
      </trkpt>
      <trkpt lat="47.64767" lon="5.96562">
        <ele>215</ele>
        <time>2018-12-03T11:04:10Z</time>
      </trkpt>
      <trkpt lat="47.64647" lon="5.9656">
        <ele>214</ele>
        <time>2018-12-03T11:05:10Z</time>
      </trkpt>
      <trkpt lat="47.64262" lon="5.9677">
        <ele>209</ele>
        <time>2018-12-03T11:06:10Z</time>
      </trkpt>
      <trkpt lat="47.64184" lon="5.96509">
        <ele>226</ele>
        <time>2018-12-03T11:07:10Z</time>
      </trkpt>
      <trkpt lat="47.64126" lon="5.96311">
        <ele>232</ele>
        <time>2018-12-03T11:08:10Z</time>
      </trkpt>
      <trkpt lat="47.64099" lon="5.96204">
        <ele>235</ele>
        <time>2018-12-03T11:09:10Z</time>
      </trkpt>
      <trkpt lat="47.64057" lon="5.96011">
        <ele>232</ele>
        <time>2018-12-03T11:10:10Z</time>
      </trkpt>
      <trkpt lat="47.6401" lon="5.9588">
        <ele>234</ele>
        <time>2018-12-03T11:11:10Z</time>
      </trkpt>
      <trkpt lat="47.63986" lon="5.95811">
        <ele>231</ele>
        <time>2018-12-03T11:12:10Z</time>
      </trkpt>
      <trkpt lat="47.63989" lon="5.95706">
        <ele>226</ele>
        <time>2018-12-03T11:13:10Z</time>
      </trkpt>
      <trkpt lat="47.63973" lon="5.95618">
        <ele>224</ele>
        <time>2018-12-03T11:14:10Z</time>
      </trkpt>
      <trkpt lat="47.63892" lon="5.95466">
        <ele>227</ele>
        <time>2018-12-03T11:15:10Z</time>
      </trkpt>
      <trkpt lat="47.63833" lon="5.95339">
        <ele>220</ele>
        <time>2018-12-03T11:16:10Z</time>
      </trkpt>
      <trkpt lat="47.63807" lon="5.9518">
        <ele>211</ele>
        <time>2018-12-03T11:17:10Z</time>
      </trkpt>
      <trkpt lat="47.63812" lon="5.9514">
        <ele>209</ele>
        <time>2018-12-03T11:18:10Z</time>
      </trkpt>
      <trkpt lat="47.6395" lon="5.94406">
        <ele>201</ele>
        <time>2018-12-03T11:19:10Z</time>
      </trkpt>
      <trkpt lat="47.63956" lon="5.94313">
        <ele>201</ele>
        <time>2018-12-03T11:20:10Z</time>
      </trkpt>
      <trkpt lat="47.64003" lon="5.94092">
        <ele>201</ele>
        <time>2018-12-03T11:21:10Z</time>
      </trkpt>
      <trkpt lat="47.64052" lon="5.93949">
        <ele>200</ele>
        <time>2018-12-03T11:22:10Z</time>
      </trkpt>
      <trkpt lat="47.64089" lon="5.9385">
        <ele>201</ele>
        <time>2018-12-03T11:23:10Z</time>
      </trkpt>
      <trkpt lat="47.64093" lon="5.9367">
        <ele>200</ele>
        <time>2018-12-03T11:24:10Z</time>
      </trkpt>
      <trkpt lat="47.64117" lon="5.93494">
        <ele>201</ele>
        <time>2018-12-03T11:25:10Z</time>
      </trkpt>
      <trkpt lat="47.64159" lon="5.9335">
        <ele>201</ele>
        <time>2018-12-03T11:26:10Z</time>
      </trkpt>
      <trkpt lat="47.64149" lon="5.93208">
        <ele>201</ele>
        <time>2018-12-03T11:27:10Z</time>
      </trkpt>
      <trkpt lat="47.64155" lon="5.93155">
        <ele>200</ele>
        <time>2018-12-03T11:28:10Z</time>
      </trkpt>
      <trkpt lat="47.64142" lon="5.93045">
        <ele>199</ele>
        <time>2018-12-03T11:29:10Z</time>
      </trkpt>
      <trkpt lat="47.6411" lon="5.92906">
        <ele>200</ele>
        <time>2018-12-03T11:30:10Z</time>
      </trkpt>
      <trkpt lat="47.63684" lon="5.91801">
        <ele>200</ele>
        <time>2018-12-03T11:31:10Z</time>
      </trkpt>
      <trkpt lat="47.63609" lon="5.91706">
        <ele>200</ele>
        <time>2018-12-03T11:32:10Z</time>
      </trkpt>
      <trkpt lat="47.63558" lon="5.91666">
        <ele>200</ele>
        <time>2018-12-03T11:33:10Z</time>
      </trkpt>
      <trkpt lat="47.63496" lon="5.91655">
        <ele>200</ele>
        <time>2018-12-03T11:34:10Z</time>
      </trkpt>
      <trkpt lat="47.63364" lon="5.91704">
        <ele>200</ele>
        <time>2018-12-03T11:35:10Z</time>
      </trkpt>
      <trkpt lat="47.63276" lon="5.91708">
        <ele>199</ele>
        <time>2018-12-03T11:36:10Z</time>
      </trkpt>
      <trkpt lat="47.63218" lon="5.91724">
        <ele>199</ele>
        <time>2018-12-03T11:37:10Z</time>
      </trkpt>
      <trkpt lat="47.63121" lon="5.91747">
        <ele>201</ele>
        <time>2018-12-03T11:38:10Z</time>
      </trkpt>
      <trkpt lat="47.63037" lon="5.91751">
        <ele>201</ele>
        <time>2018-12-03T11:39:10Z</time>
      </trkpt>
      <trkpt lat="47.62943" lon="5.91726">
        <ele>200</ele>
        <time>2018-12-03T11:40:10Z</time>
      </trkpt>
      <trkpt lat="47.62859" lon="5.91691">
        <ele>200</ele>
        <time>2018-12-03T11:41:10Z</time>
      </trkpt>
      <trkpt lat="47.62771" lon="5.91674">
        <ele>199</ele>
        <time>2018-12-03T11:42:10Z</time>
      </trkpt>
      <trkpt lat="47.62673" lon="5.91608">
        <ele>204</ele>
        <time>2018-12-03T11:43:10Z</time>
      </trkpt>
      <trkpt lat="47.62617" lon="5.91533">
        <ele>206</ele>
        <time>2018-12-03T11:44:10Z</time>
      </trkpt>
      <trkpt lat="47.62518" lon="5.91376">
        <ele>206</ele>
        <time>2018-12-03T11:45:10Z</time>
      </trkpt>
      <trkpt lat="47.6241" lon="5.91194">
        <ele>202</ele>
        <time>2018-12-03T11:46:10Z</time>
      </trkpt>
      <trkpt lat="47.62342" lon="5.91103">
        <ele>201</ele>
        <time>2018-12-03T11:47:10Z</time>
      </trkpt>
      <trkpt lat="47.62222" lon="5.90977">
        <ele>199</ele>
        <time>2018-12-03T11:48:10Z</time>
      </trkpt>
      <trkpt lat="47.62131" lon="5.90867">
        <ele>199</ele>
        <time>2018-12-03T11:49:10Z</time>
      </trkpt>
      <trkpt lat="47.62016" lon="5.907">
        <ele>201</ele>
        <time>2018-12-03T11:50:10Z</time>
      </trkpt>
      <trkpt lat="47.61963" lon="5.90496">
        <ele>199</ele>
        <time>2018-12-03T11:51:10Z</time>
      </trkpt>
      <trkpt lat="47.6194" lon="5.90432">
        <ele>198</ele>
        <time>2018-12-03T11:52:10Z</time>
      </trkpt>
      <trkpt lat="47.61873" lon="5.90249">
        <ele>200</ele>
        <time>2018-12-03T11:53:10Z</time>
      </trkpt>
      <trkpt lat="47.61794" lon="5.90041">
        <ele>200</ele>
        <time>2018-12-03T11:54:10Z</time>
      </trkpt>
      <trkpt lat="47.61729" lon="5.89958">
        <ele>200</ele>
        <time>2018-12-03T11:55:10Z</time>
      </trkpt>
      <trkpt lat="47.61652" lon="5.89917">
        <ele>200</ele>
        <time>2018-12-03T11:56:10Z</time>
      </trkpt>
      <trkpt lat="47.61536" lon="5.89897">
        <ele>199</ele>
        <time>2018-12-03T11:57:10Z</time>
      </trkpt>
      <trkpt lat="47.61471" lon="5.89915">
        <ele>198</ele>
        <time>2018-12-03T11:58:10Z</time>
      </trkpt>
      <trkpt lat="47.614" lon="5.89887">
        <ele>199</ele>
        <time>2018-12-03T11:59:10Z</time>
      </trkpt>
      <trkpt lat="47.61295" lon="5.89876">
        <ele>200</ele>
        <time>2018-12-03T12:00:10Z</time>
      </trkpt>
      <trkpt lat="47.61031" lon="5.89852">
        <ele>199</ele>
        <time>2018-12-03T12:01:10Z</time>
      </trkpt>
      <trkpt lat="47.60952" lon="5.89835">
        <ele>198</ele>
        <time>2018-12-03T12:02:10Z</time>
      </trkpt>
      <trkpt lat="47.60859" lon="5.89782">
        <ele>199</ele>
        <time>2018-12-03T12:03:10Z</time>
      </trkpt>
      <trkpt lat="47.60772" lon="5.89685">
        <ele>204</ele>
        <time>2018-12-03T12:04:10Z</time>
      </trkpt>
      <trkpt lat="47.60751" lon="5.89627">
        <ele>203</ele>
        <time>2018-12-03T12:05:10Z</time>
      </trkpt>
      <trkpt lat="47.60714" lon="5.89436">
        <ele>203</ele>
        <time>2018-12-03T12:06:10Z</time>
      </trkpt>
      <trkpt lat="47.60671" lon="5.89277">
        <ele>202</ele>
        <time>2018-12-03T12:07:10Z</time>
      </trkpt>
      <trkpt lat="47.60636" lon="5.89164">
        <ele>204</ele>
        <time>2018-12-03T12:08:10Z</time>
      </trkpt>
      <trkpt lat="47.60606" lon="5.89016">
        <ele>200</ele>
        <time>2018-12-03T12:09:10Z</time>
      </trkpt>
      <trkpt lat="47.60607" lon="5.88906">
        <ele>198</ele>
        <time>2018-12-03T12:10:10Z</time>
      </trkpt>
      <trkpt lat="47.60652" lon="5.88786">
        <ele>196</ele>
        <time>2018-12-03T12:11:10Z</time>
      </trkpt>
      <trkpt lat="47.60717" lon="5.88657">
        <ele>198</ele>
        <time>2018-12-03T12:12:10Z</time>
      </trkpt>
      <trkpt lat="47.60746" lon="5.88576">
        <ele>200</ele>
        <time>2018-12-03T12:13:10Z</time>
      </trkpt>
      <trkpt lat="47.60769" lon="5.88475">
        <ele>200</ele>
        <time>2018-12-03T12:14:10Z</time>
      </trkpt>
      <trkpt lat="47.60768" lon="5.88365">
        <ele>199</ele>
        <time>2018-12-03T12:15:10Z</time>
      </trkpt>
      <trkpt lat="47.60739" lon="5.88258">
        <ele>198</ele>
        <time>2018-12-03T12:16:10Z</time>
      </trkpt>
      <trkpt lat="47.60688" lon="5.88179">
        <ele>197</ele>
        <time>2018-12-03T12:17:10Z</time>
      </trkpt>
      <trkpt lat="47.60644" lon="5.88138">
        <ele>197</ele>
        <time>2018-12-03T12:18:10Z</time>
      </trkpt>
      <trkpt lat="47.60547" lon="5.88144">
        <ele>198</ele>
        <time>2018-12-03T12:19:10Z</time>
      </trkpt>
      <trkpt lat="47.60445" lon="5.88164">
        <ele>198</ele>
        <time>2018-12-03T12:20:10Z</time>
      </trkpt>
      <trkpt lat="47.60396" lon="5.88131">
        <ele>203</ele>
        <time>2018-12-03T12:21:10Z</time>
      </trkpt>
      <trkpt lat="47.60347" lon="5.87883">
        <ele>198</ele>
        <time>2018-12-03T12:22:10Z</time>
      </trkpt>
      <trkpt lat="47.60331" lon="5.87814">
        <ele>197</ele>
        <time>2018-12-03T12:23:10Z</time>
      </trkpt>
      <trkpt lat="47.60217" lon="5.87544">
        <ele>199</ele>
        <time>2018-12-03T12:24:10Z</time>
      </trkpt>
      <trkpt lat="47.60126" lon="5.87265">
        <ele>198</ele>
        <time>2018-12-03T12:25:10Z</time>
      </trkpt>
      <trkpt lat="47.60032" lon="5.87033">
        <ele>207</ele>
        <time>2018-12-03T12:26:10Z</time>
      </trkpt>
      <trkpt lat="47.59994" lon="5.86977">
        <ele>212</ele>
        <time>2018-12-03T12:27:10Z</time>
      </trkpt>
      <trkpt lat="47.59884" lon="5.86926">
        <ele>216</ele>
        <time>2018-12-03T12:28:10Z</time>
      </trkpt>
      <trkpt lat="47.59732" lon="5.86911">
        <ele>210</ele>
        <time>2018-12-03T12:29:10Z</time>
      </trkpt>
      <trkpt lat="47.59501" lon="5.86891">
        <ele>208</ele>
        <time>2018-12-03T12:30:10Z</time>
      </trkpt>
      <trkpt lat="47.59341" lon="5.86911">
        <ele>210</ele>
        <time>2018-12-03T12:31:10Z</time>
      </trkpt>
      <trkpt lat="47.5921" lon="5.86926">
        <ele>213</ele>
        <time>2018-12-03T12:32:10Z</time>
      </trkpt>
      <trkpt lat="47.58888" lon="5.87123">
        <ele>205</ele>
        <time>2018-12-03T12:33:10Z</time>
      </trkpt>
      <trkpt lat="47.58703" lon="5.87089">
        <ele>208</ele>
        <time>2018-12-03T12:34:10Z</time>
      </trkpt>
      <trkpt lat="47.58501" lon="5.87018">
        <ele>205</ele>
        <time>2018-12-03T12:35:10Z</time>
      </trkpt>
      <trkpt lat="47.58475" lon="5.87014">
        <ele>204</ele>
        <time>2018-12-03T12:36:10Z</time>
      </trkpt>
      <trkpt lat="47.58493" lon="5.86973">
        <ele>205</ele>
        <time>2018-12-03T12:37:10Z</time>
      </trkpt>
      <trkpt lat="47.58457" lon="5.86962">
        <ele>204</ele>
        <time>2018-12-03T12:38:10Z</time>
      </trkpt>
      <trkpt lat="47.58409" lon="5.86975">
        <ele>202</ele>
        <time>2018-12-03T12:39:10Z</time>
      </trkpt>
      <trkpt lat="47.58354" lon="5.86964">
        <ele>201</ele>
        <time>2018-12-03T12:40:10Z</time>
      </trkpt>
      <trkpt lat="47.58305" lon="5.86881">
        <ele>200</ele>
        <time>2018-12-03T12:41:10Z</time>
      </trkpt>
      <trkpt lat="47.58265" lon="5.86765">
        <ele>200</ele>
        <time>2018-12-03T12:42:10Z</time>
      </trkpt>
      <trkpt lat="47.5825" lon="5.86572">
        <ele>200</ele>
        <time>2018-12-03T12:43:10Z</time>
      </trkpt>
      <trkpt lat="47.58275" lon="5.86318">
        <ele>199</ele>
        <time>2018-12-03T12:44:10Z</time>
      </trkpt>
      <trkpt lat="47.58328" lon="5.8611">
        <ele>198</ele>
        <time>2018-12-03T12:45:10Z</time>
      </trkpt>
      <trkpt lat="47.58395" lon="5.85947">
        <ele>198</ele>
        <time>2018-12-03T12:46:10Z</time>
      </trkpt>
      <trkpt lat="47.58418" lon="5.85868">
        <ele>198</ele>
        <time>2018-12-03T12:47:10Z</time>
      </trkpt>
      <trkpt lat="47.58522" lon="5.85649">
        <ele>196</ele>
        <time>2018-12-03T12:48:10Z</time>
      </trkpt>
      <trkpt lat="47.58616" lon="5.85619">
        <ele>197</ele>
        <time>2018-12-03T12:49:10Z</time>
      </trkpt>
      <trkpt lat="47.58748" lon="5.85595">
        <ele>198</ele>
        <time>2018-12-03T12:50:10Z</time>
      </trkpt>
      <trkpt lat="47.58933" lon="5.85615">
        <ele>200</ele>
        <time>2018-12-03T12:51:10Z</time>
      </trkpt>
      <trkpt lat="47.59046" lon="5.85589">
        <ele>198</ele>
        <time>2018-12-03T12:52:10Z</time>
      </trkpt>
      <trkpt lat="47.59175" lon="5.85507">
        <ele>196</ele>
        <time>2018-12-03T12:53:10Z</time>
      </trkpt>
      <trkpt lat="47.59302" lon="5.85396">
        <ele>197</ele>
        <time>2018-12-03T12:54:10Z</time>
      </trkpt>
      <trkpt lat="47.59362" lon="5.85263">
        <ele>197</ele>
        <time>2018-12-03T12:55:10Z</time>
      </trkpt>
      <trkpt lat="47.59379" lon="5.85061">
        <ele>197</ele>
        <time>2018-12-03T12:56:10Z</time>
      </trkpt>
      <trkpt lat="47.59433" lon="5.85005">
        <ele>196</ele>
        <time>2018-12-03T12:57:10Z</time>
      </trkpt>
      <trkpt lat="47.60069" lon="5.83866">
        <ele>197</ele>
        <time>2018-12-03T12:58:10Z</time>
      </trkpt>
      <trkpt lat="47.60186" lon="5.83947">
        <ele>199</ele>
        <time>2018-12-03T12:59:10Z</time>
      </trkpt>
      <trkpt lat="47.60259" lon="5.84037">
        <ele>202</ele>
        <time>2018-12-03T13:00:10Z</time>
      </trkpt>
      <trkpt lat="47.60269" lon="5.83992">
        <ele>201</ele>
        <time>2018-12-03T13:01:10Z</time>
      </trkpt>
      <trkpt lat="47.60215" lon="5.83939">
        <ele>200</ele>
        <time>2018-12-03T13:02:10Z</time>
      </trkpt>
      <trkpt lat="47.60176" lon="5.83786">
        <ele>199</ele>
        <time>2018-12-03T13:03:10Z</time>
      </trkpt>
      <trkpt lat="47.60136" lon="5.83694">
        <ele>202</ele>
        <time>2018-12-03T13:04:10Z</time>
      </trkpt>
      <trkpt lat="47.60113" lon="5.83632">
        <ele>208</ele>
        <time>2018-12-03T13:05:10Z</time>
      </trkpt>
      <trkpt lat="47.60008" lon="5.83494">
        <ele>211</ele>
        <time>2018-12-03T13:06:10Z</time>
      </trkpt>
      <trkpt lat="47.59812" lon="5.83316">
        <ele>215</ele>
        <time>2018-12-03T13:07:10Z</time>
      </trkpt>
      <trkpt lat="47.59613" lon="5.83181">
        <ele>220</ele>
        <time>2018-12-03T13:08:10Z</time>
      </trkpt>
      <trkpt lat="47.59405" lon="5.83087">
        <ele>218</ele>
        <time>2018-12-03T13:09:10Z</time>
      </trkpt>
      <trkpt lat="47.58994" lon="5.82973">
        <ele>221</ele>
        <time>2018-12-03T13:10:10Z</time>
      </trkpt>
      <trkpt lat="47.58873" lon="5.82945">
        <ele>219</ele>
        <time>2018-12-03T13:11:10Z</time>
      </trkpt>
      <trkpt lat="47.58755" lon="5.82904">
        <ele>211</ele>
        <time>2018-12-03T13:12:10Z</time>
      </trkpt>
      <trkpt lat="47.587" lon="5.82814">
        <ele>215</ele>
        <time>2018-12-03T13:13:10Z</time>
      </trkpt>
      <trkpt lat="47.58563" lon="5.82819">
        <ele>203</ele>
        <time>2018-12-03T13:14:10Z</time>
      </trkpt>
      <trkpt lat="47.58466" lon="5.82868">
        <ele>199</ele>
        <time>2018-12-03T13:15:10Z</time>
      </trkpt>
      <trkpt lat="47.58253" lon="5.82808">
        <ele>198</ele>
        <time>2018-12-03T13:16:10Z</time>
      </trkpt>
      <trkpt lat="47.57712" lon="5.82595">
        <ele>197</ele>
        <time>2018-12-03T13:17:10Z</time>
      </trkpt>
      <trkpt lat="47.57648" lon="5.82462">
        <ele>197</ele>
        <time>2018-12-03T13:18:10Z</time>
      </trkpt>
      <trkpt lat="47.57602" lon="5.82293">
        <ele>196</ele>
        <time>2018-12-03T13:19:10Z</time>
      </trkpt>
      <trkpt lat="47.57597" lon="5.82175">
        <ele>195</ele>
        <time>2018-12-03T13:20:10Z</time>
      </trkpt>
      <trkpt lat="47.57634" lon="5.81847">
        <ele>198</ele>
        <time>2018-12-03T13:21:10Z</time>
      </trkpt>
      <trkpt lat="47.57729" lon="5.80883">
        <ele>198</ele>
        <time>2018-12-03T13:22:10Z</time>
      </trkpt>
      <trkpt lat="47.57816" lon="5.80128">
        <ele>197</ele>
        <time>2018-12-03T13:23:10Z</time>
      </trkpt>
      <trkpt lat="47.57913" lon="5.79188">
        <ele>196</ele>
        <time>2018-12-03T13:24:10Z</time>
      </trkpt>
      <trkpt lat="47.57965" lon="5.78634">
        <ele>198</ele>
        <time>2018-12-03T13:25:10Z</time>
      </trkpt>
      <trkpt lat="47.57962" lon="5.78583">
        <ele>199</ele>
        <time>2018-12-03T13:26:10Z</time>
      </trkpt>
      <trkpt lat="47.57978" lon="5.78521">
        <ele>199</ele>
        <time>2018-12-03T13:27:10Z</time>
      </trkpt>
      <trkpt lat="47.58004" lon="5.78267">
        <ele>198</ele>
        <time>2018-12-03T13:28:10Z</time>
      </trkpt>
      <trkpt lat="47.58027" lon="5.78102">
        <ele>201</ele>
        <time>2018-12-03T13:29:10Z</time>
      </trkpt>
      <trkpt lat="47.58066" lon="5.77931">
        <ele>204</ele>
        <time>2018-12-03T13:30:10Z</time>
      </trkpt>
      <trkpt lat="47.581" lon="5.77664">
        <ele>200</ele>
        <time>2018-12-03T13:31:10Z</time>
      </trkpt>
      <trkpt lat="47.58129" lon="5.77581">
        <ele>199</ele>
        <time>2018-12-03T13:32:10Z</time>
      </trkpt>
      <trkpt lat="47.5814" lon="5.77428">
        <ele>198</ele>
        <time>2018-12-03T13:33:10Z</time>
      </trkpt>
      <trkpt lat="47.58133" lon="5.77287">
        <ele>197</ele>
        <time>2018-12-03T13:34:10Z</time>
      </trkpt>
      <trkpt lat="47.58116" lon="5.77197">
        <ele>195</ele>
        <time>2018-12-03T13:35:10Z</time>
      </trkpt>
      <trkpt lat="47.5802" lon="5.76948">
        <ele>194</ele>
        <time>2018-12-03T13:36:10Z</time>
      </trkpt>
      <trkpt lat="47.5799" lon="5.76866">
        <ele>195</ele>
        <time>2018-12-03T13:37:10Z</time>
      </trkpt>
      <trkpt lat="47.5794" lon="5.76707">
        <ele>196</ele>
        <time>2018-12-03T13:38:10Z</time>
      </trkpt>
      <trkpt lat="47.57893" lon="5.76585">
        <ele>195</ele>
        <time>2018-12-03T13:39:10Z</time>
      </trkpt>
      <trkpt lat="47.57878" lon="5.76566">
        <ele>195</ele>
        <time>2018-12-03T13:40:10Z</time>
      </trkpt>
      <trkpt lat="47.57744" lon="5.76439">
        <ele>194</ele>
        <time>2018-12-03T13:41:10Z</time>
      </trkpt>
      <trkpt lat="47.57629" lon="5.76396">
        <ele>195</ele>
        <time>2018-12-03T13:42:10Z</time>
      </trkpt>
      <trkpt lat="47.57547" lon="5.76435">
        <ele>194</ele>
        <time>2018-12-03T13:43:10Z</time>
      </trkpt>
      <trkpt lat="47.57463" lon="5.76501">
        <ele>195</ele>
        <time>2018-12-03T13:44:10Z</time>
      </trkpt>
      <trkpt lat="47.57385" lon="5.76577">
        <ele>195</ele>
        <time>2018-12-03T13:45:10Z</time>
      </trkpt>
      <trkpt lat="47.57324" lon="5.76617">
        <ele>195</ele>
        <time>2018-12-03T13:46:10Z</time>
      </trkpt>
      <trkpt lat="47.57207" lon="5.76598">
        <ele>196</ele>
        <time>2018-12-03T13:47:10Z</time>
      </trkpt>
      <trkpt lat="47.57102" lon="5.76551">
        <ele>195</ele>
        <time>2018-12-03T13:48:10Z</time>
      </trkpt>
      <trkpt lat="47.5701" lon="5.76437">
        <ele>194</ele>
        <time>2018-12-03T13:49:10Z</time>
      </trkpt>
      <trkpt lat="47.56917" lon="5.76265">
        <ele>194</ele>
        <time>2018-12-03T13:50:10Z</time>
      </trkpt>
      <trkpt lat="47.56833" lon="5.75993">
        <ele>197</ele>
        <time>2018-12-03T13:51:10Z</time>
      </trkpt>
      <trkpt lat="47.5683" lon="5.75847">
        <ele>196</ele>
        <time>2018-12-03T13:52:10Z</time>
      </trkpt>
      <trkpt lat="47.56878" lon="5.75748">
        <ele>194</ele>
        <time>2018-12-03T13:53:10Z</time>
      </trkpt>
      <trkpt lat="47.56999" lon="5.75632">
        <ele>194</ele>
        <time>2018-12-03T13:54:10Z</time>
      </trkpt>
      <trkpt lat="47.57056" lon="5.75529">
        <ele>195</ele>
        <time>2018-12-03T13:55:10Z</time>
      </trkpt>
      <trkpt lat="47.57073" lon="5.75343">
        <ele>198</ele>
        <time>2018-12-03T13:56:10Z</time>
      </trkpt>
      <trkpt lat="47.57049" lon="5.75242">
        <ele>196</ele>
        <time>2018-12-03T13:57:10Z</time>
      </trkpt>
      <trkpt lat="47.57017" lon="5.75186">
        <ele>197</ele>
        <time>2018-12-03T13:58:10Z</time>
      </trkpt>
      <trkpt lat="47.56986" lon="5.75132">
        <ele>199</ele>
        <time>2018-12-03T13:59:10Z</time>
      </trkpt>
      <trkpt lat="47.56978" lon="5.75087">
        <ele>200</ele>
        <time>2018-12-03T14:00:10Z</time>
      </trkpt>
      <trkpt lat="47.5695" lon="5.75019">
        <ele>197</ele>
        <time>2018-12-03T14:01:10Z</time>
      </trkpt>
      <trkpt lat="47.56933" lon="5.74974">
        <ele>197</ele>
        <time>2018-12-03T14:02:10Z</time>
      </trkpt>
      <trkpt lat="47.56902" lon="5.74995">
        <ele>196</ele>
        <time>2018-12-03T14:03:10Z</time>
      </trkpt>
      <trkpt lat="47.56794" lon="5.74738">
        <ele>197</ele>
        <time>2018-12-03T14:04:10Z</time>
      </trkpt>
      <trkpt lat="47.56735" lon="5.74637">
        <ele>200</ele>
        <time>2018-12-03T14:05:10Z</time>
      </trkpt>
      <trkpt lat="47.56659" lon="5.74534">
        <ele>200</ele>
        <time>2018-12-03T14:06:10Z</time>
      </trkpt>
      <trkpt lat="47.56289" lon="5.74195">
        <ele>198</ele>
        <time>2018-12-03T14:07:10Z</time>
      </trkpt>
      <trkpt lat="47.56134" lon="5.74077">
        <ele>195</ele>
        <time>2018-12-03T14:08:10Z</time>
      </trkpt>
      <trkpt lat="47.56045" lon="5.7401">
        <ele>196</ele>
        <time>2018-12-03T14:09:10Z</time>
      </trkpt>
      <trkpt lat="47.56018" lon="5.73976">
        <ele>197</ele>
        <time>2018-12-03T14:10:10Z</time>
      </trkpt>
      <trkpt lat="47.55916" lon="5.73888">
        <ele>196</ele>
        <time>2018-12-03T14:11:10Z</time>
      </trkpt>
      <trkpt lat="47.5564" lon="5.73706">
        <ele>204</ele>
        <time>2018-12-03T14:12:10Z</time>
      </trkpt>
      <trkpt lat="47.55544" lon="5.73639">
        <ele>208</ele>
        <time>2018-12-03T14:13:10Z</time>
      </trkpt>
      <trkpt lat="47.55466" lon="5.73624">
        <ele>211</ele>
        <time>2018-12-03T14:14:10Z</time>
      </trkpt>
      <trkpt lat="47.55395" lon="5.73575">
        <ele>218</ele>
        <time>2018-12-03T14:15:10Z</time>
      </trkpt>
      <trkpt lat="47.55339" lon="5.73521">
        <ele>227</ele>
        <time>2018-12-03T14:16:10Z</time>
      </trkpt>
      <trkpt lat="47.55305" lon="5.73463">
        <ele>230</ele>
        <time>2018-12-03T14:17:10Z</time>
      </trkpt>
      <trkpt lat="47.55136" lon="5.73354">
        <ele>228</ele>
        <time>2018-12-03T14:18:10Z</time>
      </trkpt>
      <trkpt lat="47.54878" lon="5.73169">
        <ele>220</ele>
        <time>2018-12-03T14:19:10Z</time>
      </trkpt>
      <trkpt lat="47.54858" lon="5.73085">
        <ele>216</ele>
        <time>2018-12-03T14:20:10Z</time>
      </trkpt>
      <trkpt lat="47.54706" lon="5.72989">
        <ele>207</ele>
        <time>2018-12-03T14:21:10Z</time>
      </trkpt>
      <trkpt lat="47.54649" lon="5.72924">
        <ele>204</ele>
        <time>2018-12-03T14:22:10Z</time>
      </trkpt>
      <trkpt lat="47.54525" lon="5.72862">
        <ele>202</ele>
        <time>2018-12-03T14:23:10Z</time>
      </trkpt>
      <trkpt lat="47.54212" lon="5.72648">
        <ele>194</ele>
        <time>2018-12-03T14:24:10Z</time>
      </trkpt>
      <trkpt lat="47.54176" lon="5.7259">
        <ele>193</ele>
        <time>2018-12-03T14:25:10Z</time>
      </trkpt>
      <trkpt lat="47.5417" lon="5.72519">
        <ele>193</ele>
        <time>2018-12-03T14:26:10Z</time>
      </trkpt>
      <trkpt lat="47.54168" lon="5.72437">
        <ele>192</ele>
        <time>2018-12-03T14:27:10Z</time>
      </trkpt>
      <trkpt lat="47.54173" lon="5.72294">
        <ele>192</ele>
        <time>2018-12-03T14:28:10Z</time>
      </trkpt>
      <trkpt lat="47.54134" lon="5.72079">
        <ele>191</ele>
        <time>2018-12-03T14:29:10Z</time>
      </trkpt>
      <trkpt lat="47.54121" lon="5.71993">
        <ele>190</ele>
        <time>2018-12-03T14:30:10Z</time>
      </trkpt>
      <trkpt lat="47.5406" lon="5.71877">
        <ele>189</ele>
        <time>2018-12-03T14:31:10Z</time>
      </trkpt>
      <trkpt lat="47.54024" lon="5.71764">
        <ele>188</ele>
        <time>2018-12-03T14:32:10Z</time>
      </trkpt>
      <trkpt lat="47.54015" lon="5.71646">
        <ele>191</ele>
        <time>2018-12-03T14:33:10Z</time>
      </trkpt>
      <trkpt lat="47.54054" lon="5.71553">
        <ele>195</ele>
        <time>2018-12-03T14:34:10Z</time>
      </trkpt>
      <trkpt lat="47.54167" lon="5.71515">
        <ele>195</ele>
        <time>2018-12-03T14:35:10Z</time>
      </trkpt>
      <trkpt lat="47.5427" lon="5.71461">
        <ele>193</ele>
        <time>2018-12-03T14:36:10Z</time>
      </trkpt>
      <trkpt lat="47.5436" lon="5.71356">
        <ele>196</ele>
        <time>2018-12-03T14:37:10Z</time>
      </trkpt>
      <trkpt lat="47.54383" lon="5.71236">
        <ele>207</ele>
        <time>2018-12-03T14:38:10Z</time>
      </trkpt>
      <trkpt lat="47.54316" lon="5.71156">
        <ele>214</ele>
        <time>2018-12-03T14:39:10Z</time>
      </trkpt>
      <trkpt lat="47.54163" lon="5.71049">
        <ele>215</ele>
        <time>2018-12-03T14:40:10Z</time>
      </trkpt>
      <trkpt lat="47.53861" lon="5.7088">
        <ele>205</ele>
        <time>2018-12-03T14:41:10Z</time>
      </trkpt>
      <trkpt lat="47.5363" lon="5.70757">
        <ele>205</ele>
        <time>2018-12-03T14:42:10Z</time>
      </trkpt>
      <trkpt lat="47.53405" lon="5.70744">
        <ele>199</ele>
        <time>2018-12-03T14:43:10Z</time>
      </trkpt>
      <trkpt lat="47.53269" lon="5.7077">
        <ele>195</ele>
        <time>2018-12-03T14:44:10Z</time>
      </trkpt>
      <trkpt lat="47.5316" lon="5.70762">
        <ele>193</ele>
        <time>2018-12-03T14:45:10Z</time>
      </trkpt>
      <trkpt lat="47.52918" lon="5.70686">
        <ele>195</ele>
        <time>2018-12-03T14:46:10Z</time>
      </trkpt>
      <trkpt lat="47.52798" lon="5.70558">
        <ele>194</ele>
        <time>2018-12-03T14:47:10Z</time>
      </trkpt>
      <trkpt lat="47.52741" lon="5.705">
        <ele>194</ele>
        <time>2018-12-03T14:48:10Z</time>
      </trkpt>
      <trkpt lat="47.52694" lon="5.70418">
        <ele>196</ele>
        <time>2018-12-03T14:49:10Z</time>
      </trkpt>
      <trkpt lat="47.52644" lon="5.7009">
        <ele>193</ele>
        <time>2018-12-03T14:50:10Z</time>
      </trkpt>
      <trkpt lat="47.52708" lon="5.69903">
        <ele>193</ele>
        <time>2018-12-03T14:51:10Z</time>
      </trkpt>
      <trkpt lat="47.52743" lon="5.69856">
        <ele>192</ele>
        <time>2018-12-03T14:52:10Z</time>
      </trkpt>
      <trkpt lat="47.52814" lon="5.69817">
        <ele>191</ele>
        <time>2018-12-03T14:53:10Z</time>
      </trkpt>
      <trkpt lat="47.52876" lon="5.69783">
        <ele>191</ele>
        <time>2018-12-03T14:54:10Z</time>
      </trkpt>
      <trkpt lat="47.53005" lon="5.69693">
        <ele>193</ele>
        <time>2018-12-03T14:55:10Z</time>
      </trkpt>
      <trkpt lat="47.5313" lon="5.69607">
        <ele>192</ele>
        <time>2018-12-03T14:56:10Z</time>
      </trkpt>
      <trkpt lat="47.53272" lon="5.69568">
        <ele>194</ele>
        <time>2018-12-03T14:57:10Z</time>
      </trkpt>
      <trkpt lat="47.5318" lon="5.69399">
        <ele>192</ele>
        <time>2018-12-03T14:58:10Z</time>
      </trkpt>
      <trkpt lat="47.53037" lon="5.69171">
        <ele>194</ele>
        <time>2018-12-03T14:59:10Z</time>
      </trkpt>
      <trkpt lat="47.52985" lon="5.6909">
        <ele>196</ele>
        <time>2018-12-03T15:00:10Z</time>
      </trkpt>
      <trkpt lat="47.53037" lon="5.69026">
        <ele>197</ele>
        <time>2018-12-03T15:01:10Z</time>
      </trkpt>
      <trkpt lat="47.53151" lon="5.68738">
        <ele>192</ele>
        <time>2018-12-03T15:02:10Z</time>
      </trkpt>
      <trkpt lat="47.53292" lon="5.68541">
        <ele>192</ele>
        <time>2018-12-03T15:03:10Z</time>
      </trkpt>
      <trkpt lat="47.53351" lon="5.68433">
        <ele>193</ele>
        <time>2018-12-03T15:04:10Z</time>
      </trkpt>
      <trkpt lat="47.53457" lon="5.68281">
        <ele>193</ele>
        <time>2018-12-03T15:05:10Z</time>
      </trkpt>
      <trkpt lat="47.53505" lon="5.68187">
        <ele>193</ele>
        <time>2018-12-03T15:06:10Z</time>
      </trkpt>
      <trkpt lat="47.53541" lon="5.68062">
        <ele>194</ele>
        <time>2018-12-03T15:07:10Z</time>
      </trkpt>
      <trkpt lat="47.53583" lon="5.67476">
        <ele>193</ele>
        <time>2018-12-03T15:08:10Z</time>
      </trkpt>
      <trkpt lat="47.53585" lon="5.67189">
        <ele>193</ele>
        <time>2018-12-03T15:09:10Z</time>
      </trkpt>
      <trkpt lat="47.53551" lon="5.66884">
        <ele>192</ele>
        <time>2018-12-03T15:10:10Z</time>
      </trkpt>
      <trkpt lat="47.53473" lon="5.66605">
        <ele>192</ele>
        <time>2018-12-03T15:11:10Z</time>
      </trkpt>
      <trkpt lat="47.53425" lon="5.66453">
        <ele>191</ele>
        <time>2018-12-03T15:12:10Z</time>
      </trkpt>
      <trkpt lat="47.53428" lon="5.66277">
        <ele>192</ele>
        <time>2018-12-03T15:13:10Z</time>
      </trkpt>
      <trkpt lat="47.53451" lon="5.66077">
        <ele>192</ele>
        <time>2018-12-03T15:14:10Z</time>
      </trkpt>
      <trkpt lat="47.53453" lon="5.65951">
        <ele>193</ele>
        <time>2018-12-03T15:15:10Z</time>
      </trkpt>
      <trkpt lat="47.53395" lon="5.65809">
        <ele>193</ele>
        <time>2018-12-03T15:16:10Z</time>
      </trkpt>
      <trkpt lat="47.53317" lon="5.65682">
        <ele>194</ele>
        <time>2018-12-03T15:17:10Z</time>
      </trkpt>
      <trkpt lat="47.53162" lon="5.65526">
        <ele>193</ele>
        <time>2018-12-03T15:18:10Z</time>
      </trkpt>
      <trkpt lat="47.53101" lon="5.65485">
        <ele>192</ele>
        <time>2018-12-03T15:19:10Z</time>
      </trkpt>
      <trkpt lat="47.52899" lon="5.65378">
        <ele>193</ele>
        <time>2018-12-03T15:20:10Z</time>
      </trkpt>
      <trkpt lat="47.52847" lon="5.65406">
        <ele>191</ele>
        <time>2018-12-03T15:21:10Z</time>
      </trkpt>
      <trkpt lat="47.5243" lon="5.65846">
        <ele>188</ele>
        <time>2018-12-03T15:22:10Z</time>
      </trkpt>
      <trkpt lat="47.52336" lon="5.65919">
        <ele>192</ele>
        <time>2018-12-03T15:23:10Z</time>
      </trkpt>
      <trkpt lat="47.52257" lon="5.65951">
        <ele>193</ele>
        <time>2018-12-03T15:24:10Z</time>
      </trkpt>
      <trkpt lat="47.51721" lon="5.65964">
        <ele>190</ele>
        <time>2018-12-03T15:25:10Z</time>
      </trkpt>
      <trkpt lat="47.51204" lon="5.65987">
        <ele>191</ele>
        <time>2018-12-03T15:26:10Z</time>
      </trkpt>
      <trkpt lat="47.5104" lon="5.65961">
        <ele>192</ele>
        <time>2018-12-03T15:27:10Z</time>
      </trkpt>
      <trkpt lat="47.50807" lon="5.65826">
        <ele>192</ele>
        <time>2018-12-03T15:28:10Z</time>
      </trkpt>
      <trkpt lat="47.50356" lon="5.65504">
        <ele>190</ele>
        <time>2018-12-03T15:29:10Z</time>
      </trkpt>
      <trkpt lat="47.50027" lon="5.65309">
        <ele>190</ele>
        <time>2018-12-03T15:30:10Z</time>
      </trkpt>
      <trkpt lat="47.49931" lon="5.6529">
        <ele>192</ele>
        <time>2018-12-03T15:31:10Z</time>
      </trkpt>
      <trkpt lat="47.49786" lon="5.65322">
        <ele>193</ele>
        <time>2018-12-03T15:32:10Z</time>
      </trkpt>
      <trkpt lat="47.49625" lon="5.65528">
        <ele>197</ele>
        <time>2018-12-03T15:33:10Z</time>
      </trkpt>
      <trkpt lat="47.49409" lon="5.65936">
        <ele>189</ele>
        <time>2018-12-03T15:34:10Z</time>
      </trkpt>
      <trkpt lat="47.49277" lon="5.66097">
        <ele>190</ele>
        <time>2018-12-03T15:35:10Z</time>
      </trkpt>
      <trkpt lat="47.49145" lon="5.66337">
        <ele>192</ele>
        <time>2018-12-03T15:36:10Z</time>
      </trkpt>
      <trkpt lat="47.49096" lon="5.66485">
        <ele>191</ele>
        <time>2018-12-03T15:37:10Z</time>
      </trkpt>
      <trkpt lat="47.4904" lon="5.66648">
        <ele>190</ele>
        <time>2018-12-03T15:38:10Z</time>
      </trkpt>
      <trkpt lat="47.48958" lon="5.66805">
        <ele>188</ele>
        <time>2018-12-03T15:39:10Z</time>
      </trkpt>
      <trkpt lat="47.48734" lon="5.66966">
        <ele>194</ele>
        <time>2018-12-03T15:40:10Z</time>
      </trkpt>
      <trkpt lat="47.48676" lon="5.66985">
        <ele>192</ele>
        <time>2018-12-03T15:41:10Z</time>
      </trkpt>
      <trkpt lat="47.48592" lon="5.66998">
        <ele>193</ele>
        <time>2018-12-03T15:42:10Z</time>
      </trkpt>
      <trkpt lat="47.48487" lon="5.67049">
        <ele>191</ele>
        <time>2018-12-03T15:43:10Z</time>
      </trkpt>
      <trkpt lat="47.48371" lon="5.67011">
        <ele>190</ele>
        <time>2018-12-03T15:44:10Z</time>
      </trkpt>
      <trkpt lat="47.48152" lon="5.66985">
        <ele>191</ele>
        <time>2018-12-03T15:45:10Z</time>
      </trkpt>
      <trkpt lat="47.48007" lon="5.67013">
        <ele>190</ele>
        <time>2018-12-03T15:46:10Z</time>
      </trkpt>
      <trkpt lat="47.47809" lon="5.66921">
        <ele>191</ele>
        <time>2018-12-03T15:47:10Z</time>
      </trkpt>
      <trkpt lat="47.47717" lon="5.66835">
        <ele>191</ele>
        <time>2018-12-03T15:48:10Z</time>
      </trkpt>
      <trkpt lat="47.47591" lon="5.66511">
        <ele>192</ele>
        <time>2018-12-03T15:49:10Z</time>
      </trkpt>
      <trkpt lat="47.47501" lon="5.66303">
        <ele>190</ele>
        <time>2018-12-03T15:50:10Z</time>
      </trkpt>
      <trkpt lat="47.47376" lon="5.66148">
        <ele>192</ele>
        <time>2018-12-03T15:51:10Z</time>
      </trkpt>
      <trkpt lat="47.47278" lon="5.66037">
        <ele>191</ele>
        <time>2018-12-03T15:52:10Z</time>
      </trkpt>
      <trkpt lat="47.4721" lon="5.65934">
        <ele>193</ele>
        <time>2018-12-03T15:53:10Z</time>
      </trkpt>
      <trkpt lat="47.47141" lon="5.65725">
        <ele>197</ele>
        <time>2018-12-03T15:54:10Z</time>
      </trkpt>
      <trkpt lat="47.47134" lon="5.65556">
        <ele>196</ele>
        <time>2018-12-03T15:55:10Z</time>
      </trkpt>
      <trkpt lat="47.4723" lon="5.65365">
        <ele>190</ele>
        <time>2018-12-03T15:56:10Z</time>
      </trkpt>
      <trkpt lat="47.47389" lon="5.65311">
        <ele>188</ele>
        <time>2018-12-03T15:57:10Z</time>
      </trkpt>
      <trkpt lat="47.47453" lon="5.65262">
        <ele>190</ele>
        <time>2018-12-03T15:58:10Z</time>
      </trkpt>
      <trkpt lat="47.475" lon="5.65064">
        <ele>187</ele>
        <time>2018-12-03T15:59:10Z</time>
      </trkpt>
      <trkpt lat="47.4744" lon="5.64788">
        <ele>189</ele>
        <time>2018-12-03T16:00:10Z</time>
      </trkpt>
      <trkpt lat="47.47384" lon="5.6462">
        <ele>192</ele>
        <time>2018-12-03T16:01:10Z</time>
      </trkpt>
      <trkpt lat="47.47311" lon="5.64545">
        <ele>192</ele>
        <time>2018-12-03T16:02:10Z</time>
      </trkpt>
      <trkpt lat="47.4706" lon="5.64453">
        <ele>189</ele>
        <time>2018-12-03T16:03:10Z</time>
      </trkpt>
      <trkpt lat="47.46901" lon="5.64256">
        <ele>193</ele>
        <time>2018-12-03T16:04:10Z</time>
      </trkpt>
      <trkpt lat="47.46851" lon="5.64041">
        <ele>190</ele>
        <time>2018-12-03T16:05:10Z</time>
      </trkpt>
      <trkpt lat="47.4687" lon="5.63863">
        <ele>191</ele>
        <time>2018-12-03T16:06:10Z</time>
      </trkpt>
      <trkpt lat="47.46837" lon="5.63659">
        <ele>192</ele>
        <time>2018-12-03T16:07:10Z</time>
      </trkpt>
      <trkpt lat="47.46742" lon="5.63711">
        <ele>189</ele>
        <time>2018-12-03T16:08:10Z</time>
      </trkpt>
      <trkpt lat="47.4659" lon="5.63301">
        <ele>188</ele>
        <time>2018-12-03T16:09:10Z</time>
      </trkpt>
      <trkpt lat="47.46235" lon="5.62316">
        <ele>187</ele>
        <time>2018-12-03T16:10:10Z</time>
      </trkpt>
      <trkpt lat="47.46093" lon="5.6193">
        <ele>189</ele>
        <time>2018-12-03T16:11:10Z</time>
      </trkpt>
      <trkpt lat="47.45985" lon="5.61818">
        <ele>188</ele>
        <time>2018-12-03T16:12:10Z</time>
      </trkpt>
      <trkpt lat="47.45916" lon="5.61807">
        <ele>187</ele>
        <time>2018-12-03T16:13:10Z</time>
      </trkpt>
      <trkpt lat="47.45843" lon="5.61747">
        <ele>187</ele>
        <time>2018-12-03T16:14:10Z</time>
      </trkpt>
      <trkpt lat="47.45776" lon="5.61657">
        <ele>187</ele>
        <time>2018-12-03T16:15:10Z</time>
      </trkpt>
      <trkpt lat="47.45737" lon="5.61657">
        <ele>187</ele>
        <time>2018-12-03T16:16:10Z</time>
      </trkpt>
      <trkpt lat="47.45698" lon="5.61453">
        <ele>188</ele>
        <time>2018-12-03T16:17:10Z</time>
      </trkpt>
      <trkpt lat="47.45665" lon="5.61342">
        <ele>186</ele>
        <time>2018-12-03T16:18:10Z</time>
      </trkpt>
      <trkpt lat="47.45666" lon="5.61041">
        <ele>190</ele>
        <time>2018-12-03T16:19:10Z</time>
      </trkpt>
      <trkpt lat="47.45624" lon="5.60792">
        <ele>187</ele>
        <time>2018-12-03T16:20:10Z</time>
      </trkpt>
      <trkpt lat="47.45589" lon="5.60539">
        <ele>188</ele>
        <time>2018-12-03T16:21:10Z</time>
      </trkpt>
      <trkpt lat="47.45432" lon="5.6037">
        <ele>186</ele>
        <time>2018-12-03T16:22:10Z</time>
      </trkpt>
      <trkpt lat="47.45398" lon="5.60346">
        <ele>188</ele>
        <time>2018-12-03T16:23:10Z</time>
      </trkpt>
      <trkpt lat="47.45322" lon="5.60404">
        <ele>189</ele>
        <time>2018-12-03T16:24:10Z</time>
      </trkpt>
      <trkpt lat="47.45168" lon="5.59895">
        <ele>189</ele>
        <time>2018-12-03T16:25:10Z</time>
      </trkpt>
      <trkpt lat="47.45083" lon="5.59773">
        <ele>193</ele>
        <time>2018-12-03T16:26:10Z</time>
      </trkpt>
      <trkpt lat="47.44974" lon="5.59687">
        <ele>189</ele>
        <time>2018-12-03T16:27:10Z</time>
      </trkpt>
      <trkpt lat="47.449" lon="5.59674">
        <ele>188</ele>
        <time>2018-12-03T16:28:10Z</time>
      </trkpt>
      <trkpt lat="47.44809" lon="5.59513">
        <ele>189</ele>
        <time>2018-12-03T16:29:10Z</time>
      </trkpt>
      <trkpt lat="47.4487" lon="5.59183">
        <ele>192</ele>
        <time>2018-12-03T16:30:10Z</time>
      </trkpt>
      <trkpt lat="47.44852" lon="5.58925">
        <ele>190</ele>
        <time>2018-12-03T16:31:10Z</time>
      </trkpt>
      <trkpt lat="47.44957" lon="5.58556">
        <ele>188</ele>
        <time>2018-12-03T16:32:10Z</time>
      </trkpt>
      <trkpt lat="47.45002" lon="5.58336">
        <ele>187</ele>
        <time>2018-12-03T16:33:10Z</time>
      </trkpt>
      <trkpt lat="47.44987" lon="5.58173">
        <ele>188</ele>
        <time>2018-12-03T16:34:10Z</time>
      </trkpt>
      <trkpt lat="47.44928" lon="5.57911">
        <ele>189</ele>
        <time>2018-12-03T16:35:10Z</time>
      </trkpt>
      <trkpt lat="47.44852" lon="5.57645">
        <ele>189</ele>
        <time>2018-12-03T16:36:10Z</time>
      </trkpt>
      <trkpt lat="47.44746" lon="5.57184">
        <ele>185</ele>
        <time>2018-12-03T16:37:10Z</time>
      </trkpt>
      <trkpt lat="47.44717" lon="5.56974">
        <ele>185</ele>
        <time>2018-12-03T16:38:10Z</time>
      </trkpt>
      <trkpt lat="47.44709" lon="5.56772">
        <ele>188</ele>
        <time>2018-12-03T16:39:10Z</time>
      </trkpt>
      <trkpt lat="47.44698" lon="5.56626">
        <ele>186</ele>
        <time>2018-12-03T16:40:10Z</time>
      </trkpt>
      <trkpt lat="47.44693" lon="5.56474">
        <ele>185</ele>
        <time>2018-12-03T16:41:10Z</time>
      </trkpt>
      <trkpt lat="47.44709" lon="5.5639">
        <ele>185</ele>
        <time>2018-12-03T16:42:10Z</time>
      </trkpt>
      <trkpt lat="47.44743" lon="5.56347">
        <ele>185</ele>
        <time>2018-12-03T16:43:10Z</time>
      </trkpt>
      <trkpt lat="47.44784" lon="5.56311">
        <ele>187</ele>
        <time>2018-12-03T16:44:10Z</time>
      </trkpt>
      <trkpt lat="47.44813" lon="5.56244">
        <ele>188</ele>
        <time>2018-12-03T16:45:10Z</time>
      </trkpt>
      <trkpt lat="47.44813" lon="5.56177">
        <ele>188</ele>
        <time>2018-12-03T16:46:10Z</time>
      </trkpt>
      <trkpt lat="47.44787" lon="5.56124">
        <ele>187</ele>
        <time>2018-12-03T16:47:10Z</time>
      </trkpt>
      <trkpt lat="47.44742" lon="5.56049">
        <ele>185</ele>
        <time>2018-12-03T16:48:10Z</time>
      </trkpt>
      <trkpt lat="47.44693" lon="5.55974">
        <ele>185</ele>
        <time>2018-12-03T16:49:10Z</time>
      </trkpt>
      <trkpt lat="47.44622" lon="5.5586">
        <ele>185</ele>
        <time>2018-12-03T16:50:10Z</time>
      </trkpt>
      <trkpt lat="47.44571" lon="5.55746">
        <ele>185</ele>
        <time>2018-12-03T16:51:10Z</time>
      </trkpt>
      <trkpt lat="47.4451" lon="5.5559">
        <ele>190</ele>
        <time>2018-12-03T16:52:10Z</time>
      </trkpt>
      <trkpt lat="47.44472" lon="5.55519">
        <ele>188</ele>
        <time>2018-12-03T16:53:10Z</time>
      </trkpt>
      <trkpt lat="47.44399" lon="5.55437">
        <ele>188</ele>
        <time>2018-12-03T16:54:10Z</time>
      </trkpt>
      <trkpt lat="47.4426" lon="5.55328">
        <ele>188</ele>
        <time>2018-12-03T16:55:10Z</time>
      </trkpt>
      <trkpt lat="47.4415" lon="5.55285">
        <ele>185</ele>
        <time>2018-12-03T16:56:10Z</time>
      </trkpt>
      <trkpt lat="47.44042" lon="5.55266">
        <ele>186</ele>
        <time>2018-12-03T16:57:10Z</time>
      </trkpt>
      <trkpt lat="47.43909" lon="5.55291">
        <ele>187</ele>
        <time>2018-12-03T16:58:10Z</time>
      </trkpt>
      <trkpt lat="47.43818" lon="5.55283">
        <ele>186</ele>
        <time>2018-12-03T16:59:10Z</time>
      </trkpt>
      <trkpt lat="47.43738" lon="5.55255">
        <ele>186</ele>
        <time>2018-12-03T17:00:10Z</time>
      </trkpt>
      <trkpt lat="47.43652" lon="5.55227">
        <ele>187</ele>
        <time>2018-12-03T17:01:10Z</time>
      </trkpt>
      <trkpt lat="47.43555" lon="5.55231">
        <ele>185</ele>
        <time>2018-12-03T17:02:10Z</time>
      </trkpt>
      <trkpt lat="47.43458" lon="5.55263">
        <ele>186</ele>
        <time>2018-12-03T17:03:10Z</time>
      </trkpt>
      <trkpt lat="47.43378" lon="5.55308">
        <ele>186</ele>
        <time>2018-12-03T17:04:10Z</time>
      </trkpt>
      <trkpt lat="47.43227" lon="5.55416">
        <ele>186</ele>
        <time>2018-12-03T17:05:10Z</time>
      </trkpt>
      <trkpt lat="47.43177" lon="5.55444">
        <ele>187</ele>
        <time>2018-12-03T17:06:10Z</time>
      </trkpt>
      <trkpt lat="47.43131" lon="5.55435">
        <ele>187</ele>
        <time>2018-12-03T17:07:10Z</time>
      </trkpt>
      <trkpt lat="47.43045" lon="5.55405">
        <ele>190</ele>
        <time>2018-12-03T17:08:10Z</time>
      </trkpt>
      <trkpt lat="47.42922" lon="5.55259">
        <ele>189</ele>
        <time>2018-12-03T17:09:10Z</time>
      </trkpt>
      <trkpt lat="47.42884" lon="5.55169">
        <ele>189</ele>
        <time>2018-12-03T17:10:10Z</time>
      </trkpt>
      <trkpt lat="47.42862" lon="5.55096">
        <ele>190</ele>
        <time>2018-12-03T17:11:10Z</time>
      </trkpt>
      <trkpt lat="47.42851" lon="5.54974">
        <ele>190</ele>
        <time>2018-12-03T17:12:10Z</time>
      </trkpt>
      <trkpt lat="47.42849" lon="5.54787">
        <ele>190</ele>
        <time>2018-12-03T17:13:10Z</time>
      </trkpt>
      <trkpt lat="47.42858" lon="5.54673">
        <ele>191</ele>
        <time>2018-12-03T17:14:10Z</time>
      </trkpt>
      <trkpt lat="47.42862" lon="5.54605">
        <ele>191</ele>
        <time>2018-12-03T17:15:10Z</time>
      </trkpt>
      <trkpt lat="47.42854" lon="5.54482">
        <ele>190</ele>
        <time>2018-12-03T17:16:10Z</time>
      </trkpt>
      <trkpt lat="47.42829" lon="5.54409">
        <ele>190</ele>
        <time>2018-12-03T17:17:10Z</time>
      </trkpt>
      <trkpt lat="47.42767" lon="5.54287">
        <ele>189</ele>
        <time>2018-12-03T17:18:10Z</time>
      </trkpt>
      <trkpt lat="47.42707" lon="5.54231">
        <ele>191</ele>
        <time>2018-12-03T17:19:10Z</time>
      </trkpt>
      <trkpt lat="47.42639" lon="5.54148">
        <ele>191</ele>
        <time>2018-12-03T17:20:10Z</time>
      </trkpt>
      <trkpt lat="47.42605" lon="5.54051">
        <ele>191</ele>
        <time>2018-12-03T17:21:10Z</time>
      </trkpt>
      <trkpt lat="47.42578" lon="5.53939">
        <ele>190</ele>
        <time>2018-12-03T17:22:10Z</time>
      </trkpt>
      <trkpt lat="47.42569" lon="5.53577">
        <ele>189</ele>
        <time>2018-12-03T17:23:10Z</time>
      </trkpt>
      <trkpt lat="47.42542" lon="5.5342">
        <ele>191</ele>
        <time>2018-12-03T17:24:10Z</time>
      </trkpt>
      <trkpt lat="47.42481" lon="5.53339">
        <ele>192</ele>
        <time>2018-12-03T17:25:10Z</time>
      </trkpt>
      <trkpt lat="47.42428" lon="5.53287">
        <ele>193</ele>
        <time>2018-12-03T17:26:10Z</time>
      </trkpt>
      <trkpt lat="47.42362" lon="5.53253">
        <ele>194</ele>
        <time>2018-12-03T17:27:10Z</time>
      </trkpt>
      <trkpt lat="47.4229" lon="5.53268">
        <ele>194</ele>
        <time>2018-12-03T17:28:10Z</time>
      </trkpt>
      <trkpt lat="47.42141" lon="5.5333">
        <ele>192</ele>
        <time>2018-12-03T17:29:10Z</time>
      </trkpt>
      <trkpt lat="47.42054" lon="5.53352">
        <ele>190</ele>
        <time>2018-12-03T17:30:10Z</time>
      </trkpt>
      <trkpt lat="47.41968" lon="5.53384">
        <ele>187</ele>
        <time>2018-12-03T17:31:10Z</time>
      </trkpt>
      <trkpt lat="47.41903" lon="5.53474">
        <ele>186</ele>
        <time>2018-12-03T17:32:10Z</time>
      </trkpt>
      <trkpt lat="47.41694" lon="5.53635">
        <ele>188</ele>
        <time>2018-12-03T17:33:10Z</time>
      </trkpt>
      <trkpt lat="47.4161" lon="5.53695">
        <ele>189</ele>
        <time>2018-12-03T17:34:10Z</time>
      </trkpt>
      <trkpt lat="47.41567" lon="5.53742">
        <ele>191</ele>
        <time>2018-12-03T17:35:10Z</time>
      </trkpt>
      <trkpt lat="47.41515" lon="5.53826">
        <ele>191</ele>
        <time>2018-12-03T17:36:10Z</time>
      </trkpt>
      <trkpt lat="47.41472" lon="5.53939">
        <ele>187</ele>
        <time>2018-12-03T17:37:10Z</time>
      </trkpt>
      <trkpt lat="47.41395" lon="5.54133">
        <ele>187</ele>
        <time>2018-12-03T17:38:10Z</time>
      </trkpt>
      <trkpt lat="47.41358" lon="5.54274">
        <ele>187</ele>
        <time>2018-12-03T17:39:10Z</time>
      </trkpt>
      <trkpt lat="47.41342" lon="5.54386">
        <ele>188</ele>
        <time>2018-12-03T17:40:10Z</time>
      </trkpt>
      <trkpt lat="47.41305" lon="5.54493">
        <ele>190</ele>
        <time>2018-12-03T17:41:10Z</time>
      </trkpt>
      <trkpt lat="47.41247" lon="5.54583">
        <ele>189</ele>
        <time>2018-12-03T17:42:10Z</time>
      </trkpt>
      <trkpt lat="47.41167" lon="5.54459">
        <ele>189</ele>
        <time>2018-12-03T17:43:10Z</time>
      </trkpt>
      <trkpt lat="47.41181" lon="5.5442">
        <ele>190</ele>
        <time>2018-12-03T17:44:10Z</time>
      </trkpt>
      <trkpt lat="47.41127" lon="5.54381">
        <ele>188</ele>
        <time>2018-12-03T17:45:10Z</time>
      </trkpt>
      <trkpt lat="47.40971" lon="5.54272">
        <ele>188</ele>
        <time>2018-12-03T17:46:10Z</time>
      </trkpt>
      <trkpt lat="47.40908" lon="5.54227">
        <ele>191</ele>
        <time>2018-12-03T17:47:10Z</time>
      </trkpt>
      <trkpt lat="47.40814" lon="5.54156">
        <ele>194</ele>
        <time>2018-12-03T17:48:10Z</time>
      </trkpt>
      <trkpt lat="47.40735" lon="5.54064">
        <ele>191</ele>
        <time>2018-12-03T17:49:10Z</time>
      </trkpt>
      <trkpt lat="47.4067" lon="5.53957">
        <ele>190</ele>
        <time>2018-12-03T17:50:10Z</time>
      </trkpt>
      <trkpt lat="47.40622" lon="5.5383">
        <ele>187</ele>
        <time>2018-12-03T17:51:10Z</time>
      </trkpt>
      <trkpt lat="47.40587" lon="5.53645">
        <ele>192</ele>
        <time>2018-12-03T17:52:10Z</time>
      </trkpt>
      <trkpt lat="47.40647" lon="5.53637">
        <ele>189</ele>
        <time>2018-12-03T17:53:10Z</time>
      </trkpt>
      <trkpt lat="47.40626" lon="5.53512">
        <ele>189</ele>
        <time>2018-12-03T17:54:10Z</time>
      </trkpt>
      <trkpt lat="47.40413" lon="5.50804">
        <ele>188</ele>
        <time>2018-12-03T17:55:10Z</time>
      </trkpt>
      <trkpt lat="47.40403" lon="5.50695">
        <ele>187</ele>
        <time>2018-12-03T17:56:10Z</time>
      </trkpt>
      <trkpt lat="47.40412" lon="5.50661">
        <ele>187</ele>
        <time>2018-12-03T17:57:10Z</time>
      </trkpt>
      <trkpt lat="47.40391" lon="5.50538">
        <ele>185</ele>
        <time>2018-12-03T17:58:10Z</time>
      </trkpt>
      <trkpt lat="47.40394" lon="5.50446">
        <ele>183</ele>
        <time>2018-12-03T17:59:10Z</time>
      </trkpt>
      <trkpt lat="47.40414" lon="5.50302">
        <ele>184</ele>
        <time>2018-12-03T18:00:10Z</time>
      </trkpt>
      <trkpt lat="47.40419" lon="5.50199">
        <ele>186</ele>
        <time>2018-12-03T18:01:10Z</time>
      </trkpt>
      <trkpt lat="47.40412" lon="5.50101">
        <ele>187</ele>
        <time>2018-12-03T18:02:10Z</time>
      </trkpt>
      <trkpt lat="47.40381" lon="5.50004">
        <ele>186</ele>
        <time>2018-12-03T18:03:10Z</time>
      </trkpt>
      <trkpt lat="47.40349" lon="5.4995">
        <ele>189</ele>
        <time>2018-12-03T18:04:10Z</time>
      </trkpt>
      <trkpt lat="47.40292" lon="5.4992">
        <ele>192</ele>
        <time>2018-12-03T18:05:10Z</time>
      </trkpt>
      <trkpt lat="47.40156" lon="5.4988">
        <ele>195</ele>
        <time>2018-12-03T18:06:10Z</time>
      </trkpt>
      <trkpt lat="47.39963" lon="5.49813">
        <ele>195</ele>
        <time>2018-12-03T18:07:10Z</time>
      </trkpt>
      <trkpt lat="47.39809" lon="5.4974">
        <ele>192</ele>
        <time>2018-12-03T18:08:10Z</time>
      </trkpt>
      <trkpt lat="47.39717" lon="5.49691">
        <ele>190</ele>
        <time>2018-12-03T18:09:10Z</time>
      </trkpt>
      <trkpt lat="47.3972" lon="5.49367">
        <ele>195</ele>
        <time>2018-12-03T18:10:10Z</time>
      </trkpt>
      <trkpt lat="47.39713" lon="5.48946">
        <ele>202</ele>
        <time>2018-12-03T18:11:10Z</time>
      </trkpt>
      <trkpt lat="47.39678" lon="5.48416">
        <ele>203</ele>
        <time>2018-12-03T18:12:10Z</time>
      </trkpt>
      <trkpt lat="47.39652" lon="5.48245">
        <ele>203</ele>
        <time>2018-12-03T18:13:10Z</time>
      </trkpt>
      <trkpt lat="47.39671" lon="5.48039">
        <ele>199</ele>
        <time>2018-12-03T18:14:10Z</time>
      </trkpt>
      <trkpt lat="47.39726" lon="5.47895">
        <ele>194</ele>
        <time>2018-12-03T18:15:10Z</time>
      </trkpt>
      <trkpt lat="47.39741" lon="5.4777">
        <ele>192</ele>
        <time>2018-12-03T18:16:10Z</time>
      </trkpt>
      <trkpt lat="47.39752" lon="5.477">
        <ele>195</ele>
        <time>2018-12-03T18:17:10Z</time>
      </trkpt>
      <trkpt lat="47.39735" lon="5.47515">
        <ele>199</ele>
        <time>2018-12-03T18:18:10Z</time>
      </trkpt>
      <trkpt lat="47.39732" lon="5.47376">
        <ele>201</ele>
        <time>2018-12-03T18:19:10Z</time>
      </trkpt>
      <trkpt lat="47.39719" lon="5.47245">
        <ele>204</ele>
        <time>2018-12-03T18:20:10Z</time>
      </trkpt>
      <trkpt lat="47.39711" lon="5.47041">
        <ele>202</ele>
        <time>2018-12-03T18:21:10Z</time>
      </trkpt>
      <trkpt lat="47.39521" lon="5.4691">
        <ele>198</ele>
        <time>2018-12-03T18:22:10Z</time>
      </trkpt>
      <trkpt lat="47.39389" lon="5.46749">
        <ele>207</ele>
        <time>2018-12-03T18:23:10Z</time>
      </trkpt>
      <trkpt lat="47.3925" lon="5.46586">
        <ele>204</ele>
        <time>2018-12-03T18:24:10Z</time>
      </trkpt>
      <trkpt lat="47.39129" lon="5.46427">
        <ele>205</ele>
        <time>2018-12-03T18:25:10Z</time>
      </trkpt>
      <trkpt lat="47.39088" lon="5.46386">
        <ele>205</ele>
        <time>2018-12-03T18:26:10Z</time>
      </trkpt>
      <trkpt lat="47.39029" lon="5.46339">
        <ele>211</ele>
        <time>2018-12-03T18:27:10Z</time>
      </trkpt>
      <trkpt lat="47.38955" lon="5.4626">
        <ele>210</ele>
        <time>2018-12-03T18:28:10Z</time>
      </trkpt>
      <trkpt lat="47.38881" lon="5.46204">
        <ele>208</ele>
        <time>2018-12-03T18:29:10Z</time>
      </trkpt>
      <trkpt lat="47.38806" lon="5.46137">
        <ele>208</ele>
        <time>2018-12-03T18:30:10Z</time>
      </trkpt>
      <trkpt lat="47.3876" lon="5.46095">
        <ele>208</ele>
        <time>2018-12-03T18:31:10Z</time>
      </trkpt>
      <trkpt lat="47.38734" lon="5.46092">
        <ele>209</ele>
        <time>2018-12-03T18:32:10Z</time>
      </trkpt>
    </trkseg>
  </trk>
</gpx>